[[{"header":{"parameterUnit":"m.s-1","parameterCategory":1,"la1":30.6,"la2":29.2853,"lo1":-89.7004,"lo2":-87.6739,"dx":0.0162,"dy":0.0183,"nx":112,"ny":82,"refTime":"2022-12-25T06:00:00:Z","depth":0,"parameterNumber":2,"parameterNumberName":"U-component_of_WINDS"},"data":[0.0,0.0,0.0,0.0,0.0,0.0,0.0,0.0,0.0,0.0,0.0,0.0,0.0,0.0,0.0,0.0,0.0,0.0,0.0,0.0,0.0,0.0,0.0,0.0,0.0,0.0,0.0,0.0,0.0,0.0,0.0,0.0,0.0,0.0,0.0,0.0,0.0,0.0,0.0,0.0,0.0,0.0,0.0,0.0,0.0,0.0,0.0,0.0,0.0,0.0,0.0,0.0,0.0,0.0,0.0,0.0,0.0,0.0,0.0,0.0,0.0,0.0,0.0,0.0,0.0,0.0,0.0,0.0,0.0,0.0,0.0,0.0,0.0,0.0,0.0,0.0,0.0,0.0,0.0,0.0,0.0,0.0,0.0,0.0,0.0,0.0,0.0,0.0,0.0,0.0,0.0,3.2502,3.9696,4.4869,4.6305,4.4682,4.0033,3.1703,0.0,0.0,0.0,0.0,0.0,0.0,0.0,0.0,0.0,0.0,0.0,0.0,0.0,0.0,0.0,0.0,0.0,0.0,0.0,0.0,0.0,0.0,0.0,0.0,0.0,0.0,0.0,0.0,0.0,0.0,0.0,0.0,0.0,0.0,0.0,0.0,0.0,0.0,0.0,0.0,0.0,0.0,0.0,0.0,0.0,0.0,0.0,0.0,0.0,0.0,0.0,0.0,0.0,0.0,0.0,0.0,0.0,0.0,0.0,0.0,0.0,0.0,0.0,0.0,0.0,0.0,0.0,0.0,0.0,0.0,0.0,0.0,0.0,0.0,0.0,0.0,0.0,0.0,0.0,0.0,0.0,0.0,0.0,0.0,0.0,0.0,0.0,0.0,0.0,0.0,0.0,0.0,0.0,0.0,0.0,0.0,0.0,0.0,0.0,0.0,0.0,0.0,0.0,0.0,3.048,4.0366,4.3641,4.553,4.658,4.5842,4.1254,3.1724,0.0,0.0,0.0,0.0,0.0,0.0,0.0,0.0,0.0,0.0,0.0,0.0,0.0,0.0,0.0,0.0,0.0,0.0,0.0,0.0,0.0,0.0,0.0,0.0,0.0,0.0,0.0,0.0,0.0,0.0,0.0,0.0,0.0,0.0,0.0,0.0,0.0,0.0,0.0,0.0,0.0,0.0,0.0,0.0,0.0,0.0,0.0,0.0,0.0,0.0,0.0,0.0,0.0,0.0,0.0,0.0,0.0,0.0,0.0,0.0,0.0,0.0,0.0,0.0,0.0,0.0,0.0,0.0,0.0,0.0,0.0,0.0,0.0,0.0,0.0,0.0,0.0,0.0,0.0,0.0,0.0,0.0,0.0,0.0,0.0,0.0,0.0,0.0,0.0,0.0,0.0,0.0,0.0,0.0,0.0,0.0,0.0,0.0,0.0,0.0,0.0,0.0,0.0,2.9151,3.4746,4.3539,4.5712,4.6845,4.7638,4.7122,4.2425,3.2128,2.9952,0.0,0.0,0.0,0.0,0.0,0.0,0.0,0.0,0.0,0.0,0.0,0.0,0.0,0.0,0.0,0.0,0.0,0.0,0.0,0.0,0.0,0.0,0.0,0.0,0.0,0.0,0.0,0.0,0.0,0.0,0.0,0.0,0.0,0.0,0.0,0.0,0.0,0.0,0.0,0.0,0.0,0.0,0.0,0.0,0.0,0.0,0.0,0.0,0.0,0.0,0.0,0.0,0.0,0.0,0.0,0.0,0.0,0.0,0.0,0.0,0.0,0.0,0.0,0.0,0.0,0.0,0.0,0.0,0.0,0.0,0.0,0.0,0.0,0.0,0.0,0.0,0.0,0.0,0.0,0.0,0.0,0.0,0.0,0.0,0.0,0.0,0.0,0.0,0.0,0.0,0.0,0.0,0.0,0.0,0.0,0.0,0.0,0.0,0.0,0.0,0.0,0.0,3.453,3.9336,4.4939,4.6946,4.7974,4.8263,4.794,4.3141,3.2468,3.1185,0.0,0.0,0.0,0.0,0.0,0.0,0.0,0.0,0.0,0.0,0.0,0.0,0.0,0.0,0.0,0.0,0.0,0.0,0.0,0.0,0.0,0.0,0.0,0.0,0.0,0.0,0.0,0.0,0.0,0.0,0.0,0.0,0.0,0.0,0.0,0.0,0.0,0.0,0.0,0.0,0.0,0.0,0.0,0.0,0.0,0.0,0.0,0.0,0.0,0.0,0.0,0.0,0.0,0.0,0.0,0.0,0.0,0.0,0.0,0.0,0.0,0.0,0.0,0.0,0.0,0.0,0.0,0.0,0.0,0.0,0.0,0.0,0.0,0.0,0.0,0.0,0.0,0.0,0.0,0.0,0.0,0.0,0.0,0.0,0.0,0.0,0.0,0.0,0.0,0.0,0.0,0.0,0.0,0.0,0.0,0.0,0.0,0.0,0.0,0.0,0.0,0.0,3.6835,4.2794,4.5388,4.7492,4.8395,4.7687,4.7712,4.3148,3.2486,3.0706,0.0,0.0,0.0,0.0,0.0,0.0,0.0,0.0,0.0,0.0,0.0,0.0,0.0,0.0,0.0,0.0,0.0,0.0,0.0,0.0,0.0,0.0,0.0,0.0,0.0,0.0,0.0,0.0,0.0,0.0,0.0,0.0,0.0,0.0,0.0,0.0,0.0,0.0,0.0,0.0,0.0,0.0,0.0,0.0,0.0,0.0,0.0,0.0,0.0,0.0,0.0,0.0,0.0,0.0,0.0,0.0,0.0,0.0,0.0,0.0,0.0,0.0,0.0,0.0,0.0,0.0,0.0,0.0,0.0,0.0,0.0,0.0,0.0,0.0,0.0,0.0,0.0,0.0,0.0,0.0,0.0,0.0,0.0,0.0,0.0,0.0,0.0,0.0,0.0,0.0,0.0,0.0,0.0,0.0,0.0,0.0,0.0,0.0,0.0,0.0,0.0,0.0,3.6253,4.1982,0.0,4.8553,4.9336,4.9053,4.892,4.4206,3.3236,0.0,0.0,0.0,0.0,0.0,0.0,0.0,0.0,0.0,0.0,0.0,0.0,0.0,0.0,0.0,0.0,0.0,0.0,0.0,0.0,0.0,0.0,0.0,0.0,0.0,0.0,0.0,0.0,0.0,0.0,0.0,0.0,0.0,0.0,0.0,0.0,0.0,0.0,0.0,0.0,0.0,0.0,0.0,0.0,0.0,0.0,0.0,0.0,0.0,0.0,0.0,0.0,0.0,0.0,0.0,0.0,0.0,0.0,0.0,0.0,0.0,0.0,0.0,0.0,0.0,0.0,0.0,0.0,0.0,0.0,0.0,0.0,0.0,0.0,0.0,0.0,0.0,0.0,0.0,0.0,0.0,0.0,0.0,0.0,0.0,0.0,0.0,0.0,0.0,0.0,0.0,0.0,0.0,0.0,0.0,0.0,0.0,0.0,0.0,0.0,0.0,0.0,3.0818,3.7144,4.2861,0.0,4.9353,5.015,4.9902,4.9474,4.4554,3.3696,0.0,0.0,0.0,0.0,0.0,0.0,0.0,0.0,0.0,0.0,0.0,0.0,0.0,0.0,0.0,0.0,0.0,0.0,0.0,0.0,0.0,0.0,0.0,0.0,0.0,0.0,0.0,0.0,0.0,0.0,0.0,0.0,0.0,0.0,0.0,0.0,0.0,0.0,0.0,0.0,0.0,0.0,0.0,0.0,0.0,0.0,0.0,0.0,0.0,0.0,0.0,0.0,0.0,0.0,0.0,0.0,0.0,0.0,0.0,0.0,0.0,0.0,0.0,0.0,0.0,0.0,0.0,0.0,0.0,0.0,0.0,0.0,0.0,0.0,0.0,0.0,0.0,0.0,0.0,0.0,0.0,0.0,0.0,0.0,0.0,0.0,0.0,0.0,0.0,0.0,0.0,0.0,0.0,0.0,0.0,0.0,0.0,0.0,0.0,0.0,0.0,0.0,3.1901,4.0155,4.6278,4.7767,4.9806,5.0767,4.9973,4.8924,4.3965,0.0,0.0,0.0,0.0,0.0,0.0,0.0,0.0,0.0,0.0,0.0,0.0,0.0,0.0,0.0,0.0,0.0,0.0,0.0,0.0,0.0,0.0,0.0,0.0,0.0,0.0,0.0,0.0,0.0,0.0,0.0,0.0,0.0,0.0,0.0,0.0,0.0,0.0,0.0,0.0,0.0,0.0,0.0,0.0,0.0,0.0,0.0,0.0,0.0,0.0,0.0,0.0,0.0,0.0,0.0,0.0,0.0,0.0,0.0,0.0,0.0,0.0,0.0,0.0,0.0,0.0,0.0,0.0,0.0,0.0,0.0,0.0,0.0,0.0,0.0,0.0,0.0,0.0,0.0,0.0,0.0,0.0,0.0,0.0,0.0,0.0,0.0,0.0,0.0,0.0,0.0,0.0,0.0,0.0,0.0,0.0,0.0,0.0,0.0,0.0,0.0,0.0,0.0,3.2611,4.046,4.6481,4.8477,5.0119,5.098,5.0767,5.0343,4.5438,3.4513,0.0,0.0,0.0,0.0,0.0,0.0,0.0,0.0,0.0,0.0,0.0,0.0,0.0,0.0,0.0,0.0,0.0,0.0,0.0,0.0,0.0,0.0,0.0,0.0,0.0,0.0,0.0,0.0,0.0,0.0,0.0,0.0,0.0,0.0,0.0,0.0,0.0,0.0,0.0,0.0,0.0,0.0,0.0,0.0,0.0,0.0,0.0,0.0,0.0,0.0,0.0,0.0,0.0,0.0,0.0,0.0,0.0,0.0,0.0,0.0,0.0,0.0,0.0,0.0,0.0,0.0,0.0,0.0,0.0,0.0,0.0,0.0,0.0,0.0,0.0,0.0,0.0,0.0,0.0,0.0,0.0,0.0,0.0,0.0,0.0,0.0,0.0,0.0,0.0,0.0,0.0,0.0,0.0,0.0,0.0,0.0,0.0,0.0,0.0,0.0,0.0,0.0,3.3017,4.1373,4.7631,4.9255,5.0989,5.19,5.1582,5.1067,4.691,3.7802,0.0,0.0,0.0,0.0,0.0,0.0,0.0,0.0,0.0,0.0,0.0,0.0,0.0,0.0,0.0,0.0,0.0,0.0,0.0,0.0,0.0,0.0,0.0,0.0,0.0,0.0,0.0,0.0,0.0,0.0,0.0,0.0,0.0,0.0,0.0,0.0,0.0,0.0,0.0,0.0,0.0,0.0,0.0,0.0,0.0,0.0,0.0,0.0,0.0,0.0,0.0,0.0,0.0,0.0,0.0,0.0,0.0,0.0,0.0,0.0,0.0,0.0,0.0,0.0,0.0,0.0,0.0,0.0,0.0,0.0,0.0,0.0,0.0,0.0,0.0,0.0,0.0,0.0,0.0,0.0,0.0,0.0,0.0,0.0,0.0,0.0,0.0,0.0,0.0,0.0,0.0,0.0,0.0,0.0,0.0,0.0,0.0,0.0,0.0,0.0,0.0,0.0,3.322,4.261,4.9351,5.0101,5.2103,5.3104,5.2272,5.1502,4.8421,4.2333,0.0,0.0,0.0,0.0,0.0,0.0,0.0,0.0,0.0,0.0,0.0,0.0,0.0,0.0,0.0,0.0,0.0,0.0,0.0,0.0,0.0,0.0,0.0,0.0,0.0,0.0,0.0,0.0,0.0,0.0,0.0,0.0,0.0,0.0,0.0,0.0,0.0,0.0,0.0,0.0,0.0,0.0,0.0,0.0,0.0,0.0,0.0,0.0,0.0,0.0,0.0,0.0,0.0,0.0,0.0,0.0,0.0,0.0,0.0,0.0,2.1696,0.0,0.0,0.0,0.0,0.0,0.0,0.0,0.0,0.0,0.0,0.0,0.0,0.0,0.0,0.0,0.0,0.0,0.0,0.0,0.0,0.0,0.0,0.0,0.0,0.0,0.0,0.0,0.0,0.0,0.0,0.0,0.0,0.0,0.0,0.0,0.0,0.0,0.0,0.0,0.0,0.0,3.3982,4.3323,5.0095,5.0875,5.2416,5.3104,5.2272,5.2516,4.9861,4.3259,0.0,0.0,0.0,0.0,0.0,0.0,0.0,0.0,0.0,0.0,0.0,0.0,0.0,0.0,0.0,0.0,0.0,0.0,0.0,0.0,0.0,0.0,0.0,0.0,0.0,0.0,0.0,0.0,0.0,0.0,0.0,0.0,0.0,0.0,0.0,0.0,0.0,0.0,0.0,0.0,0.0,0.0,0.0,0.0,0.0,0.0,0.0,0.0,0.0,0.0,0.0,0.0,0.0,0.0,0.0,0.0,0.0,0.0,0.0,0.0,0.0,2.3543,0.0,0.0,0.0,0.0,0.0,0.0,0.0,0.0,0.0,0.0,0.0,0.0,0.0,0.0,0.0,0.0,0.0,0.0,0.0,0.0,0.0,0.0,0.0,0.0,0.0,0.0,0.0,0.0,0.0,0.0,0.0,0.0,0.0,0.0,0.0,0.0,0.0,0.0,0.0,0.0,3.5472,4.4751,5.1236,5.1654,5.3077,5.358,5.2802,5.3385,5.1745,4.7049,4.3664,0.0,0.0,0.0,0.0,0.0,0.0,0.0,0.0,0.0,0.0,0.0,0.0,0.0,0.0,0.0,0.0,0.0,0.0,0.0,0.0,0.0,0.0,0.0,0.0,0.0,0.0,0.0,0.0,0.0,0.0,0.0,0.0,0.0,0.0,0.0,0.0,0.0,0.0,0.0,0.0,0.0,0.0,0.0,0.0,0.0,0.0,0.0,0.0,0.0,0.0,0.0,0.0,0.0,3.8997,3.8738,3.6892,3.4237,3.4083,3.5699,3.2814,3.2006,3.2275,0.0,0.0,0.0,0.0,0.0,0.0,0.0,0.0,0.0,0.0,0.0,0.0,0.0,0.0,0.0,0.0,0.0,0.0,0.0,0.0,0.0,0.0,0.0,0.0,0.0,3.6656,3.5577,0.0,0.0,0.0,0.0,0.0,0.0,0.0,0.0,0.0,0.0,0.0,0.0,3.8061,4.6812,5.2684,5.2694,5.3798,5.4181,5.3349,5.411,5.3558,5.1142,4.7127,4.3791,0.0,0.0,0.0,0.0,0.0,0.0,0.0,0.0,0.0,0.0,0.0,0.0,0.0,0.0,0.0,0.0,0.0,0.0,0.0,0.0,0.0,0.0,0.0,0.0,0.0,0.0,0.0,0.0,0.0,0.0,0.0,0.0,2.2187,2.4274,0.0,0.0,0.0,0.0,0.0,0.0,0.0,0.0,0.0,0.0,0.0,0.0,0.0,0.0,3.4298,4.0988,4.3493,4.1877,4.2808,4.3047,4.2816,4.3355,4.3739,4.4124,4.5586,0.0,3.6353,3.4584,0.0,0.0,0.0,0.0,0.0,0.0,0.0,0.0,0.0,0.0,0.0,0.0,0.0,0.0,0.0,0.0,0.0,0.0,0.0,0.0,0.0,0.0,4.2642,4.4036,4.4413,4.4085,0.0,3.5128,2.8498,2.7985,0.0,0.0,0.0,0.0,0.0,0.0,0.0,0.0,4.2868,4.9745,5.4221,5.4302,5.4408,5.4181,5.3349,5.4617,5.4543,5.238,5.1973,4.9305,4.3829,4.1811,0.0,0.0,0.0,0.0,0.0,0.0,0.0,0.0,0.0,0.0,0.0,0.0,0.0,0.0,0.0,0.0,0.0,0.0,0.0,0.0,0.0,0.0,0.0,0.0,0.0,0.0,0.0,0.0,0.0,2.3647,2.7272,2.9269,2.8218,2.6208,0.0,0.0,0.0,0.0,0.0,0.0,0.0,0.0,0.0,3.5549,3.6831,3.8633,4.1081,4.5457,4.7424,4.6942,4.7453,4.8202,4.9163,4.9971,5.0317,5.0356,5.1356,4.951,4.5432,4.1431,3.7839,3.4543,0.0,0.0,0.0,0.0,2.7967,2.7659,3.066,2.8698,0.0,0.0,0.0,0.0,0.0,0.0,0.0,0.0,0.0,0.0,0.0,0.0,0.0,4.8039,4.8305,4.7682,4.6911,4.2763,3.8102,0.0,3.2669,3.0136,2.5181,0.0,0.0,0.0,0.0,0.0,4.6155,5.1643,5.5204,5.525,5.4772,5.4346,5.3989,5.5,5.4907,5.3349,5.4003,5.3025,4.9736,4.6125,4.1695,0.0,0.0,0.0,0.0,0.0,0.0,0.0,0.0,0.0,0.0,0.0,0.0,0.0,0.0,0.0,0.0,0.0,0.0,0.0,0.0,0.0,0.0,0.0,0.0,0.0,0.0,0.0,0.0,2.8381,3.1933,3.4012,3.3608,3.1627,0.0,0.0,0.0,0.0,0.0,0.0,3.4359,3.5416,3.7754,4.1625,4.1956,4.3513,4.6557,4.89,5.0316,5.0832,5.1331,5.2202,5.3433,5.4126,5.4434,5.4434,5.4434,5.3972,5.2818,4.7317,4.3684,4.1327,3.8992,3.6142,3.3628,3.5479,3.5507,3.5084,3.8469,3.7661,3.5584,3.8123,0.0,4.3008,4.1354,0.0,0.0,0.0,0.0,4.0628,4.6014,4.772,4.8752,5.1544,5.1601,5.0765,4.9774,4.86,4.6177,0.0,3.8469,3.5532,3.032,0.0,0.0,0.0,0.0,4.5992,4.9474,5.3496,5.5933,5.5709,5.4971,5.4431,5.4194,5.5047,5.5122,5.4012,5.5285,5.5479,5.4219,5.0378,4.7095,4.4531,0.0,0.0,0.0,0.0,0.0,0.0,0.0,0.0,0.0,0.0,0.0,0.0,0.0,0.0,0.0,0.0,0.0,0.0,0.0,0.0,0.0,0.0,0.0,0.0,0.0,0.0,0.0,0.0,0.0,3.768,3.7333,0.0,0.0,0.0,0.0,3.1265,3.4126,3.7008,3.9392,4.1005,4.3353,4.6617,4.6764,4.7758,4.9849,5.0454,5.1329,5.2488,5.3398,5.3895,5.401,5.5088,5.5588,5.5588,5.5588,5.5588,5.5241,5.1741,4.9279,4.7509,4.574,4.3508,4.153,4.4047,4.3932,4.3008,4.6355,4.774,4.8086,4.8279,4.6278,4.3585,4.2162,4.0431,0.0,0.0,4.5009,4.8241,5.1405,5.3698,5.5333,5.5921,5.5636,5.484,5.3298,5.1059,4.882,0.0,4.6544,4.5149,4.1038,0.0,4.2873,4.2837,4.581,4.9517,5.3586,5.5668,5.658,5.578,5.4971,5.4194,5.3422,5.4774,5.5244,5.4442,5.6236,5.6479,5.4648,5.4656,5.2366,4.7304,4.4453,0.0,0.0,0.0,0.0,0.0,0.0,0.0,0.0,0.0,0.0,0.0,0.0,0.0,0.0,0.0,0.0,0.0,0.0,0.0,0.0,0.0,0.0,0.0,0.0,0.0,0.0,0.0,0.0,3.966,4.2557,0.0,0.0,4.0419,4.0963,3.7461,4.0473,4.3314,4.5186,4.6361,4.7755,4.9444,5.0508,5.1482,5.2455,5.368,5.4634,5.5359,5.5995,5.6333,5.6359,5.7036,5.7357,5.7357,5.7357,5.7357,5.728,5.6088,5.3933,5.1279,5.0125,4.8779,4.7625,4.8548,4.8509,4.824,4.9971,5.0818,5.1202,5.1202,5.0356,4.9125,4.7894,4.7855,4.8548,5.001,5.2087,5.4117,5.5465,5.6125,5.6425,5.6294,5.5928,5.528,5.4216,5.2858,5.1573,5.0472,4.8563,4.6324,4.3864,4.6067,4.7645,4.6067,4.9481,5.3151,5.5611,5.6932,5.7351,5.6527,5.5703,5.4905,5.4143,5.4527,5.4913,5.5133,5.6084,5.6482,5.6128,5.5492,5.4458,5.2923,5.1045,4.5547,0.0,0.0,0.0,0.0,0.0,0.0,0.0,0.0,0.0,0.0,0.0,0.0,0.0,0.0,0.0,0.0,0.0,0.0,0.0,0.0,0.0,0.0,0.0,0.0,0.0,0.0,3.7442,4.2784,4.6335,4.6847,4.3082,4.5261,4.587,4.3305,4.5769,4.8052,4.9639,5.0444,5.1316,5.238,5.3445,5.4128,5.442,5.5616,5.6369,5.6699,5.7138,5.7452,5.7596,5.7941,5.8127,5.8319,5.8319,5.8319,5.8319,5.8319,5.6973,5.4857,5.428,5.3549,5.2856,5.3164,5.3087,5.2933,5.378,5.4203,5.4395,5.4395,5.4203,5.3857,5.3395,5.3818,5.4664,5.5549,5.678,5.7866,5.7974,5.787,5.7629,5.7152,5.6478,5.5868,5.5317,5.4363,5.3445,5.2894,5.0839,4.8673,4.7058,4.9481,5.0765,4.8306,5.1389,5.4289,5.5097,5.6602,5.7193,5.6221,5.58,5.5222,5.4194,5.329,5.3592,5.5464,5.4847,5.5286,5.7246,5.4666,5.3522,5.4203,5.2246,4.7461,3.9766,0.0,0.0,0.0,0.0,0.0,0.0,0.0,0.0,0.0,0.0,0.0,0.0,0.0,0.0,0.0,0.0,0.0,0.0,0.0,0.0,0.0,0.0,0.0,3.4844,3.8285,4.235,4.7057,4.8416,4.922,4.9969,4.9442,4.8895,4.8575,4.9652,5.1036,5.2603,5.3071,5.3995,5.5537,5.5611,5.5647,5.5647,5.6047,5.6251,5.6251,5.6701,5.7213,5.7644,5.7644,5.7901,5.8373,5.8373,5.8335,5.8396,5.8396,5.8396,5.8357,5.8319,5.778,5.7126,5.7973,5.778,5.7165,5.8011,5.8319,5.8319,5.8319,5.7742,5.7203,5.805,5.7742,5.7242,5.8088,5.8934,5.9442,5.8967,5.9083,5.9284,5.8796,5.7777,5.6822,5.6785,5.5537,5.4436,5.4363,5.3739,5.2747,5.1169,5.216,5.238,4.9994,5.172,0.0,5.2234,5.4876,5.62,5.4595,5.5088,5.4891,5.3299,5.0986,5.1316,5.5317,5.2637,5.301,5.7777,5.2548,5.0035,5.1105,4.7918,4.5898,4.5117,0.0,0.0,0.0,0.0,0.0,0.0,0.0,0.0,0.0,0.0,0.0,0.0,0.0,0.0,0.0,0.0,0.0,0.0,0.0,0.0,0.0,0.0,3.6905,3.6571,4.0088,4.4022,4.7666,5.0417,5.1706,5.0988,5.1318,5.1661,5.1805,5.2439,5.3385,5.4691,5.489,5.5133,5.5574,5.6161,5.6455,5.6455,5.714,5.7523,5.7486,5.7962,5.8278,5.8427,5.8744,5.9171,5.9595,5.9595,5.9792,6.0127,6.0127,6.0127,5.9973,5.8781,5.8165,5.7973,5.8204,5.8165,5.7973,5.8204,5.8319,5.8319,5.8319,5.8127,5.7973,5.8242,5.855,5.8858,5.9088,5.9781,6.0277,5.945,5.9341,5.9176,5.8375,5.7949,5.7336,5.6161,5.5574,5.4913,5.3775,5.3812,5.3739,5.2711,5.2931,5.3188,5.3078,5.4142,0.0,5.5427,5.6748,5.639,5.3059,5.3399,5.2951,5.0773,5.0526,5.1683,5.4546,5.3885,5.4146,5.5772,5.4593,5.4704,5.6386,5.0649,4.7657,0.0,0.0,0.0,0.0,0.0,0.0,0.0,0.0,0.0,0.0,0.0,0.0,0.0,0.0,0.0,0.0,0.0,0.0,0.0,0.0,0.0,0.0,3.8847,4.1735,4.1787,4.365,4.6286,4.9703,5.1799,5.2937,5.292,5.3658,5.4264,5.4436,5.4848,5.5473,5.633,5.6183,5.6271,5.6565,5.7042,5.7299,5.7299,5.7776,5.7997,5.7997,5.8282,5.8545,5.8713,5.899,5.9354,0.0,5.9823,5.9946,6.0189,6.0189,6.0189,0.0,0.0,0.0,0.0,0.0,5.9026,5.9026,5.9026,5.9026,5.9089,5.9273,5.9358,5.9358,5.9358,5.9665,6.005,6.005,6.0396,6.0597,5.9625,5.9389,5.9139,5.8194,5.7483,5.6822,5.6235,5.5317,5.4436,5.3812,5.3812,0.0,5.3298,5.3225,5.3004,5.2417,5.3628,5.462,5.4766,5.6675,5.6849,5.3845,5.4219,5.388,5.1813,5.0466,0.0,0.0,0.0,5.1996,5.2345,5.314,0.0,0.0,0.0,0.0,0.0,0.0,0.0,0.0,3.9161,3.7747,0.0,0.0,0.0,0.0,0.0,0.0,0.0,0.0,0.0,0.0,0.0,0.0,0.0,0.0,0.0,0.0,4.3213,4.6765,4.8489,4.8122,4.89,5.2271,5.2715,5.3365,5.4914,5.5826,5.6359,5.6416,5.6765,5.7114,5.7438,0.0,0.0,0.0,0.0,5.7997,5.7997,5.7997,5.7997,5.7997,5.7997,5.8194,5.8632,5.8632,5.8874,5.9319,5.9319,5.9354,5.9389,5.9389,5.9389,5.9492,6.0365,6.0734,6.0647,6.0245,6.0074,6.0006,6.0006,0.0,0.0,6.0597,6.0757,6.0781,6.0781,6.0781,6.0781,6.0781,6.0757,6.0508,5.9625,5.9354,5.9065,5.8194,5.6895,5.6014,5.6565,5.4987,5.3628,5.4179,5.3702,5.3225,5.3225,5.3225,5.2454,5.0251,5.2013,5.3371,5.2637,5.5904,5.7591,5.5726,0.0,0.0,5.4339,5.0909,5.0472,5.4289,5.1132,4.9304,4.9639,5.075,5.1678,5.251,5.1664,5.3451,5.795,5.6928,5.6082,5.5143,4.3799,4.1046,0.0,0.0,0.0,0.0,0.0,0.0,0.0,0.0,0.0,0.0,0.0,0.0,0.0,0.0,0.0,4.3118,4.5956,4.8636,5.0949,5.1132,5.1581,5.292,5.3385,5.3944,5.4947,5.5517,5.6224,5.7117,5.7266,5.7475,5.7847,5.7785,0.0,5.7997,5.7997,5.7997,5.7997,5.7997,5.7997,5.7997,0.0,0.0,5.8142,5.8142,5.8375,5.8835,5.8835,5.9065,5.9389,5.9389,5.9389,5.9458,6.0044,6.0255,6.0217,6.0132,5.9855,5.9526,5.9526,5.9792,6.0132,6.0189,6.0482,6.0781,6.0781,6.0781,0.0,6.0781,6.0508,6.0103,5.9526,5.9102,5.8676,5.8142,5.774,5.7226,5.6088,5.5464,5.4803,5.3665,5.3335,5.3225,5.3225,5.3225,5.3041,5.2564,5.4546,5.6051,5.5904,5.8253,5.8574,5.5029,5.5383,5.4906,5.2651,5.2333,5.3151,5.5244,5.462,5.4649,5.5654,5.5688,5.686,5.9321,5.8294,5.8896,6.1358,6.0358,5.9835,5.9619,5.3067,5.0894,0.0,0.0,0.0,0.0,0.0,0.0,0.0,0.0,0.0,0.0,0.0,3.6061,0.0,0.0,4.4475,4.5736,4.8626,5.1051,5.1857,5.2339,5.2747,5.312,5.3695,5.4343,5.495,5.5995,5.6818,5.737,5.7816,5.8058,5.8006,5.7997,5.7997,5.7997,5.7997,5.7997,5.7997,5.7997,5.7997,5.7997,5.7997,5.7997,5.7997,5.7997,5.8142,5.8332,5.8332,5.8503,5.8713,5.8713,5.8835,5.9065,5.9284,5.9526,5.9728,5.9492,5.9248,5.9065,5.9065,5.9176,5.9458,5.9946,6.0283,6.0482,6.0734,6.0781,6.0781,6.0781,6.0456,6.0074,5.9823,5.9212,5.8632,5.8418,5.7855,5.7079,5.5868,5.528,5.462,5.3445,5.3225,5.3225,5.3225,5.3555,5.3812,5.3812,5.517,5.6492,5.7299,5.9171,5.9501,5.7079,5.7152,5.6602,5.4583,5.4399,5.473,5.5537,5.5574,5.622,5.7661,5.7546,5.8651,6.1128,6.0849,6.1297,6.2421,6.2183,6.1897,6.1488,5.8858,5.7665,0.0,0.0,0.0,0.0,0.0,0.0,0.0,0.0,3.4295,3.7321,3.8876,4.0401,4.2565,4.5472,4.7684,4.7995,5.0811,5.2804,5.2291,5.2962,5.3445,5.3445,5.3995,5.4644,5.5315,5.658,5.7398,5.7505,5.8178,5.8375,5.8042,5.7997,5.7997,5.7997,5.7997,5.7997,5.7997,5.7997,5.7997,5.7997,5.7997,5.7997,5.7997,5.7997,5.7997,5.7997,5.7997,5.7997,5.7997,5.7997,5.8194,5.8549,5.8549,5.8796,5.9065,5.8796,5.8632,5.8549,5.8549,5.8632,5.8835,5.9559,5.9885,6.0006,6.0391,6.0597,6.0647,6.0533,6.0283,5.9946,5.9855,5.9176,5.8549,5.8549,5.7802,5.6822,5.6014,5.5207,5.4399,5.3592,5.3335,5.3225,5.3225,5.3885,5.4399,5.4399,5.5354,5.6565,5.8033,5.9648,6.0309,5.9538,5.9428,5.8804,5.7189,5.6418,5.6051,5.6051,5.6051,5.6712,5.818,5.8309,5.9324,6.1316,6.1882,6.2432,6.3085,6.3444,6.3361,6.282,6.282,6.2089,2.5677,0.0,0.0,3.0163,3.2104,3.4272,0.0,0.0,4.1147,4.3008,4.5898,4.7945,4.7542,4.9616,5.1413,5.147,5.1825,5.238,5.2962,5.3775,5.4289,5.4289,5.4363,5.4993,5.647,5.6765,5.7169,5.7867,5.8015,5.8088,5.7997,5.7997,5.7997,5.7997,5.7997,5.7997,5.7997,5.7997,5.7997,5.7997,5.7997,5.7997,5.7997,5.7997,5.7997,5.7997,5.7997,5.7997,5.7997,5.7997,5.8042,5.8051,5.8051,5.8097,5.8194,5.8549,5.8461,5.8051,5.8051,5.8332,5.8753,5.8835,5.9139,5.9492,5.9526,5.9855,6.0103,5.9658,5.9526,5.9389,5.899,5.8461,5.8051,5.8051,5.7969,5.7666,5.6859,5.6014,5.5207,5.4436,5.3702,5.3225,5.3225,5.3885,5.4399,5.4399,5.6308,5.8033,5.8951,6.0456,6.1153,6.0346,6.0272,5.9612,5.7997,5.7776,5.774,5.774,5.774,5.8143,5.9061,5.9486,6.0492,6.2215,6.2709,6.3568,6.4832,6.4894,6.5102,6.5474,6.5474,6.3782,3.2057,0.0,0.0,0.0,3.8113,3.949,4.2717,4.3734,4.479,4.7489,4.9163,5.0199,5.0395,5.2076,5.3078,0.0,5.2784,5.3335,5.3225,5.3885,5.4583,5.5023,5.55,5.6051,5.6748,5.7226,5.7629,5.796,5.7997,5.7997,5.7997,5.7997,5.7997,5.7997,5.7997,5.7997,5.7997,5.7997,5.7997,5.7997,5.7997,5.7997,5.7997,5.7997,5.7997,5.7997,5.7997,5.7997,5.7997,5.7997,5.7997,5.7997,5.7997,5.7997,5.8042,5.8194,5.8186,5.7997,5.7997,5.8142,5.8369,5.8632,5.8835,5.9028,5.9319,5.9526,5.9625,5.9458,5.9176,5.9028,5.9065,5.8549,5.8051,5.8332,5.8194,5.7776,5.6969,5.6528,5.5904,5.4656,5.4142,5.3922,5.3922,5.4583,5.5244,5.5721,5.6675,5.7776,5.9061,5.9795,6.0089,5.9758,5.9281,5.8731,5.807,5.7997,5.7997,5.7997,5.7997,5.8364,5.9171,5.9845,6.072,6.1911,6.2891,6.3681,6.4255,6.4554,6.4971,6.5446,6.5446,6.5098,3.6027,0.0,0.0,4.1514,4.303,4.4085,4.6163,4.7009,4.8048,5.051,5.1313,5.1706,5.2265,5.3376,0.0,5.2545,5.3298,5.3885,5.3298,5.4069,5.495,5.5537,5.6492,5.7152,5.7152,5.7666,5.7997,5.7997,5.7997,5.7997,5.7997,5.7997,5.7997,5.7997,5.7997,5.7997,5.7997,5.7997,5.7997,5.7997,5.7997,5.7997,5.7997,5.7997,5.7997,5.7997,5.7997,5.7997,5.7997,5.7997,5.7997,5.7997,5.7997,5.7997,5.7997,5.7997,5.7997,5.7997,5.7997,5.7997,5.8088,5.8375,5.8545,5.8549,5.8913,5.9102,5.9176,5.9065,5.8874,5.8716,5.8951,5.8545,5.8097,5.8418,5.8238,5.785,5.7262,5.6785,5.6124,5.495,5.4363,5.4142,5.4363,5.506,5.5868,5.6675,5.7005,5.7629,5.9024,5.9208,5.9208,5.9208,5.8474,5.7997,5.7997,5.7997,5.7997,5.7997,5.7997,5.8253,5.8841,5.9648,6.0456,6.1263,6.2475,6.323,6.3631,6.4016,6.452,6.5209,6.5378,6.6093,0.0,0.0,3.9989,4.3386,4.607,4.8143,4.9048,5.0548,5.1741,5.1856,5.2847,5.359,5.3232,5.3518,5.3683,5.3235,5.3225,5.3225,5.3225,5.4546,5.5574,5.5574,5.7005,5.796,0.0,5.7997,5.7997,5.7997,5.7997,5.7997,5.7997,5.7997,5.7997,5.7997,5.7997,5.7997,5.7997,5.7997,5.7997,5.7997,5.7997,5.7997,5.7997,5.7997,5.7997,5.7997,5.7997,5.7997,5.7997,5.7997,5.7997,5.7997,5.7997,5.7997,5.7997,5.7997,5.7997,5.7997,5.7997,5.7997,5.7997,5.8042,5.8042,5.8042,5.8042,5.8332,5.8632,5.8186,5.8332,5.8591,5.8186,5.8042,5.7997,5.8042,5.7997,5.7997,5.796,5.6748,5.5611,5.5574,5.4289,5.3482,5.4289,5.506,5.5868,5.6675,5.7446,5.8253,5.9098,5.9208,5.9208,5.9208,5.8474,5.7997,5.7997,5.7997,5.7997,5.7997,5.7997,5.7997,5.8033,5.8804,5.9612,6.0419,6.1227,6.2298,6.3631,6.3631,6.4304,6.5577,6.6121,6.6815,0.0,0.0,4.4093,4.6658,4.8356,4.9557,5.0139,5.1087,5.2075,5.2645,5.3518,5.4063,5.3671,5.3719,5.3644,5.3272,5.3225,5.3408,5.3922,5.4913,5.5794,5.6345,5.7336,0.0,0.0,0.0,0.0,5.7997,5.7997,5.7997,5.7997,5.7997,5.7997,5.7997,5.7997,5.7997,5.7997,5.7997,5.7997,5.7997,5.7997,5.7997,5.7997,5.7997,5.7997,5.7997,5.7997,5.7997,5.7997,5.7997,5.7997,5.7997,5.7997,5.7997,5.7997,5.7997,5.7997,5.7997,5.7997,5.7997,5.7997,5.7997,5.7997,5.7997,5.7997,5.8097,5.8194,5.8006,5.8097,5.8194,5.8042,5.7997,5.7997,5.7997,5.7593,5.7189,5.7189,5.6345,5.5427,5.4913,5.4363,5.4252,5.506,5.5427,5.6051,5.7373,5.7813,5.8107,5.8364,5.84,5.84,5.84,5.8143,5.7997,5.7997,5.7997,5.7997,5.7997,5.7997,5.7997,5.7997,5.8767,5.9612,6.0382,6.119,6.2059,6.3062,6.3062,6.3762,6.5047,6.5257,6.6254,0.0,4.5009,4.657,4.8732,4.9921,5.0545,5.0656,5.1549,5.2529,5.3095,5.3494,5.3703,5.3421,5.3237,5.3191,5.3193,5.3445,5.3922,5.473,5.55,5.6235,5.6748,5.7519,0.0,0.0,0.0,0.0,5.7997,5.7997,5.7997,5.7997,5.7997,5.7997,5.7997,5.7997,5.7997,5.7997,5.7997,5.7997,5.7997,5.7997,5.7997,5.7997,5.7997,5.7997,5.7997,5.7997,5.7997,5.7997,5.7997,5.7997,5.7997,5.7997,5.7997,5.7997,5.7997,5.7997,5.7997,5.7997,5.7997,5.7997,5.7997,5.7997,5.7997,5.7997,5.7997,5.7997,5.7997,5.7997,5.7997,5.7997,5.7997,5.7997,5.7997,5.7409,5.6822,5.6822,5.5941,5.5023,5.4509,5.4179,5.4326,5.539,5.6088,5.6785,5.785,5.7997,5.7997,5.7997,5.7997,5.7997,5.7997,5.7997,5.7997,5.7997,5.7997,5.7997,5.7997,5.7997,5.7997,5.7997,5.851,5.9281,6.0382,6.0896,6.1704,6.2805,6.3135,6.3849,6.5022,6.5431,6.6568,4.4414,4.6394,4.7588,4.9625,5.0672,5.1178,5.0824,5.2015,5.3107,5.3031,5.2698,5.2343,0.0,0.0,5.205,5.2858,5.3775,5.4693,5.5464,5.6308,5.6822,0.0,0.0,0.0,0.0,0.0,0.0,5.7997,0.0,5.7997,5.7997,5.7997,5.7997,5.7997,5.7997,5.7997,5.7997,5.7997,5.7997,5.7997,5.7997,5.7997,5.7997,5.7997,5.7997,5.7997,5.7997,5.7997,5.7997,5.7997,5.7997,5.7997,5.7997,5.7997,5.7997,5.7997,5.7997,5.7997,5.7997,5.7997,5.7997,5.7997,5.7997,5.7997,5.7997,5.7997,5.7997,5.7997,5.7997,5.7997,5.7997,5.7997,5.7997,5.7997,5.7409,5.6785,5.6748,5.55,5.4399,5.4363,5.3812,5.3812,5.539,5.7005,5.807,5.8107,5.8107,5.807,5.7997,5.7997,5.7997,5.7997,5.7997,5.7997,5.7997,5.7997,5.7997,5.7997,5.7997,5.7997,5.7997,5.7997,5.8767,6.0382,6.0419,6.1227,6.2879,6.3686,6.453,6.5375,6.6653,6.7682,4.6778,4.8586,4.9852,5.0388,5.0676,5.099,5.1565,5.2007,5.197,5.0787,4.9935,4.8827,0.0,0.0,0.0,4.9517,5.227,0.0,5.5464,5.6308,0.0,0.0,0.0,5.7997,5.7997,5.7997,0.0,0.0,5.7997,5.7997,5.7997,5.7997,5.7997,5.7997,5.7997,5.7997,5.7997,5.7997,5.7997,5.7997,5.7997,5.7997,5.7997,5.7997,5.7997,5.7997,5.7997,5.7997,5.7997,5.7997,5.7997,5.7997,5.7997,5.7997,5.7997,5.7997,5.7997,5.7997,5.7997,5.7997,5.7997,5.7997,5.7997,5.7997,5.7997,5.7997,5.7997,5.7997,5.7997,5.7997,5.7997,5.7997,5.7997,5.7997,5.7409,5.6638,5.6051,5.5097,5.4216,5.3628,5.4326,5.5317,5.6308,5.785,5.9098,5.9722,5.9795,5.9355,5.8143,5.7997,5.7997,5.7997,5.7997,5.7997,5.7997,5.7997,5.7997,5.7997,5.7997,5.7997,5.7997,5.7997,5.8767,6.0382,6.0419,6.152,6.3759,6.398,6.4824,6.6182,6.6574,6.7141,4.8491,4.9971,5.0619,5.0241,5.0417,5.0541,4.997,5.0105,4.9811,4.7829,4.6764,0.0,0.0,0.0,0.0,0.0,0.0,0.0,5.6014,5.6822,5.7483,0.0,5.7997,0.0,5.7997,5.7997,5.7997,0.0,5.7997,5.7997,5.7997,5.7997,5.7997,5.7997,5.7997,5.7997,5.7997,5.7997,5.7997,5.7997,5.7997,5.7997,5.7997,5.7997,5.7997,5.7997,0.0,5.7997,5.7997,5.7997,5.7997,5.7997,5.7997,5.7997,5.7997,5.7997,5.7997,5.7997,5.7997,5.7997,5.7997,5.7997,5.7997,5.7997,5.7997,5.7997,5.7997,5.7997,5.7997,5.7997,5.7997,5.7997,5.7997,5.7997,5.7116,5.6161,5.5684,5.4693,5.3739,5.3298,5.4766,5.6271,5.6712,5.8437,5.9905,6.0346,6.0419,6.0089,5.9171,5.8767,5.8547,5.8547,5.8217,5.7997,5.7997,5.7997,5.7997,5.7997,5.7997,5.7997,5.7997,5.7997,5.8767,6.0382,6.075,6.1961,6.409,6.4787,6.5632,6.6512,6.6843,6.7247,4.9683,5.0702,5.0542,4.9906,5.0212,5.0122,4.783,4.7683,4.7278,4.4745,0.0,0.0,4.269,0.0,4.6874,4.8563,0.0,5.5427,5.6345,5.7262,5.7886,5.7997,5.7997,5.7997,5.7997,5.7997,5.796,5.785,5.7923,5.7997,5.7997,5.7886,5.7886,5.7997,5.7997,5.7997,5.7997,5.7997,5.7997,5.7997,5.7997,5.7997,5.7997,5.7997,5.7997,5.7997,0.0,0.0,5.7997,5.7997,5.7997,5.7997,5.7997,5.7997,5.7997,5.7997,5.7997,5.7997,5.7997,5.7997,5.7997,5.7997,5.7997,5.7997,5.7997,5.7997,5.7997,5.7997,5.7997,5.7997,5.7997,5.7997,5.7997,5.7997,5.6932,5.5868,5.5647,5.4326,5.3225,5.3335,5.5133,5.6712,5.6932,5.8877,6.0493,6.0713,6.0713,6.0713,6.0713,5.9832,5.9208,5.9208,5.8474,5.7997,5.7997,5.7997,5.7997,5.7997,5.7997,5.7997,5.7997,5.8107,5.8914,6.0529,6.1337,6.2622,6.442,6.5815,6.6549,6.6659,6.7357,6.7687,5.0125,5.0702,5.0737,5.095,5.0837,5.0334,4.8915,4.7424,0.0,0.0,0.0,3.8542,3.8542,0.0,0.0,4.5149,0.0,0.0,0.0,0.0,0.0,0.0,0.0,0.0,0.0,0.0,0.0,0.0,0.0,5.7997,5.7997,5.7373,5.7299,5.796,5.7997,5.7997,5.7997,5.7997,5.7997,5.7997,5.7997,5.7997,5.7997,5.7997,5.7997,5.7997,5.7997,0.0,5.7997,5.7997,5.7997,5.7997,5.7997,5.7997,5.7997,5.7997,5.7997,5.7997,5.7997,5.7997,5.7997,5.7997,5.7997,5.7997,5.7997,5.7997,5.7997,5.7997,5.7997,5.7997,5.7997,5.7997,5.7997,5.7997,5.7776,5.7226,5.5868,5.4326,5.3408,5.4069,5.506,5.6235,5.7556,5.9245,6.086,6.2181,6.2401,6.2401,6.2401,6.0529,5.9208,5.9208,5.8474,5.7997,5.7997,5.7997,5.7997,5.7997,5.7997,5.7997,5.7997,5.8657,5.9758,6.1374,6.2181,6.3759,6.6072,6.6366,6.6843,6.7504,6.7614,6.7687,4.9125,5.001,5.0719,5.0679,5.052,4.957,4.6457,0.0,0.0,0.0,0.0,0.0,3.6193,0.0,0.0,0.0,0.0,0.0,0.0,0.0,0.0,0.0,0.0,0.0,0.0,0.0,0.0,0.0,0.0,0.0,5.7336,5.7409,5.7593,5.7997,5.7997,5.7997,5.7997,5.7997,5.7997,5.7997,5.7997,5.7997,5.7997,5.7997,5.7997,5.7997,5.7997,0.0,5.7997,5.7997,5.7997,5.7997,5.7997,5.7997,5.7997,5.7997,5.7997,5.7997,5.7997,5.7997,5.7997,5.7997,5.7997,5.7997,5.7997,5.7997,5.7997,5.7997,5.7997,5.7997,5.7997,5.7997,5.7997,5.7997,5.7666,5.7042,5.5868,5.4987,5.4546,5.495,5.6014,5.7226,5.8437,5.9979,6.1447,6.2622,6.2805,6.2805,6.2805,6.141,6.0309,5.9869,5.8731,5.7997,5.7997,5.84,5.8621,5.8621,5.9024,5.9061,5.8657,5.9391,6.0382,6.1557,6.2842,6.4457,6.6512,6.6916,6.732,6.7687,6.7687,6.7687,4.8317,4.951,5.0624,5.0313,5.0159,4.8871,4.4154,4.2857,0.0,0.0,0.0,0.0,0.0,0.0,0.0,0.0,0.0,0.0,0.0,0.0,0.0,0.0,0.0,0.0,0.0,0.0,0.0,0.0,0.0,0.0,5.6235,5.7042,5.7556,5.774,5.774,5.7813,5.7997,5.7997,5.7997,5.7997,5.7997,5.7997,5.7997,5.7997,5.7997,5.7997,5.7997,0.0,0.0,5.7997,5.7997,5.7997,5.7997,5.7997,5.7997,5.7997,5.7997,5.7997,5.7997,5.7997,5.7997,5.7997,5.7997,5.7997,5.7997,5.7997,5.7997,5.7997,5.7997,5.7997,5.7997,5.7997,5.7997,5.7997,5.7409,5.6675,5.6198,5.5831,5.5647,5.5794,5.7005,5.8253,5.9061,6.0529,6.1851,6.2695,6.2805,6.2805,6.2805,6.2108,6.13,6.0493,5.9098,5.818,5.7997,5.8914,5.9465,5.9465,6.0236,6.0456,6.0015,6.0603,6.1374,6.2365,6.387,6.5301,6.6769,6.7393,6.7687,6.7687,6.7687,6.7687,4.8856,4.9971,5.0702,5.0644,5.0358,4.9005,4.4789,0.0,0.0,0.0,0.0,0.0,0.0,0.0,0.0,0.0,0.0,0.0,0.0,0.0,0.0,0.0,0.0,0.0,0.0,0.0,0.0,0.0,0.0,0.0,5.4693,5.539,5.6161,5.6895,5.6932,5.7262,5.7997,5.7997,5.7997,5.7997,5.7997,5.7997,5.7997,5.7997,5.7997,5.7997,5.7997,0.0,0.0,5.7997,5.7997,5.7997,5.7997,5.7997,5.7997,5.7997,5.7997,5.7997,5.7997,5.7997,5.7997,5.7997,5.7997,5.7997,5.7997,5.7997,5.7997,5.7997,5.7997,5.7997,5.7997,5.7997,5.7997,5.7997,5.7409,5.6969,5.7629,5.6638,5.5794,5.6565,5.7409,5.8253,5.9061,6.0529,6.1851,6.2695,6.2805,6.2805,6.2805,6.2108,6.13,6.0493,5.9612,5.8804,5.807,5.9428,6.0309,6.0309,6.1043,6.1777,6.2438,6.2548,6.3356,6.4934,6.5815,6.6696,6.7577,6.765,6.7687,6.7687,6.7687,6.7687,4.7201,4.9586,5.1972,5.0933,5.0402,4.8853,4.4053,0.0,0.0,3.5388,3.4134,3.3936,3.4368,3.4907,0.0,0.0,0.0,0.0,0.0,0.0,0.0,0.0,0.0,0.0,0.0,0.0,0.0,0.0,0.0,0.0,5.5133,5.5904,5.6455,5.6785,5.6822,5.7189,5.7997,5.7997,5.7997,5.7997,5.7997,5.7997,5.7997,5.7997,5.7997,5.7997,5.7997,0.0,0.0,5.7997,5.7997,5.7997,5.7997,5.7997,5.7997,5.7997,5.7997,5.7997,5.7997,5.7997,5.7997,5.7997,5.7997,5.7997,5.7997,5.7997,5.7997,5.7997,5.7997,5.7997,5.7997,5.7997,5.7997,5.7997,5.7776,5.7593,5.7923,5.7483,5.7262,5.8107,5.851,5.9134,6.0419,6.119,6.1851,6.2695,6.2805,6.2805,6.2805,6.2511,6.1851,6.0529,6.0126,5.9795,5.9465,6.0933,6.2071,6.2585,6.2915,6.3246,6.3576,6.3099,6.3613,6.5264,6.5632,6.6402,6.7687,6.7687,6.7687,6.7687,6.7687,6.7687,4.601,4.8673,5.1239,5.055,4.9778,4.7984,0.0,0.0,3.8958,3.4781,3.385,3.3689,3.3437,3.3844,3.451,3.5273,0.0,3.9494,0.0,0.0,0.0,0.0,0.0,0.0,0.0,0.0,0.0,0.0,0.0,0.0,0.0,5.6492,5.6822,5.6822,5.6565,5.6969,5.7997,5.7997,5.7997,5.7997,5.7997,5.7997,5.7997,5.7997,5.7997,5.7997,0.0,0.0,0.0,5.7997,5.7997,5.7997,5.7997,5.7997,5.7997,5.7997,5.7997,5.7997,5.7997,5.7997,5.7997,5.7997,5.7997,5.7997,5.7997,5.7997,5.7997,5.7997,5.7997,5.7997,5.7997,5.7997,5.7997,5.7997,5.7997,5.7997,5.7997,5.818,5.851,5.9098,5.9612,6.0272,6.141,6.1777,6.2144,6.2732,6.2805,6.2805,6.2805,6.2805,6.2291,6.0896,6.097,6.0933,6.0456,6.2108,6.3539,6.4383,6.4457,6.4567,6.4787,6.3759,6.398,6.5632,6.5668,6.6329,6.7687,6.7687,6.7687,6.7687,6.7687,6.7834,4.5908,4.7041,4.7521,4.9089,4.8324,4.6237,0.0,4.0654,3.8327,3.4907,3.3968,3.3807,3.3807,3.3105,3.3244,3.5504,3.5725,0.0,0.0,0.0,0.0,0.0,0.0,0.0,0.0,0.0,0.0,0.0,0.0,0.0,0.0,5.6822,5.6822,5.6822,5.6014,5.6381,5.796,5.7997,5.7997,5.7997,5.7997,5.7997,5.7997,5.7997,5.7997,0.0,0.0,0.0,0.0,5.7997,5.7997,5.7997,5.7997,5.7997,5.7997,5.7997,5.7997,5.7997,5.7997,5.7997,5.7997,5.7997,5.7997,5.7997,5.7997,5.7997,5.7997,5.7997,5.7997,5.7997,5.7997,5.7997,5.7997,5.7997,5.7997,5.7997,5.7997,5.8621,5.9208,5.9208,6.0493,6.1557,6.1594,6.2254,6.2805,6.2805,6.2805,6.2805,6.2805,6.2805,6.2511,6.1667,6.2291,6.2144,6.0529,6.2658,6.442,6.5264,6.5301,6.5632,6.6439,6.4934,6.4824,6.6439,6.6476,6.688,6.7687,6.7687,6.7687,6.7687,6.7687,6.8128,4.1868,4.4159,4.6076,4.4878,4.3981,4.2704,3.9902,3.8234,3.6454,3.3696,3.3259,3.314,3.2265,3.2307,3.3213,3.5373,3.59,0.0,0.0,0.0,0.0,0.0,0.0,0.0,0.0,0.0,0.0,0.0,0.0,0.0,0.0,5.7116,5.6822,5.6822,5.6565,5.6932,5.7997,5.7997,5.7997,5.7997,5.7997,5.7997,5.7997,5.7997,0.0,0.0,0.0,0.0,0.0,5.7997,5.7997,5.7997,5.7997,5.7997,5.7997,5.7997,5.7997,5.7997,5.7997,5.7997,5.7997,5.7997,5.7997,5.7997,5.7997,5.7997,5.7997,5.7997,5.7997,5.7997,5.7997,5.7997,5.7997,5.7997,5.7997,5.7997,5.7997,5.8621,5.9391,5.9905,6.0896,6.1777,6.2328,6.2658,6.2805,6.2805,6.2805,6.2805,6.2805,6.2805,6.2511,6.1704,6.2328,6.2842,6.2915,6.4163,6.5485,6.6843,6.5925,6.5668,6.6476,6.4383,6.4237,6.6439,6.5962,6.6366,6.7687,6.7687,6.7687,6.7687,6.7687,6.8421,3.883,4.1092,4.2763,4.1838,4.1092,4.0085,3.8228,3.6638,3.5075,3.3186,3.2647,3.2353,3.1859,3.1802,3.251,3.4685,3.513,0.0,0.0,0.0,0.0,0.0,0.0,0.0,0.0,0.0,0.0,0.0,0.0,0.0,0.0,5.7519,5.7262,5.7262,5.6969,5.7189,5.7997,5.7997,5.7997,5.7997,5.7997,5.7997,5.7997,5.7997,0.0,0.0,0.0,0.0,0.0,5.7997,5.7997,5.7997,5.7997,5.7997,5.7997,5.7997,5.7997,5.7997,5.7997,5.7997,5.7997,5.7997,5.7997,5.7997,5.7997,5.7997,5.7997,5.7997,5.7997,5.7997,5.7997,5.7997,5.7997,5.7997,5.8217,5.8437,5.8437,5.9318,6.0272,6.075,6.1484,6.2218,6.2732,6.2805,6.2805,6.2805,6.2805,6.2805,6.2805,6.2805,6.2622,6.2108,6.2511,6.3172,6.4016,6.4861,6.5742,6.6733,6.5852,6.5411,6.5595,6.4127,6.4163,6.5999,6.5852,6.6402,6.7687,6.7687,6.7687,6.7687,6.8017,6.8862,0.0,3.7721,3.7964,3.9408,3.9028,3.8047,3.7308,3.5617,0.0,3.3178,3.2152,3.155,3.2191,3.1463,3.1491,3.3766,3.3919,3.5487,0.0,0.0,0.0,0.0,0.0,0.0,0.0,0.0,0.0,0.0,0.0,0.0,0.0,5.7997,5.7997,5.7997,5.7299,5.7262,5.7997,5.7997,5.7997,5.7997,5.7997,5.7997,5.7997,5.7997,0.0,0.0,0.0,0.0,0.0,5.7997,5.7997,5.7997,5.7997,5.7997,5.7997,5.7997,5.7997,5.7997,5.7997,5.7997,5.7997,5.7997,5.7997,5.7997,5.7997,5.7997,5.7997,5.7997,5.7997,5.7997,5.7997,5.8033,5.8107,5.8107,5.8694,5.9318,5.9318,6.0493,6.1594,6.1594,6.2254,6.2805,6.2805,6.2805,6.2805,6.2805,6.2805,6.2805,6.2805,6.2805,6.2805,6.2805,6.2805,6.3135,6.3943,6.4787,6.5301,6.5301,6.5375,6.5007,6.42,6.42,6.4567,6.5375,6.6182,6.6953,6.7687,6.7687,6.7687,6.7724,6.8531,6.9339,2.9816,0.0,3.383,3.358,3.3755,3.3895,0.0,3.3298,3.2601,3.1319,3.1044,3.0908,3.0503,3.089,3.1959,3.4118,3.5799,3.8058,0.0,0.0,0.0,0.0,0.0,0.0,0.0,0.0,0.0,0.0,0.0,0.0,0.0,5.7997,5.7997,5.7997,5.7813,5.7813,5.7997,5.7997,5.7997,5.7997,5.7997,5.7997,5.7997,5.7997,0.0,0.0,0.0,0.0,5.7997,5.7997,5.7997,5.7997,5.7997,5.7997,5.7997,5.7997,5.7997,5.7997,5.7997,5.7997,5.7997,5.7997,5.7997,5.7997,5.7997,5.7997,5.7997,5.7997,5.7997,5.7997,5.7997,5.8474,5.8914,5.8914,5.9538,6.0126,6.0126,6.0896,6.1594,6.1594,6.2254,6.2805,6.2805,6.2805,6.2805,6.2805,6.2805,6.2805,6.2805,6.2805,6.2805,6.2805,6.2805,6.2879,6.3099,6.4457,6.5301,6.5301,6.5888,6.5852,6.5044,6.5007,6.5411,6.6219,6.699,6.7504,6.7687,6.7687,6.7687,6.7724,6.8531,6.9339,2.6302,2.9106,3.1347,3.0898,3.1393,3.2127,3.2477,3.1811,3.1147,3.1045,3.0292,2.9749,3.0335,3.0964,3.2188,3.4638,3.6908,3.9681,0.0,0.0,0.0,0.0,0.0,0.0,0.0,0.0,0.0,0.0,0.0,0.0,0.0,5.7997,5.7997,5.7997,5.7997,5.7997,5.7997,5.7997,5.7997,5.7997,5.7997,5.7997,5.7997,5.7997,5.7997,0.0,0.0,0.0,5.7997,5.7997,5.7997,5.7997,5.7997,5.7997,5.7997,5.7997,5.7997,5.7997,5.7997,5.7997,5.7997,5.7997,5.7997,5.7997,5.7997,5.7997,5.7997,5.7997,5.7997,5.8107,5.8437,5.8877,5.9318,5.9685,6.0382,6.0933,6.0933,6.1594,6.2144,6.2144,6.2511,6.2805,6.2805,6.2805,6.2805,6.2805,6.2805,6.2805,6.2805,6.2805,6.2805,6.2805,6.2805,6.2805,6.2805,6.4347,6.5154,6.4787,6.5852,6.6145,6.5338,6.5668,6.6219,6.7026,6.7467,6.7687,6.7687,6.7687,6.7687,6.7724,6.8898,6.9669,2.4958,2.7632,2.9825,2.9779,3.0516,3.1514,3.2265,3.1072,3.0179,3.1313,2.9911,2.9083,0.0,3.1845,0.0,3.5802,3.8397,4.1341,0.0,0.0,0.0,0.0,0.0,0.0,0.0,0.0,0.0,0.0,0.0,0.0,0.0,5.7997,5.7997,5.7997,5.7997,5.7997,5.7997,5.7997,5.7997,5.7997,5.7997,5.7997,5.7997,5.7997,5.7997,0.0,0.0,0.0,5.7997,5.7997,5.7997,5.7997,5.7997,5.7997,5.7997,5.7997,5.7997,5.7997,5.7997,5.7997,5.8033,5.8143,5.818,5.8217,5.8327,5.8364,5.8364,5.8364,5.829,5.8364,5.9171,5.9501,5.9758,6.0419,6.119,6.1777,6.1777,6.2328,6.2805,6.2805,6.2805,6.2805,6.2805,6.2805,6.2805,6.2805,6.2805,6.2805,6.2805,6.2805,6.2805,6.2805,6.2805,6.2879,6.2989,6.442,6.5081,6.4494,6.5852,6.6366,6.5705,6.6329,6.699,6.7687,6.7687,6.7687,6.7687,6.7687,6.7687,6.7724,6.9339,7.011,2.6151,2.771,2.8622,2.8562,2.9531,3.0651,3.1338,0.0,3.0886,3.0575,3.0272,0.0,0.0,3.4341,0.0,0.0,0.0,4.5,0.0,0.0,0.0,0.0,0.0,0.0,0.0,0.0,0.0,0.0,0.0,0.0,0.0,5.7997,5.7997,5.7997,5.7997,5.7997,5.7997,5.7997,5.7997,5.7997,5.7997,5.7997,5.7997,5.7997,5.7997,0.0,0.0,5.7997,5.7997,5.7997,5.7997,5.7997,5.7997,5.7997,5.7997,5.7997,5.7997,5.7997,5.7997,5.7997,5.8107,5.8804,5.9024,5.9171,5.9832,6.0015,6.0015,6.0015,5.9538,5.9208,6.0015,6.0713,6.1263,6.1374,6.2034,6.2622,6.2622,6.2732,6.2805,6.2805,6.2805,6.2805,6.2805,6.2805,6.2805,6.2805,6.2805,6.2805,6.2805,6.2805,6.2805,6.2805,6.2805,6.3099,6.3833,6.4751,6.5558,6.6109,6.699,6.7467,6.732,6.743,6.7577,6.7687,6.7687,6.7687,6.7687,6.7687,6.7687,6.7724,6.9339,7.011,2.5056,2.6317,2.7658,2.9617,3.0736,3.1674,0.0,0.0,0.0,0.0,0.0,0.0,0.0,0.0,0.0,0.0,0.0,0.0,0.0,0.0,0.0,0.0,0.0,0.0,0.0,0.0,0.0,0.0,0.0,0.0,0.0,0.0,5.7997,5.7997,5.7997,5.7997,5.7997,5.7997,5.7997,5.7997,5.7997,5.7997,5.7997,5.7997,5.7997,5.7997,0.0,5.7997,5.7997,5.7997,5.7997,5.7997,5.7997,5.7997,5.7997,5.7997,5.7997,5.7997,5.7997,5.829,5.8731,5.9098,5.9501,5.9942,6.0309,6.0419,6.0493,6.0933,6.0456,6.0052,6.086,6.13,6.1704,6.2144,6.2548,6.2805,6.2805,6.2805,6.2805,6.2805,6.2805,6.2805,6.2805,6.2805,6.2805,6.2805,6.2805,6.2805,6.2805,6.2805,6.2989,6.3466,6.3503,6.3833,6.4677,6.5485,6.6292,6.71,6.7504,6.7687,6.7687,6.7687,6.7687,6.7687,6.7687,6.7687,6.7687,6.7687,6.7687,6.7724,6.9339,7.011,2.4821,2.5972,2.7612,3.0725,3.1815,0.0,0.0,0.0,0.0,0.0,0.0,0.0,0.0,0.0,0.0,0.0,0.0,0.0,0.0,0.0,0.0,0.0,0.0,0.0,0.0,0.0,0.0,0.0,0.0,0.0,0.0,0.0,5.7997,5.7997,5.7997,5.7997,5.7997,5.7997,5.7997,5.7997,5.7997,5.7997,5.7997,5.7997,5.7997,5.7997,5.7997,5.7997,5.7997,5.7997,5.7997,5.7997,5.7997,5.7997,5.7997,5.7997,5.7997,5.7997,5.7997,5.8547,5.9245,5.9428,6.0052,6.0713,6.0896,6.097,6.108,6.1704,6.1447,6.1117,6.1704,6.1887,6.2034,6.2658,6.2805,6.2805,6.2805,6.2805,6.2805,6.2805,6.2805,6.2805,6.2805,6.2805,6.2805,6.2805,6.2805,6.2805,6.2805,6.2805,6.3135,6.4016,6.409,6.4494,6.5521,6.6329,6.7026,6.765,6.7687,6.7687,6.7687,6.7687,6.7687,6.7687,6.7687,6.7687,6.7687,6.7687,6.7797,6.8017,6.9449,7.0183,2.7502,2.8434,2.9181,3.074,3.1319,0.0,3.6799,3.6586,0.0,3.8261,0.0,0.0,0.0,0.0,0.0,0.0,0.0,0.0,0.0,0.0,0.0,0.0,0.0,0.0,0.0,0.0,0.0,0.0,0.0,0.0,0.0,0.0,0.0,5.7997,5.7997,5.7997,5.7997,5.7997,5.7997,5.7997,5.7997,5.7997,5.7997,5.7997,5.7997,5.7997,5.7997,5.7997,5.7997,5.7997,5.7997,5.7997,5.7997,5.7997,5.7997,5.7997,5.7997,5.7997,5.7997,5.8547,5.9318,6.0089,6.086,6.163,6.2401,6.2658,6.2658,6.2695,6.2695,6.2658,6.2695,6.2732,6.2732,6.2805,6.2805,6.2805,6.2805,6.2805,6.2805,6.2805,6.2805,6.2805,6.2805,6.2805,6.2805,6.2805,6.2805,6.2805,6.2805,6.2805,6.3135,6.4016,6.409,6.4714,6.6292,6.7136,6.7614,6.7687,6.7687,6.7687,6.7687,6.7687,6.7687,6.7687,6.7687,6.7687,6.7687,6.7687,6.8091,6.8825,6.9706,7.0513,2.6988,2.8606,3.0177,3.1822,3.3726,0.0,0.0,3.9169,4.0654,0.0,0.0,0.0,0.0,0.0,0.0,0.0,0.0,0.0,0.0,0.0,0.0,0.0,0.0,0.0,0.0,0.0,0.0,0.0,0.0,0.0,0.0,0.0,0.0,5.7997,5.7997,5.7997,5.7997,5.7997,5.7997,5.7997,5.7997,5.7997,5.7997,5.7997,5.7997,5.7997,5.7997,5.7997,5.7997,5.7997,5.7997,5.7997,5.7997,5.7997,5.7997,5.7997,5.7997,5.807,5.8584,5.9281,6.0089,6.0896,6.1704,6.2401,6.2732,6.2805,6.2805,6.2805,6.2805,6.2805,6.2805,6.2805,6.2805,6.2805,6.2805,6.2805,6.2805,6.2805,6.2805,6.2805,6.2805,6.2805,6.2805,6.2805,6.2805,6.2805,6.2805,6.2805,6.2805,6.3282,6.3943,6.4751,6.5742,6.6586,6.7173,6.7504,6.7687,6.7687,6.7687,6.7687,6.7687,6.7687,6.7687,6.7687,6.7687,6.7687,6.7687,6.7687,6.8091,6.8935,6.9743,7.055,2.7485,2.9525,3.1792,3.3526,0.0,0.0,3.9295,4.1121,4.3022,0.0,0.0,0.0,0.0,0.0,0.0,0.0,0.0,0.0,0.0,0.0,0.0,0.0,0.0,0.0,0.0,0.0,0.0,0.0,0.0,0.0,0.0,0.0,0.0,0.0,5.7997,5.7997,5.7997,5.7997,5.7997,5.7997,5.7997,5.7997,5.7997,5.7997,5.7997,5.7997,5.7997,5.7997,5.7997,5.7997,5.7997,5.7997,5.7997,5.7997,5.8033,5.829,5.84,5.851,5.9318,6.0126,6.086,6.141,6.2144,6.2805,6.2805,6.2805,6.2805,6.2805,6.2805,6.2805,6.2805,6.2805,6.2805,6.2805,6.2805,6.2805,6.2805,6.2805,6.2805,6.2805,6.2805,6.2805,6.2805,6.2805,6.2805,6.2805,6.3025,6.3209,6.3209,6.3943,6.4787,6.5595,6.688,6.7687,6.7687,6.7687,6.7687,6.7687,6.7687,6.7687,6.7687,6.7687,6.7687,6.7687,6.7687,6.7687,6.7687,6.7944,6.8495,6.9302,7.011,7.0917,2.9609,3.1667,3.4228,0.0,0.0,0.0,4.2597,4.2227,4.232,0.0,0.0,0.0,0.0,0.0,0.0,0.0,0.0,0.0,0.0,0.0,0.0,0.0,0.0,0.0,0.0,0.0,0.0,0.0,0.0,0.0,0.0,0.0,0.0,0.0,5.7997,5.7997,5.7997,5.7997,5.7997,5.7997,5.7997,5.7997,5.7997,5.7997,5.7997,5.7997,5.7997,5.7997,5.7997,5.7997,5.7997,5.7997,5.7997,5.7997,5.8107,5.8914,5.9208,5.9318,6.0126,6.0933,6.1594,6.1594,6.2144,6.2805,6.2805,6.2805,6.2805,6.2805,6.2805,6.2805,6.2805,6.2805,6.2805,6.2805,6.2805,6.2805,6.2805,6.2805,6.2805,6.2805,6.2805,6.2805,6.2805,6.2805,6.2805,6.2805,6.3539,6.409,6.4127,6.4824,6.5632,6.6439,6.721,6.7687,6.7687,6.7687,6.7687,6.7687,6.7687,6.7687,6.7687,6.7687,6.7687,6.7687,6.7687,6.7687,6.7687,6.8495,6.9302,7.011,7.0954,7.1725,3.0472,3.3587,0.0,0.0,0.0,0.0,0.0,4.4164,0.0,0.0,0.0,0.0,0.0,0.0,0.0,0.0,0.0,0.0,0.0,0.0,0.0,0.0,0.0,0.0,0.0,0.0,0.0,0.0,0.0,0.0,0.0,0.0,0.0,0.0,5.7997,5.7997,5.7997,5.7997,5.7997,5.7997,5.7997,5.7997,5.7997,5.7997,5.7997,5.7997,5.7997,5.7997,5.7997,5.7997,5.7997,5.7997,5.7997,5.7997,5.8107,5.8914,5.9208,5.9428,6.0786,6.141,6.1704,6.2254,6.2622,6.2805,6.2805,6.2805,6.2805,6.2805,6.2805,6.2805,6.2805,6.2805,6.2805,6.2805,6.2805,6.2805,6.2805,6.2805,6.2805,6.2805,6.2805,6.2805,6.2805,6.2805,6.2805,6.2805,6.3539,6.4494,6.5632,6.5999,6.6439,6.7247,6.754,6.7687,6.7687,6.7687,6.7687,6.7687,6.7687,6.7863,6.8259,6.7878,6.7915,6.8259,6.7878,6.7687,6.7687,6.8495,6.9302,7.011,7.0954,7.1725,3.3223,3.656,0.0,0.0,0.0,0.0,0.0,0.0,0.0,0.0,0.0,0.0,0.0,0.0,0.0,0.0,0.0,0.0,0.0,0.0,0.0,0.0,0.0,0.0,0.0,0.0,0.0,0.0,0.0,0.0,0.0,0.0,0.0,5.795,5.7997,5.7997,5.7997,5.7997,5.7997,5.7997,5.7997,5.7997,5.7997,5.7997,5.7997,5.7997,5.7997,5.7997,5.7997,5.7997,5.7997,5.7997,5.7997,5.8217,5.8584,5.9391,5.9905,6.0346,6.163,6.2071,6.2144,6.2658,6.2805,6.2805,6.2805,6.2805,6.2805,6.2805,6.2805,6.2805,6.2805,6.2805,6.2805,6.2805,6.2805,6.2805,6.2805,6.2805,6.2805,6.2805,6.2805,6.2805,6.2805,6.2805,6.2915,6.3282,6.431,6.5521,6.6806,6.699,6.7136,6.765,6.7687,6.7687,6.7687,6.7687,6.7687,6.7687,6.7878,6.8259,6.8795,6.8097,6.793,6.8511,6.7982,6.7687,6.7687,6.8825,6.9633,7.011,7.1248,7.2055,3.6559,0.0,0.0,0.0,0.0,0.0,0.0,0.0,0.0,0.0,0.0,0.0,0.0,0.0,0.0,0.0,0.0,0.0,0.0,0.0,0.0,0.0,0.0,0.0,0.0,0.0,0.0,0.0,0.0,0.0,0.0,5.5836,5.6438,5.795,5.7997,5.7997,5.7997,5.7997,5.7997,5.7997,5.7997,5.7997,5.7997,5.7997,5.7997,5.7997,5.7997,5.7997,5.7997,5.7997,5.7997,5.7997,5.807,5.8547,5.9318,6.0199,6.097,6.1704,6.2511,6.2805,6.2805,6.2805,6.2805,6.2805,6.2805,6.2805,6.2805,6.2805,6.2805,6.2805,6.2805,6.2805,6.2805,6.2805,6.2805,6.2805,6.2805,6.2805,6.2805,6.2805,6.2805,6.2805,6.2805,6.2879,6.3246,6.4163,6.5558,6.6769,6.7577,6.7687,6.7687,6.7687,6.7687,6.7687,6.7687,6.7687,6.7741,6.7757,6.821,6.8795,6.9353,6.8368,6.8097,6.8614,6.8047,6.7794,6.7867,6.9394,7.0202,7.0331,7.1818,7.2553,3.4238,3.8836,0.0,0.0,0.0,0.0,0.0,0.0,0.0,0.0,0.0,0.0,0.0,0.0,0.0,0.0,0.0,0.0,0.0,0.0,0.0,0.0,0.0,0.0,0.0,0.0,0.0,0.0,0.0,0.0,5.6616,5.6616,5.7065,5.7997,5.7997,5.7997,5.7997,5.7997,5.7997,0.0,5.7997,5.7997,5.7997,5.7997,5.7997,5.7997,5.7997,5.7997,5.7997,5.7997,5.7997,5.807,5.8694,5.9061,5.9391,6.0823,6.1447,6.1704,6.2511,6.2805,6.2805,6.2805,6.2805,6.2805,6.2805,6.2805,6.2805,6.2805,6.2805,6.2805,6.2805,6.2805,6.2805,6.2805,6.2805,6.2805,6.2805,6.2805,6.2805,6.2805,6.2805,6.2805,6.2805,6.3356,6.431,6.5778,6.6292,6.6769,6.7577,6.7687,6.7687,6.7687,6.7687,6.7687,6.7687,6.7687,6.7915,6.8308,6.8416,6.8935,6.9883,6.9313,6.9231,6.9738,6.8803,6.8654,6.9286,6.9831,7.0696,7.1775,7.2263,7.2761,3.519,0.0,0.0,0.0,0.0,0.0,0.0,0.0,0.0,0.0,0.0,0.0,0.0,0.0,0.0,0.0,0.0,0.0,0.0,0.0,0.0,0.0,0.0,0.0,0.0,0.0,0.0,0.0,0.0,5.6421,5.6861,5.6912,5.7252,5.7997,5.7997,5.7997,5.7997,5.7997,5.7997,5.7997,5.7997,5.7997,5.7997,5.7997,5.7997,5.7997,5.7997,5.7997,5.7997,5.7997,5.8217,5.8621,5.9061,5.9685,6.0456,6.13,6.1851,6.2218,6.2658,6.2805,6.2805,6.2805,6.2805,6.2805,6.2805,6.2805,6.2805,6.2805,6.2805,6.2805,6.2805,6.2805,6.2805,6.2805,6.2805,6.2805,6.2805,6.2805,6.2805,6.2805,6.3135,6.3429,6.3429,6.442,6.5521,6.6366,6.6843,6.721,6.765,6.7687,6.7687,6.7687,6.7687,6.781,6.8047,6.8097,6.8308,6.8884,6.9148,6.955,7.0095,7.0061,7.0061,7.0095,6.9064,6.8884,6.9703,6.9958,7.0823,7.2199,7.2392,7.2816,3.5373,0.0,4.5039,0.0,0.0,0.0,0.0,0.0,0.0,0.0,0.0,0.0,0.0,0.0,0.0,0.0,0.0,0.0,0.0,0.0,0.0,0.0,0.0,0.0,0.0,0.0,0.0,0.0,0.0,5.7065,5.7065,5.7065,5.7351,5.7997,5.7997,5.7997,5.7997,5.7997,5.7997,5.7997,5.7997,5.7997,5.7997,5.7997,5.7997,5.7997,5.7997,5.7997,5.7997,5.7997,5.8474,5.9208,5.9355,6.0309,6.163,6.1741,6.2218,6.2805,6.2805,6.2805,6.2805,6.2805,6.2805,6.2805,6.2805,6.2805,6.2805,6.2805,6.2805,6.2805,6.2805,6.2805,6.2805,6.2805,6.2915,6.2989,6.2842,6.2915,6.3025,6.3025,6.3723,6.4347,6.4494,6.5632,6.6549,6.6696,6.7247,6.7687,6.7687,6.7687,6.7687,6.7687,6.7687,6.793,6.8464,6.8511,6.8795,6.9393,6.9847,7.0129,7.0228,7.0652,7.0681,7.0266,6.9272,6.9199,7.0032,7.0272,7.1139,7.2533,7.2647,7.2997,0.0,0.0,4.5736,0.0,0.0,0.0,0.0,0.0,0.0,0.0,0.0,0.0,0.0,0.0,0.0,0.0,0.0,0.0,0.0,0.0,0.0,0.0,0.0,0.0,0.0,0.0,0.0,0.0,5.7821,5.7821,5.7821,5.7821,5.7904,5.7997,5.7997,5.7997,5.7997,5.7997,5.7997,5.7997,5.7997,5.7997,5.7997,5.7997,5.7997,5.7997,5.7997,5.7997,5.7997,5.7997,5.8474,5.9281,5.9979,6.0786,6.1667,6.2401,6.2732,6.2805,6.2805,6.2805,6.2805,6.2805,6.2805,6.2805,6.2805,6.2805,6.2805,6.2805,6.2805,6.2805,6.2805,6.2805,6.2805,6.2805,6.3392,6.3723,6.2989,6.3392,6.3906,6.3906,6.4567,6.5375,6.6072,6.6366,6.6733,6.743,6.7614,6.7687,6.7687,6.7687,6.7687,6.7687,6.7687,6.793,6.8464,6.8511,6.8935,6.9918,7.0061,7.0298,7.0777,7.0871,7.0871,7.0777,7.0195,7.0422,7.1406,7.1513,7.2423,7.4011,7.3516,7.3602,3.1506,3.9166,0.0,0.0,0.0,0.0,0.0,0.0,0.0,0.0,0.0,0.0,0.0,0.0,0.0,0.0,0.0,0.0,0.0,0.0,0.0,0.0,0.0,0.0,0.0,0.0,0.0,0.0,5.7997,5.7997,5.7997,5.7997,5.7997,5.7997,5.7997,5.7997,5.7997,5.7997,5.7997,5.7997,5.7997,5.7997,5.7997,5.7997,5.7997,5.7997,5.7997,5.7997,5.8033,5.851,5.9171,5.9942,6.075,6.1557,6.2328,6.2695,6.2805,6.2805,6.2805,6.2805,6.2805,6.2805,6.2805,6.2805,6.2805,6.2805,6.2805,6.2805,6.2805,6.2805,6.2805,6.3172,6.3539,6.3539,6.4163,6.4677,6.4273,6.4494,6.4897,6.5375,6.5742,6.6219,6.7026,6.7173,6.7283,6.765,6.7961,6.8145,6.8145,6.8145,6.8145,6.8145,6.7888,6.8055,6.8875,6.8915,6.9433,7.0494,7.0524,7.0652,7.0898,7.0898,7.0898,7.0898,7.0362,7.0791,7.2205,7.193,7.28,7.4711,7.4206,7.4212,0.0,0.0,0.0,0.0,0.0,0.0,0.0,0.0,0.0,0.0,0.0,0.0,0.0,0.0,0.0,0.0,0.0,0.0,0.0,0.0,0.0,0.0,0.0,0.0,0.0,0.0,0.0,0.0,5.7997,5.7997,5.7997,5.7997,5.7997,5.7997,5.7997,5.7997,5.7997,5.7997,5.7997,5.7997,5.7997,5.7997,5.7997,5.7997,5.7997,5.7997,5.7997,5.7997,5.807,5.8877,5.9685,6.0493,6.13,6.2108,6.2805,6.2805,6.2805,6.2805,6.2805,6.2805,6.2805,6.2805,6.2805,6.2805,6.2805,6.2805,6.2805,6.2805,6.2805,6.2879,6.3062,6.3613,6.4127,6.4347,6.5007,6.5595,6.5595,6.5595,6.5852,6.6659,6.6806,6.699,6.7577,6.7687,6.7757,6.7893,6.8232,6.8544,6.8697,6.8703,6.8705,6.8716,6.8343,6.8507,6.9432,6.9491,6.9923,7.0843,7.0898,7.0898,7.0898,7.0898,7.0898,7.0898,7.0494,7.1035,7.2577,7.2358,7.3231,7.5091,7.471,7.4749,0.0,0.0,0.0,0.0,0.0,0.0,0.0,0.0,0.0,0.0,0.0,0.0,0.0,0.0,0.0,0.0,0.0,0.0,0.0,0.0,0.0,0.0,0.0,0.0,0.0,0.0,0.0,0.0,5.7997,5.7997,5.7997,5.7997,5.7997,5.7997,5.7997,5.7997,5.7997,5.7997,5.7997,5.7997,5.7997,5.7997,5.7997,5.7997,5.7997,5.7997,5.7997,5.7997,5.807,5.8877,5.9685,6.0493,6.13,6.2108,6.2805,6.2805,6.2805,6.2805,6.2805,6.2805,6.2805,6.2805,6.2805,6.2805,6.2805,6.2805,6.2805,6.2805,6.2805,6.2989,6.3796,6.4053,6.4273,6.5081,6.5852,6.6439,6.6439,6.6439,6.6659,6.7467,6.7614,6.765,6.7687,6.7687,6.7893,6.8381,6.8447,6.8679,6.9183,6.9256,6.9285,6.9272,6.9235,6.9469,7.0009,7.0037,7.0319,7.0871,7.0898,7.0898,7.0898,7.0898,7.0898,7.0898,7.0871,7.1436,7.2577,7.3162,7.4005,7.5091,7.5091,7.5091,0.0,0.0,0.0,0.0,0.0,0.0,0.0,0.0,0.0,0.0,0.0,0.0,0.0,0.0,0.0,0.0,0.0,0.0,0.0,0.0,0.0,0.0,0.0,0.0,0.0,0.0,0.0,0.0,0.0,5.7997,5.7997,5.7997,5.7997,5.7997,5.7997,5.7997,5.7997,5.7997,5.7997,5.7997,5.7997,5.7997,5.7997,5.7997,5.7997,5.7997,5.7997,5.829,5.8841,5.9648,6.0456,6.1263,6.2071,6.2548,6.2805,6.2805,6.2805,6.2805,6.2805,6.3014,6.3262,6.2867,6.3062,6.3262,6.2867,6.2805,6.2805,6.2805,6.2805,6.3025,6.387,6.4494,6.5294,6.6963,6.758,6.7863,6.8211,6.7753,6.7546,6.853,6.8464,6.8334,6.8666,6.8442,6.8271,6.8444,6.8795,6.9095,6.9299,6.9587,6.9781,6.9801,6.9509,6.9512,7.0057,7.0099,7.0342,7.0871,7.0898,7.0898,7.0898,7.0898,7.0898,7.0898,7.0898,7.1622,7.3193,7.3389,7.4235,7.5686,7.5686,7.5686,0.0,0.0,0.0,0.0,0.0,0.0,0.0,0.0,0.0,0.0,0.0,0.0,0.0,0.0,0.0,0.0,0.0,0.0,0.0,0.0,0.0,0.0,0.0,0.0,0.0,0.0,0.0,0.0,0.0,0.0,5.7997,5.7997,5.7997,5.7997,5.7997,5.7997,5.7997,5.7997,5.7997,5.7997,5.7997,5.7997,5.7997,5.7997,5.7997,5.8033,5.829,5.8731,5.9281,6.0089,6.086,6.1667,6.2511,6.2805,6.2805,6.2805,6.2805,6.2805,6.2805,6.3062,6.3262,6.2953,6.3168,6.3498,6.2965,6.2953,6.3014,6.2855,6.3025,6.3429,6.4273,6.5419,6.6766,6.8398,6.8795,6.8891,6.9472,6.8847,6.8464,6.9148,6.9021,6.887,6.9207,6.8997,6.8825,6.9026,6.9364,6.9626,6.9798,7.014,7.0371,7.0371,7.0042,6.998,7.0343,7.0363,7.0524,7.0871,7.0898,7.0898,7.0898,7.0898,7.0898,7.0898,7.0898,7.1629,7.3053,7.336,7.4361,7.6015,7.6015,7.6015,0.0,0.0,0.0,0.0,0.0,0.0,0.0,0.0,0.0,0.0,0.0,0.0,0.0,0.0,0.0,0.0,0.0,0.0,0.0,0.0,0.0,0.0,0.0,0.0,0.0,0.0,0.0,0.0,5.7997,5.7997,5.7997,5.7997,5.7997,5.7997,5.7997,5.7997,5.7997,5.7997,5.7997,5.7997,5.7997,5.7997,5.7997,5.7997,5.7997,5.807,5.8877,5.9245,5.9355,6.0126,6.0896,6.1704,6.2511,6.2805,6.2805,6.2805,6.2805,6.2805,6.2805,6.2805,6.2805,6.2805,6.3168,6.3543,6.2965,6.3168,6.3498,6.2953,6.3466,6.4273,6.5118,6.6963,6.866,6.919,6.9313,6.9472,7.0026,6.9701,6.9353,6.9353,6.9353,6.9344,6.9341,6.9336,6.9495,7.0016,7.0131,7.027,7.0825,7.0898,7.0898,7.0898,7.0898,7.0898,7.0898,7.0898,7.0898,7.0898,7.0898,7.0898,7.0898,7.0898,7.0898,7.0898,7.0898,7.1321,7.2206,7.3091,7.4361,7.5976,7.5976,7.6015,2.2697,0.0,0.0,0.0,0.0,0.0,0.0,0.0,0.0,0.0,0.0,0.0,0.0,0.0,0.0,0.0,0.0,0.0,0.0,0.0,0.0,0.0,0.0,0.0,0.0,0.0,0.0,0.0,5.7997,5.7997,5.7997,5.7997,5.7997,5.7997,5.7997,5.7997,5.7997,5.7997,5.7997,5.7997,5.7997,5.7997,5.7997,5.7997,5.8327,5.8877,5.9098,5.9869,6.0933,6.119,6.1741,6.2511,6.2732,6.2805,6.2805,6.2805,6.2805,6.2805,6.2805,6.3062,6.3363,6.3363,6.3723,6.4059,6.3543,6.3498,6.361,6.3739,6.3906,6.4485,6.6271,6.792,6.9231,6.9738,6.9883,7.0026,7.0554,7.0554,7.0463,7.0463,7.0129,6.9992,7.0381,7.0133,6.9938,7.007,7.0111,7.0151,7.0305,7.0662,7.0898,7.0898,7.0898,7.0898,7.0898,7.0898,7.0898,7.0898,7.0898,7.0898,7.0898,7.0898,7.0898,7.0898,7.0898,7.1321,7.2206,7.3091,7.4053,7.5091,7.5707,7.6015,0.0,0.0,0.0,0.0,0.0,0.0,0.0,0.0,0.0,0.0,0.0,0.0,0.0,0.0,0.0,0.0,0.0,0.0,0.0,0.0,0.0,0.0,0.0,0.0,0.0,0.0,5.7997,5.7997,5.7997,5.7997,5.7997,5.7997,5.7997,5.7997,5.7997,5.7997,5.7997,5.7997,5.7997,5.7997,5.7997,5.7997,5.7997,5.7997,5.8437,5.9245,5.9575,6.0419,6.163,6.1961,6.2401,6.2805,6.2805,6.2805,6.2805,6.2805,6.2805,6.2805,6.2805,6.3014,6.3271,6.3543,6.3808,6.4019,6.3975,6.399,6.4138,6.4325,6.4893,6.5912,6.7926,6.9055,6.9775,7.0298,7.0432,7.0524,7.0805,7.0898,7.0898,7.0898,7.0652,7.0524,7.0871,7.0629,7.0422,7.0404,7.0417,7.0422,7.0442,7.0716,7.0898,7.0898,7.0898,7.0898,7.0898,7.0898,7.0898,7.0898,7.0898,7.0898,7.0898,7.0898,7.0898,7.0898,7.0898,7.1321,7.2206,7.3091,7.4091,7.5245,7.5745,7.6015,0.0,0.0,0.0,0.0,0.0,0.0,0.0,0.0,0.0,0.0,0.0,0.0,0.0,0.0,0.0,0.0,0.0,0.0,0.0,0.0,0.0,0.0,0.0,0.0,0.0,5.7997,5.7997,5.7997,5.7997,5.7997,5.7997,5.7997,5.7997,5.7997,5.7997,5.7997,5.7997,5.7997,5.7997,5.7997,5.7997,5.7997,5.7997,5.8107,5.8584,5.9391,6.0199,6.1006,6.1777,6.2511,6.2805,6.2805,6.2805,6.2805,6.2805,6.2805,6.2805,6.2805,6.2805,6.2805,6.2904,6.3498,6.368,6.3808,6.4294,6.4702,6.4999,6.5098,6.6336,6.7991,6.9657,7.0129,7.0298,7.0777,7.0898,7.0898,7.0898,7.0898,7.0898,7.0898,7.0898,7.0898,7.0898,7.0898,7.0898,7.0898,7.0898,7.0898,7.0898,7.0898,7.0898,7.0898,7.0898,7.0898,7.0898,7.0898,7.0898,7.0898,7.0898,7.0898,7.0898,7.0898,7.0898,7.0898,7.0898,7.136,7.236,7.3129,7.4322,7.5861,7.5938,7.6015,0.0,0.0,0.0,0.0,0.0,0.0,0.0,0.0,0.0,0.0,0.0,0.0,0.0,0.0,0.0,0.0,0.0,0.0,0.0,0.0,0.0,0.0,0.0,0.0,0.0,5.7997,5.7997,5.7997,5.7997,5.7997,5.7997,5.7997,5.7997,5.7997,5.7997,5.7997,5.7997,5.7997,5.7997,5.7997,5.7997,5.7997,5.8033,5.8694,5.9428,6.0236,6.1006,6.1814,6.2585,6.2768,6.2805,6.2805,6.2805,6.2805,6.2805,6.2805,6.2805,6.2805,6.2805,6.2805,6.2965,6.3896,6.4217,6.4332,6.4799,6.5475,6.6286,6.72,6.8489,6.9657,6.9985,7.0432,7.0777,7.0871,7.0898,7.0898,7.0898,7.0898,7.0898,7.0898,7.0898,7.0898,7.0898,7.0898,7.0898,7.0898,7.0898,7.0898,7.0898,7.0898,7.0898,7.0898,7.0898,7.0898,7.0898,7.0898,7.0898,7.0898,7.0898,7.0898,7.0898,7.0898,7.0898,7.0898,7.0898,7.1668,7.3245,7.3437,7.4014,7.4976,7.5668,7.6015,0.0,0.0,0.0,2.9522,0.0,0.0,0.0,0.0,0.0,0.0,0.0,0.0,0.0,0.0,0.0,0.0,0.0,0.0,0.0,0.0,0.0,0.0,0.0,0.0,0.0,5.7997,5.7997,5.7997,5.7997,5.7997,5.7997,5.7997,5.7997,5.7997,5.7997,5.7997,5.7997,5.7997,5.7997,5.7997,5.7997,5.8217,5.8621,5.9024,5.9869,6.1006,6.141,6.2071,6.2805,6.2805,6.2805,6.2805,6.2805,6.2805,6.2805,6.2805,6.2805,6.2805,6.2805,6.2965,6.3317,6.4138,6.4672,6.5123,6.5872,6.6782,6.7812,6.8787,6.9579,7.0162,7.0432,7.0681,7.0898,7.0898,7.0898,7.0898,7.0898,7.0898,7.0898,7.0898,7.0898,7.0898,7.0898,7.0898,7.0898,7.0898,7.0898,7.0898,7.0898,7.0898,7.0898,7.0898,7.0898,7.0898,7.0898,7.0898,7.0898,7.0898,7.0898,7.0898,7.0898,7.0898,7.0898,7.0898,7.0898,7.1552,7.286,7.3283,7.413,7.5361,7.5784,7.6015,0.0,0.0,0.0,0.0,0.0,2.9559,0.0,0.0,0.0,0.0,0.0,0.0,0.0,0.0,0.0,0.0,0.0,0.0,0.0,0.0,0.0,0.0,0.0,0.0,0.0,5.6822,5.7152,5.7923,5.7262,5.7189,5.796,5.7997,5.7997,5.7997,5.8097,5.8142,5.8142,5.8142,5.8142,5.8142,5.8189,5.8584,5.9208,5.9538,6.0382,6.1594,6.1886,6.2376,6.2965,6.3062,6.3121,6.3073,6.2904,6.2805,6.2805,6.2805,6.2805,6.2805,6.2805,6.3121,6.3718,6.4405,6.5312,6.6319,6.7313,6.8215,6.9158,6.9999,7.0266,7.0362,7.0777,7.0898,7.0898,7.0898,7.0898,7.0898,7.0898,7.0898,7.0898,7.0898,7.0898,7.0898,7.0898,7.0898,7.0898,7.0898,7.0898,7.0898,7.0898,7.0898,7.0898,7.0898,7.0898,7.0898,7.0898,7.0898,7.0898,7.0898,7.0898,7.0898,7.0898,7.0898,7.0898,7.0898,7.0898,7.1398,7.2437,7.3168,7.4284,7.5745,7.5938,7.6015,0.0,0.0,0.0,0.0,3.3007,0.0,0.0,0.0,0.0,0.0,0.0,0.0,0.0,0.0,0.0,0.0,0.0,0.0,0.0,0.0,0.0,0.0,0.0,0.0,0.0,0.0,5.4142,5.774,5.4693,5.4216,5.7813,5.7997,5.7997,5.7997,5.8418,5.8632,5.8632,5.8632,5.8632,5.8632,5.8887,5.9134,5.9281,6.0676,6.141,6.1679,6.2872,6.3386,6.3543,6.4019,6.4217,6.4099,6.3168,6.2805,6.2805,6.2805,6.2805,6.2805,6.2805,6.3121,6.3792,6.5045,6.6679,6.8252,6.914,6.9487,6.9767,7.0574,7.0805,7.0805,7.0898,7.0898,7.0898,7.0898,7.0898,7.0898,7.0898,7.0898,7.0898,7.0898,7.0898,7.0898,7.0898,7.0898,7.0898,7.0898,7.0898,7.0898,7.0898,7.0898,7.0898,7.0898,7.0898,7.0898,7.0898,7.0898,7.0898,7.0898,7.0898,7.0898,7.0898,7.0898,7.0898,7.0898,7.0898,7.1706,7.336,7.3437,7.3976,7.4861,7.563,7.6015,0.0,0.0,0.0,0.0,0.0,0.0,0.0,0.0,2.8338,0.0,0.0,0.0,0.0,0.0,0.0,0.0,0.0,0.0,0.0,0.0,0.0,0.0,0.0,0.0,0.0,0.0,0.0,0.0,0.0,5.3041,5.7079,5.774,5.7997,5.7997,5.8461,5.8713,5.8713,5.899,5.899,5.8713,5.9319,5.9715,5.9942,6.108,6.2008,6.2789,6.3349,6.3766,6.4059,6.4294,6.437,6.437,6.3896,6.3505,6.3271,6.3593,6.3505,6.3345,6.4159,6.4772,6.5537,6.7354,6.8493,6.9321,7.0129,7.0398,7.0475,7.0783,7.0898,7.0898,7.0898,7.0898,7.0898,7.0898,7.0898,7.0898,7.0898,7.0898,7.0898,7.0898,7.0898,7.0898,7.0898,7.0898,7.0898,7.0898,7.0898,7.0898,7.0898,7.0898,7.0898,7.0898,7.0898,7.0898,7.0898,7.0898,7.0898,7.0898,7.0898,7.0898,7.0898,7.0898,7.0898,7.0898,7.0898,7.1514,7.2745,7.3245,7.3899,7.4707,7.5592,7.6015,4.0168,0.0,0.0,0.0,0.0,0.0,0.0,0.0,0.0,0.0,0.0,0.0,0.0,0.0,0.0,0.0,0.0,0.0,0.0,0.0,0.0,0.0,0.0,0.0,0.0,0.0,0.0,0.0,0.0,5.1242,5.6822,5.7483,5.7831,5.815,5.8673,5.8951,5.9065,5.9424,5.9467,5.9211,5.9909,6.0381,6.075,6.1557,6.2519,6.3631,6.3766,6.4099,6.459,6.4769,6.4803,6.4803,6.4803,6.4481,6.4059,6.4294,6.4289,6.4304,6.5272,6.6251,6.7369,6.9135,6.986,7.0129,7.0706,7.0898,7.0898,7.0898,7.0898,7.0898,7.0898,7.0898,7.0898,7.0898,7.0898,7.0898,7.0898,7.0898,7.0898,7.0898,7.0898,7.0898,7.0898,7.0898,7.0898,7.0898,7.0898,7.0898,7.0898,7.0898,7.0898,7.0898,7.0898,7.0898,7.0898,7.0898,7.0898,7.0898,7.0898,7.0898,7.0898,7.0898,7.0898,7.0898,7.0898,7.1321,7.2206,7.3091,7.3899,7.4707,7.5592,7.6015,0.0,0.0,0.0,3.8784,0.0,0.0,0.0,0.0,3.2312,0.0,0.0,0.0,0.0,0.0,0.0,0.0,0.0,0.0,0.0,0.0,0.0,0.0,0.0,0.0,0.0,0.0,0.0,0.0,0.0,0.0,5.7446,5.7262,5.742,5.8635,5.9102,5.9592,6.0074,6.0074,6.0203,6.0525,6.0893,6.1233,6.1594,6.2401,6.3073,6.3593,6.4138,6.4626,6.513,6.5663,6.5872,6.5872,6.5872,6.5542,6.5003,6.4554,6.486,6.5539,6.5577,6.7007,6.8897,6.9519,7.0244,7.086,7.0898,7.0898,7.0898,7.0898,7.0898,7.0898,7.0898,7.0898,7.0898,7.0898,7.0898,7.0898,7.0898,7.0898,7.0898,7.0898,7.0898,7.0898,7.0898,7.0898,7.0898,7.0898,7.0898,7.0898,7.0898,7.0898,7.0898,7.0898,7.0898,7.0898,7.0898,7.0898,7.0898,7.0898,7.0898,7.0898,7.0898,7.0898,7.0898,7.0898,7.0898,7.1321,7.2206,7.3091,7.3899,7.4707,7.5592,7.6015,0.0,0.0,4.9908,4.4097,0.0,0.0,0.0,0.0,0.0,0.0,0.0,0.0,0.0,0.0,0.0,0.0,0.0,0.0,0.0,0.0,0.0,0.0,0.0,0.0,0.0,0.0,0.0,0.0,0.0,0.0,0.0,5.6675,5.7383,5.8676,5.9139,5.9625,6.0103,6.043,6.0759,6.1109,6.1428,6.1752,6.2175,6.2946,6.3593,6.4138,6.4661,6.513,6.5663,6.5808,6.5897,6.5897,6.5897,6.5781,6.5674,6.6059,6.616,6.6345,6.7821,6.9153,7.023,7.0448,7.0667,7.0898,7.0898,7.0898,7.0898,7.0898,7.0898,7.0898,7.0898,7.0898,7.0898,7.0898,7.0898,7.0898,7.0898,7.0898,7.0898,7.0898,7.0898,7.0898,7.0898,7.0898,7.0898,7.0898,7.0898,7.0898,7.0898,7.0898,7.0898,7.0898,7.0898,7.0898,7.0898,7.0898,7.0898,7.0898,7.0898,7.0898,7.0898,7.0898,7.0898,7.0898,7.0898,7.1321,7.2206,7.3091,7.3899,7.4707,7.5592,7.6015,5.3494,5.4276,0.0,4.847,4.632,0.0,3.7719,0.0,0.0,0.0,0.0,0.0,0.0,0.0,0.0,0.0,0.0,0.0,0.0,0.0,0.0,0.0,0.0,0.0,0.0,0.0,0.0,0.0,0.0,0.0,0.0,0.0,5.7383,5.8676,5.9139,5.9625,6.0103,6.0572,6.1147,6.1819,6.1792,6.2181,6.2848,6.337,6.3892,6.4445,6.4904,6.5417,6.5897,6.5897,6.5897,6.5897,6.5897,6.6051,6.6397,6.6898,6.7302,6.7821,6.9509,7.0475,7.0898,7.0898,7.0898,7.0898,7.0898,7.0898,7.0898,7.0898,7.0898,7.0898,7.0898,7.0898,7.0898,7.0898,7.0898,7.0898,7.0898,7.0898,7.0898,7.0898,7.0898,7.0898,7.0898,7.0898,7.0898,7.0898,7.0898,7.0898,7.0898,7.0898,7.0898,7.0898,7.0898,7.0898,7.0898,7.0898,7.0898,7.0898,7.0898,7.0898,7.0898,7.0898,7.0898,7.0898,7.1206,7.1629,7.2206,7.336,7.4207,7.4707,7.5592,7.6015]},{"header":{"parameterUnit":"m.s-1","parameterCategory":1,"la1":30.6,"la2":29.2853,"lo1":-89.7004,"lo2":-87.6739,"dx":0.0162,"dy":0.0183,"nx":112,"ny":82,"refTime":"2022-12-25T06:00:00:Z","depth":0,"parameterNumber":3,"parameterNumberName":"V-component_of_WINDS"},"data":[0.0,0.0,0.0,0.0,0.0,0.0,0.0,0.0,0.0,0.0,0.0,0.0,0.0,0.0,0.0,0.0,0.0,0.0,0.0,0.0,0.0,0.0,0.0,0.0,0.0,0.0,0.0,0.0,0.0,0.0,0.0,0.0,0.0,0.0,0.0,0.0,0.0,0.0,0.0,0.0,0.0,0.0,0.0,0.0,0.0,0.0,0.0,0.0,0.0,0.0,0.0,0.0,0.0,0.0,0.0,0.0,0.0,0.0,0.0,0.0,0.0,0.0,0.0,0.0,0.0,0.0,0.0,0.0,0.0,0.0,0.0,0.0,0.0,0.0,0.0,0.0,0.0,0.0,0.0,0.0,0.0,0.0,0.0,0.0,0.0,0.0,0.0,0.0,0.0,0.0,0.0,-1.886,-2.0008,-1.9161,-1.5493,-1.3236,-1.0727,-0.7831,0.0,0.0,0.0,0.0,0.0,0.0,0.0,0.0,0.0,0.0,0.0,0.0,0.0,0.0,0.0,0.0,0.0,0.0,0.0,0.0,0.0,0.0,0.0,0.0,0.0,0.0,0.0,0.0,0.0,0.0,0.0,0.0,0.0,0.0,0.0,0.0,0.0,0.0,0.0,0.0,0.0,0.0,0.0,0.0,0.0,0.0,0.0,0.0,0.0,0.0,0.0,0.0,0.0,0.0,0.0,0.0,0.0,0.0,0.0,0.0,0.0,0.0,0.0,0.0,0.0,0.0,0.0,0.0,0.0,0.0,0.0,0.0,0.0,0.0,0.0,0.0,0.0,0.0,0.0,0.0,0.0,0.0,0.0,0.0,0.0,0.0,0.0,0.0,0.0,0.0,0.0,0.0,0.0,0.0,0.0,0.0,0.0,0.0,0.0,0.0,0.0,0.0,0.0,0.0,-1.7598,-2.135,-2.1285,-1.9797,-1.7069,-1.4125,-1.115,-0.791,0.0,0.0,0.0,0.0,0.0,0.0,0.0,0.0,0.0,0.0,0.0,0.0,0.0,0.0,0.0,0.0,0.0,0.0,0.0,0.0,0.0,0.0,0.0,0.0,0.0,0.0,0.0,0.0,0.0,0.0,0.0,0.0,0.0,0.0,0.0,0.0,0.0,0.0,0.0,0.0,0.0,0.0,0.0,0.0,0.0,0.0,0.0,0.0,0.0,0.0,0.0,0.0,0.0,0.0,0.0,0.0,0.0,0.0,0.0,0.0,0.0,0.0,0.0,0.0,0.0,0.0,0.0,0.0,0.0,0.0,0.0,0.0,0.0,0.0,0.0,0.0,0.0,0.0,0.0,0.0,0.0,0.0,0.0,0.0,0.0,0.0,0.0,0.0,0.0,0.0,0.0,0.0,0.0,0.0,0.0,0.0,0.0,0.0,0.0,0.0,0.0,0.0,0.0,-1.7086,-1.9658,-2.2786,-2.2295,-2.0979,-1.9005,-1.5881,-1.2466,-0.8834,-0.7746,0.0,0.0,0.0,0.0,0.0,0.0,0.0,0.0,0.0,0.0,0.0,0.0,0.0,0.0,0.0,0.0,0.0,0.0,0.0,0.0,0.0,0.0,0.0,0.0,0.0,0.0,0.0,0.0,0.0,0.0,0.0,0.0,0.0,0.0,0.0,0.0,0.0,0.0,0.0,0.0,0.0,0.0,0.0,0.0,0.0,0.0,0.0,0.0,0.0,0.0,0.0,0.0,0.0,0.0,0.0,0.0,0.0,0.0,0.0,0.0,0.0,0.0,0.0,0.0,0.0,0.0,0.0,0.0,0.0,0.0,0.0,0.0,0.0,0.0,0.0,0.0,0.0,0.0,0.0,0.0,0.0,0.0,0.0,0.0,0.0,0.0,0.0,0.0,0.0,0.0,0.0,0.0,0.0,0.0,0.0,0.0,0.0,0.0,0.0,0.0,0.0,0.0,-2.0036,-2.2255,-2.4147,-2.3151,-2.1989,-2.086,-1.733,-1.3602,-0.9772,-0.8869,0.0,0.0,0.0,0.0,0.0,0.0,0.0,0.0,0.0,0.0,0.0,0.0,0.0,0.0,0.0,0.0,0.0,0.0,0.0,0.0,0.0,0.0,0.0,0.0,0.0,0.0,0.0,0.0,0.0,0.0,0.0,0.0,0.0,0.0,0.0,0.0,0.0,0.0,0.0,0.0,0.0,0.0,0.0,0.0,0.0,0.0,0.0,0.0,0.0,0.0,0.0,0.0,0.0,0.0,0.0,0.0,0.0,0.0,0.0,0.0,0.0,0.0,0.0,0.0,0.0,0.0,0.0,0.0,0.0,0.0,0.0,0.0,0.0,0.0,0.0,0.0,0.0,0.0,0.0,0.0,0.0,0.0,0.0,0.0,0.0,0.0,0.0,0.0,0.0,0.0,0.0,0.0,0.0,0.0,0.0,0.0,0.0,0.0,0.0,0.0,0.0,0.0,-2.1589,-2.4707,-2.6073,-2.4068,-2.2567,-2.2237,-1.7839,-1.3708,-1.0243,-0.7301,0.0,0.0,0.0,0.0,0.0,0.0,0.0,0.0,0.0,0.0,0.0,0.0,0.0,0.0,0.0,0.0,0.0,0.0,0.0,0.0,0.0,0.0,0.0,0.0,0.0,0.0,0.0,0.0,0.0,0.0,0.0,0.0,0.0,0.0,0.0,0.0,0.0,0.0,0.0,0.0,0.0,0.0,0.0,0.0,0.0,0.0,0.0,0.0,0.0,0.0,0.0,0.0,0.0,0.0,0.0,0.0,0.0,0.0,0.0,0.0,0.0,0.0,0.0,0.0,0.0,0.0,0.0,0.0,0.0,0.0,0.0,0.0,0.0,0.0,0.0,0.0,0.0,0.0,0.0,0.0,0.0,0.0,0.0,0.0,0.0,0.0,0.0,0.0,0.0,0.0,0.0,0.0,0.0,0.0,0.0,0.0,0.0,0.0,0.0,0.0,0.0,0.0,-2.1036,-2.4238,0.0,-2.4739,-2.3137,-2.3004,-1.927,-1.5114,-1.0719,0.0,0.0,0.0,0.0,0.0,0.0,0.0,0.0,0.0,0.0,0.0,0.0,0.0,0.0,0.0,0.0,0.0,0.0,0.0,0.0,0.0,0.0,0.0,0.0,0.0,0.0,0.0,0.0,0.0,0.0,0.0,0.0,0.0,0.0,0.0,0.0,0.0,0.0,0.0,0.0,0.0,0.0,0.0,0.0,0.0,0.0,0.0,0.0,0.0,0.0,0.0,0.0,0.0,0.0,0.0,0.0,0.0,0.0,0.0,0.0,0.0,0.0,0.0,0.0,0.0,0.0,0.0,0.0,0.0,0.0,0.0,0.0,0.0,0.0,0.0,0.0,0.0,0.0,0.0,0.0,0.0,0.0,0.0,0.0,0.0,0.0,0.0,0.0,0.0,0.0,0.0,0.0,0.0,0.0,0.0,0.0,0.0,0.0,0.0,0.0,0.0,0.0,-1.7793,-2.1445,-2.4746,0.0,-2.5147,-2.3519,-2.3402,-1.9989,-1.5778,-1.0948,0.0,0.0,0.0,0.0,0.0,0.0,0.0,0.0,0.0,0.0,0.0,0.0,0.0,0.0,0.0,0.0,0.0,0.0,0.0,0.0,0.0,0.0,0.0,0.0,0.0,0.0,0.0,0.0,0.0,0.0,0.0,0.0,0.0,0.0,0.0,0.0,0.0,0.0,0.0,0.0,0.0,0.0,0.0,0.0,0.0,0.0,0.0,0.0,0.0,0.0,0.0,0.0,0.0,0.0,0.0,0.0,0.0,0.0,0.0,0.0,0.0,0.0,0.0,0.0,0.0,0.0,0.0,0.0,0.0,0.0,0.0,0.0,0.0,0.0,0.0,0.0,0.0,0.0,0.0,0.0,0.0,0.0,0.0,0.0,0.0,0.0,0.0,0.0,0.0,0.0,0.0,0.0,0.0,0.0,0.0,0.0,0.0,0.0,0.0,0.0,0.0,0.0,-1.8418,-2.3184,-2.6719,-2.7578,-2.5377,-2.3673,-2.3436,-1.9891,-1.5569,0.0,0.0,0.0,0.0,0.0,0.0,0.0,0.0,0.0,0.0,0.0,0.0,0.0,0.0,0.0,0.0,0.0,0.0,0.0,0.0,0.0,0.0,0.0,0.0,0.0,0.0,0.0,0.0,0.0,0.0,0.0,0.0,0.0,0.0,0.0,0.0,0.0,0.0,0.0,0.0,0.0,0.0,0.0,0.0,0.0,0.0,0.0,0.0,0.0,0.0,0.0,0.0,0.0,0.0,0.0,0.0,0.0,0.0,0.0,0.0,0.0,0.0,0.0,0.0,0.0,0.0,0.0,0.0,0.0,0.0,0.0,0.0,0.0,0.0,0.0,0.0,0.0,0.0,0.0,0.0,0.0,0.0,0.0,0.0,0.0,0.0,0.0,0.0,0.0,0.0,0.0,0.0,0.0,0.0,0.0,0.0,0.0,0.0,0.0,0.0,0.0,0.0,0.0,-1.8828,-2.3359,-2.6836,-2.7988,-2.5537,-2.3772,-2.3673,-2.034,-1.609,-1.1214,0.0,0.0,0.0,0.0,0.0,0.0,0.0,0.0,0.0,0.0,0.0,0.0,0.0,0.0,0.0,0.0,0.0,0.0,0.0,0.0,0.0,0.0,0.0,0.0,0.0,0.0,0.0,0.0,0.0,0.0,0.0,0.0,0.0,0.0,0.0,0.0,0.0,0.0,0.0,0.0,0.0,0.0,0.0,0.0,0.0,0.0,0.0,0.0,0.0,0.0,0.0,0.0,0.0,0.0,0.0,0.0,0.0,0.0,0.0,0.0,0.0,0.0,0.0,0.0,0.0,0.0,0.0,0.0,0.0,0.0,0.0,0.0,0.0,0.0,0.0,0.0,0.0,0.0,0.0,0.0,0.0,0.0,0.0,0.0,0.0,0.0,0.0,0.0,0.0,0.0,0.0,0.0,0.0,0.0,0.0,0.0,0.0,0.0,0.0,0.0,0.0,0.0,-1.9062,-2.3887,-2.75,-2.8437,-2.598,-2.4201,-2.4053,-2.0633,-1.6497,-1.1828,0.0,0.0,0.0,0.0,0.0,0.0,0.0,0.0,0.0,0.0,0.0,0.0,0.0,0.0,0.0,0.0,0.0,0.0,0.0,0.0,0.0,0.0,0.0,0.0,0.0,0.0,0.0,0.0,0.0,0.0,0.0,0.0,0.0,0.0,0.0,0.0,0.0,0.0,0.0,0.0,0.0,0.0,0.0,0.0,0.0,0.0,0.0,0.0,0.0,0.0,0.0,0.0,0.0,0.0,0.0,0.0,0.0,0.0,0.0,0.0,0.0,0.0,0.0,0.0,0.0,0.0,0.0,0.0,0.0,0.0,0.0,0.0,0.0,0.0,0.0,0.0,0.0,0.0,0.0,0.0,0.0,0.0,0.0,0.0,0.0,0.0,0.0,0.0,0.0,0.0,0.0,0.0,0.0,0.0,0.0,0.0,0.0,0.0,0.0,0.0,0.0,0.0,-1.918,-2.4477,-2.8349,-2.8926,-2.6548,-2.4763,-2.4514,-2.0808,-1.6791,-1.264,0.0,0.0,0.0,0.0,0.0,0.0,0.0,0.0,0.0,0.0,0.0,0.0,0.0,0.0,0.0,0.0,0.0,0.0,0.0,0.0,0.0,0.0,0.0,0.0,0.0,0.0,0.0,0.0,0.0,0.0,0.0,0.0,0.0,0.0,0.0,0.0,0.0,0.0,0.0,0.0,0.0,0.0,0.0,0.0,0.0,0.0,0.0,0.0,0.0,0.0,0.0,0.0,0.0,0.0,0.0,0.0,0.0,0.0,0.0,0.0,-0.3826,0.0,0.0,0.0,0.0,0.0,0.0,0.0,0.0,0.0,0.0,0.0,0.0,0.0,0.0,0.0,0.0,0.0,0.0,0.0,0.0,0.0,0.0,0.0,0.0,0.0,0.0,0.0,0.0,0.0,0.0,0.0,0.0,0.0,0.0,0.0,0.0,0.0,0.0,0.0,0.0,0.0,-1.9422,-2.3768,-2.7341,-2.9225,-2.6707,-2.4763,-2.4514,-2.1218,-1.729,-1.2814,0.0,0.0,0.0,0.0,0.0,0.0,0.0,0.0,0.0,0.0,0.0,0.0,0.0,0.0,0.0,0.0,0.0,0.0,0.0,0.0,0.0,0.0,0.0,0.0,0.0,0.0,0.0,0.0,0.0,0.0,0.0,0.0,0.0,0.0,0.0,0.0,0.0,0.0,0.0,0.0,0.0,0.0,0.0,0.0,0.0,0.0,0.0,0.0,0.0,0.0,0.0,0.0,0.0,0.0,0.0,0.0,0.0,0.0,0.0,0.0,0.0,-0.4151,0.0,0.0,0.0,0.0,0.0,0.0,0.0,0.0,0.0,0.0,0.0,0.0,0.0,0.0,0.0,0.0,0.0,0.0,0.0,0.0,0.0,0.0,0.0,0.0,0.0,0.0,0.0,0.0,0.0,0.0,0.0,0.0,0.0,0.0,0.0,0.0,0.0,0.0,0.0,0.0,-1.9561,-2.392,-2.753,-2.9672,-2.7044,-2.5127,-2.4762,-2.1569,-1.7817,-1.3491,-1.2109,0.0,0.0,0.0,0.0,0.0,0.0,0.0,0.0,0.0,0.0,0.0,0.0,0.0,0.0,0.0,0.0,0.0,0.0,0.0,0.0,0.0,0.0,0.0,0.0,0.0,0.0,0.0,0.0,0.0,0.0,0.0,0.0,0.0,0.0,0.0,0.0,0.0,0.0,0.0,0.0,0.0,0.0,0.0,0.0,0.0,0.0,0.0,0.0,0.0,0.0,0.0,0.0,0.0,-0.758,-0.6831,-0.6505,-0.6037,-0.601,-0.6295,-0.5786,-0.5644,-0.5691,0.0,0.0,0.0,0.0,0.0,0.0,0.0,0.0,0.0,0.0,0.0,0.0,0.0,0.0,0.0,0.0,0.0,0.0,0.0,0.0,0.0,0.0,0.0,0.0,0.0,-1.2443,-1.3037,0.0,0.0,0.0,0.0,0.0,0.0,0.0,0.0,0.0,0.0,0.0,0.0,-1.9603,-2.411,-2.7719,-2.9661,-2.7264,-2.5409,-2.5161,-2.1862,-1.8311,-1.4665,-1.307,-1.102,0.0,0.0,0.0,0.0,0.0,0.0,0.0,0.0,0.0,0.0,0.0,0.0,0.0,0.0,0.0,0.0,0.0,0.0,0.0,0.0,0.0,0.0,0.0,0.0,0.0,0.0,0.0,0.0,0.0,0.0,0.0,0.0,-0.579,-0.5104,0.0,0.0,0.0,0.0,0.0,0.0,0.0,0.0,0.0,0.0,0.0,0.0,0.0,0.0,-1.0732,-1.0314,-0.9742,-0.8901,-0.8031,-0.759,-0.755,-0.7645,-0.7712,-0.778,-0.8038,0.0,-0.641,-0.6098,0.0,0.0,0.0,0.0,0.0,0.0,0.0,0.0,0.0,0.0,0.0,0.0,0.0,0.0,0.0,0.0,0.0,0.0,0.0,0.0,0.0,0.0,-1.3752,-1.5486,-1.6056,-1.6046,0.0,-1.2786,-1.0443,-1.0255,0.0,0.0,0.0,0.0,0.0,0.0,0.0,0.0,-1.9536,-2.3461,-2.6592,-2.8419,-2.6831,-2.5409,-2.5161,-2.2067,-1.9047,-1.6515,-1.5026,-1.2636,-0.8917,-0.5319,0.0,0.0,0.0,0.0,0.0,0.0,0.0,0.0,0.0,0.0,0.0,0.0,0.0,0.0,0.0,0.0,0.0,0.0,0.0,0.0,0.0,0.0,0.0,0.0,0.0,0.0,0.0,0.0,0.0,-0.6226,-0.6547,-0.5623,-0.645,-0.7084,0.0,0.0,0.0,0.0,0.0,0.0,0.0,0.0,0.0,-1.3557,-1.3588,-1.3302,-1.2462,-1.1756,-1.0949,-0.9871,-0.8902,-0.8499,-0.8669,-0.8811,-0.8872,-0.8879,-0.9055,-0.873,-0.8011,-0.7305,-0.6757,-0.6324,0.0,0.0,0.0,0.0,-0.4931,-0.4877,-0.5406,-0.506,0.0,0.0,0.0,0.0,0.0,0.0,0.0,0.0,0.0,0.0,0.0,0.0,0.0,-1.4687,-1.6163,-1.7355,-1.7074,-1.5565,-1.3868,0.0,-1.1891,-1.0969,-0.9165,0.0,0.0,0.0,0.0,0.0,-1.983,-2.2589,-2.4868,-2.6798,-2.525,-2.3913,-2.3756,-2.1526,-1.9309,-1.7077,-1.574,-1.3221,-0.9443,-0.6073,-0.2916,0.0,0.0,0.0,0.0,0.0,0.0,0.0,0.0,0.0,0.0,0.0,0.0,0.0,0.0,0.0,0.0,0.0,0.0,0.0,0.0,0.0,0.0,0.0,0.0,0.0,0.0,0.0,0.0,-0.6945,-0.7372,-0.6611,-0.722,-0.7812,0.0,0.0,0.0,0.0,0.0,0.0,-1.3708,-1.4219,-1.4682,-1.515,-1.5271,-1.5089,-1.4456,-1.3103,-1.1964,-1.0921,-0.963,-0.9205,-0.9422,-0.9544,-0.9598,-0.9598,-0.9598,-0.9517,-0.9313,-0.8343,-0.7801,-0.766,-0.6963,-0.6699,-0.6537,-0.6416,-0.6261,-0.6186,-0.6783,-0.6641,-0.6274,-0.6722,0.0,-0.7584,-0.7292,0.0,0.0,0.0,0.0,-0.7989,-0.8736,-1.1567,-1.421,-1.4537,-1.6642,-1.8477,-1.8116,-1.7689,-1.6807,0.0,-1.4001,-1.2933,-1.1035,0.0,0.0,0.0,0.0,-1.7196,-1.9989,-2.2022,-2.3886,-2.583,-2.4045,-2.2825,-2.3284,-2.1406,-1.952,-1.7941,-1.6639,-1.4348,-1.0539,-0.7529,-0.4017,-0.0097,0.0,0.0,0.0,0.0,0.0,0.0,0.0,0.0,0.0,0.0,0.0,0.0,0.0,0.0,0.0,0.0,0.0,0.0,0.0,0.0,0.0,0.0,0.0,0.0,0.0,0.0,0.0,0.0,0.0,-0.8526,-0.8106,0.0,0.0,0.0,0.0,-1.2711,-1.3014,-1.3561,-1.4435,-1.5026,-1.5886,-1.7082,-1.7021,-1.6678,-1.5837,-1.4229,-1.2917,-1.1757,-1.0259,-0.9503,-0.9523,-0.9713,-0.9802,-0.9802,-0.9802,-0.9802,-0.9741,-0.9123,-0.8689,-0.8377,-0.8065,-0.7672,-0.7416,-0.7767,-0.7746,-0.7584,-0.8174,-0.8418,-0.8479,-0.8513,-0.816,-0.7685,-0.7434,-0.7129,0.0,0.0,-0.7936,-0.8941,-1.1044,-1.3264,-1.5345,-1.6963,-1.8751,-1.996,-1.9399,-1.8584,-1.7769,0.0,-1.6941,-1.6433,-1.4937,0.0,-1.5605,-1.5591,-1.6673,-1.8023,-1.9636,-2.2069,-2.4163,-2.5863,-2.4045,-2.3284,-2.4911,-2.1991,-2.0107,-1.9681,-1.868,-1.6596,-1.2994,-1.0748,-0.6546,-0.0103,0.0,0.0,0.0,0.0,0.0,0.0,0.0,0.0,0.0,0.0,0.0,0.0,0.0,0.0,0.0,0.0,0.0,0.0,0.0,0.0,0.0,0.0,0.0,0.0,0.0,0.0,0.0,0.0,0.0,-0.9156,-0.963,0.0,0.0,-1.0642,-1.2037,-1.2625,-1.4432,-1.5765,-1.6446,-1.6874,-1.7382,-1.7996,-1.8384,-1.7978,-1.6665,-1.6412,-1.5666,-1.4188,-1.2542,-1.1717,-1.1594,-1.0571,-1.0114,-1.0114,-1.0114,-1.0114,-1.01,-0.989,-0.951,-0.9042,-0.8838,-0.8601,-0.8397,-0.856,-0.8554,-0.8506,-0.8811,-0.896,-0.9028,-0.9028,-0.8879,-0.8662,-0.8445,-0.8438,-0.856,-0.8818,-0.9184,-1.003,-1.2043,-1.3864,-1.5648,-1.7345,-1.8985,-2.012,-1.9733,-1.9239,-1.8771,-1.837,-1.7675,-1.686,-1.5965,-1.6767,-1.7341,-1.6767,-1.8009,-1.9345,-2.0241,-2.1286,-2.2591,-2.4286,-2.2506,-2.1766,-2.3402,-2.1341,-1.9987,-2.0067,-1.8766,-1.6999,-1.4646,-1.1542,-0.8747,-0.6498,-0.2229,0.0,0.0,0.0,0.0,0.0,0.0,0.0,0.0,0.0,0.0,0.0,0.0,0.0,0.0,0.0,0.0,0.0,0.0,0.0,0.0,0.0,0.0,0.0,0.0,0.0,0.0,0.0,-1.1269,-1.037,-1.0804,-1.0493,-0.8863,-1.0762,-1.2184,-1.252,-1.4871,-1.6663,-1.7213,-1.7987,-1.8677,-1.9065,-1.9452,-1.9168,-1.8077,-1.7937,-1.7368,-1.6258,-1.4644,-1.3528,-1.2901,-1.1657,-1.0904,-1.0283,-1.0283,-1.0283,-1.0283,-1.0283,-1.0046,-0.9673,-0.9571,-0.9442,-0.932,-0.9374,-0.9361,-0.9334,-0.9483,-0.9557,-0.9591,-0.9591,-0.9557,-0.9496,-0.9415,-0.949,-0.9639,-0.9795,-1.0012,-1.0594,-1.2455,-1.4295,-1.5982,-1.7746,-1.9309,-2.0334,-2.0134,-1.9786,-1.9452,-1.9252,-1.8504,-1.7716,-1.7128,-1.8009,-1.8477,-1.7582,-1.8704,-1.976,-2.0054,-2.0601,-2.1811,-2.4009,-2.184,-2.106,-2.3284,-2.0857,-1.9506,-2.0187,-1.8885,-1.7299,-1.5607,-1.2746,-1.0646,-0.9557,-0.3196,0.0,-0.0,0.0,0.0,0.0,0.0,0.0,0.0,0.0,0.0,0.0,0.0,0.0,0.0,0.0,0.0,0.0,0.0,0.0,0.0,0.0,0.0,0.0,0.0,0.0,-1.2768,-1.2624,-1.2444,-1.2279,-1.1512,-1.0799,-1.028,-1.0509,-1.1176,-1.2336,-1.4472,-1.5969,-1.6586,-1.8404,-1.9653,-2.0214,-2.0241,-2.0254,-2.0254,-1.8753,-1.8006,-1.8006,-1.6393,-1.4663,-1.3044,-1.3044,-1.2043,-1.0424,-1.0424,-1.0417,-1.0297,-1.0297,-1.0297,-1.029,-1.0283,-1.0188,-1.0073,-1.0222,-1.0188,-1.008,-1.0229,-1.0283,-1.0283,-1.0283,-1.0181,-1.0086,-1.0236,-1.0181,-1.0093,-1.0243,-1.0392,-1.0883,-1.2668,-1.4594,-1.6302,-1.8116,-1.9613,-2.0681,-2.0668,-2.0214,-1.9813,-1.9786,-1.9559,-1.9199,-1.8624,-1.8985,-1.9065,-1.8196,-1.8824,0.0,-1.9011,-1.9973,-2.1996,-2.5169,-2.2257,-2.1484,-2.4713,-2.0729,-1.8677,-2.0134,-1.9158,-1.7737,-1.5887,-1.4573,-1.2128,-0.8437,-0.2931,-0.01,-0.0,0.0,0.0,0.0,0.0,0.0,0.0,0.0,0.0,0.0,0.0,0.0,0.0,0.0,0.0,0.0,0.0,0.0,0.0,0.0,0.0,0.0,0.0,-1.3615,-1.3947,-1.469,-1.5051,-1.4573,-1.3627,-1.2533,-1.1304,-1.126,-1.2046,-1.3881,-1.5658,-1.7346,-1.9099,-1.9707,-2.0067,-2.0227,-2.0441,-2.0548,-2.0548,-2.0375,-2.0229,-2.0216,-1.8554,-1.7401,-1.6892,-1.5603,-1.4069,-1.2531,-1.2531,-1.1758,-1.0602,-1.0602,-1.0602,-1.0575,-1.0365,-1.0256,-1.0222,-1.0263,-1.0256,-1.0222,-1.0263,-1.0283,-1.0283,-1.0283,-1.0249,-1.0222,-1.027,-1.0324,-1.0378,-1.0419,-1.0541,-1.1308,-1.441,-1.5485,-1.6689,-1.9674,-2.0663,-2.0869,-2.0441,-2.0227,-1.9987,-1.9573,-1.9586,-1.9559,-1.9185,-1.9265,-1.9359,-1.9319,-1.9706,0.0,-2.0174,-2.0655,-2.1505,-2.2659,-2.09,-2.0326,-2.1945,-1.9775,-1.8811,-1.9853,-1.9613,-1.8644,-1.7051,-1.5525,-1.2755,-0.8553,-0.6107,-0.3332,0.0,0.0,0.0,0.0,0.0,0.0,0.0,0.0,0.0,0.0,0.0,0.0,0.0,0.0,0.0,0.0,0.0,0.0,0.0,0.0,0.0,0.0,-1.3756,-1.519,-1.5727,-1.632,-1.6504,-1.591,-1.5343,-1.4184,-1.1975,-1.1896,-1.2403,-1.3699,-1.534,-1.7225,-1.9259,-2.0034,-2.0481,-2.0588,-2.0762,-2.0855,-2.0855,-2.1029,-2.1109,-2.1109,-2.0068,-1.9164,-1.8512,-1.7474,-1.6043,0.0,-1.4362,-1.384,-1.2931,-1.2931,-1.2931,0.0,0.0,0.0,0.0,0.0,-1.1607,-1.1607,-1.1607,-1.1607,-1.1486,-1.0718,-1.0466,-1.0466,-1.0466,-1.0521,-1.0588,-1.0588,-1.0649,-1.1505,-1.5005,-1.5913,-1.6818,-2.0322,-2.0922,-2.0681,-2.0468,-2.0134,-1.9813,-1.9586,-1.9586,0.0,-1.9399,-1.9372,-1.9292,-1.9078,-1.9519,-1.988,-1.9933,-2.0628,-2.1396,-2.2303,-2.0948,-2.0413,-2.1594,-1.9498,0.0,0.0,0.0,-1.8285,-1.7008,-1.5489,0.0,0.0,0.0,0.0,0.0,0.0,0.0,0.0,-0.6905,-0.6826,0.0,0.0,0.0,0.0,0.0,0.0,0.0,0.0,0.0,0.0,0.0,0.0,0.0,0.0,0.0,0.0,-1.4879,-1.679,-1.7649,-1.7515,-1.7197,-1.6858,-1.6621,-1.5555,-1.3057,-1.276,-1.2882,-1.3154,-1.468,-1.6512,-1.8524,0.0,0.0,0.0,0.0,-2.1109,-2.1109,-2.1109,-2.1109,-2.1109,-2.1109,-2.0322,-1.8768,-1.8768,-1.7859,-1.6172,-1.6172,-1.6043,-1.5913,-1.5913,-1.5913,-1.5524,-1.2281,-1.0982,-1.124,-1.2668,-1.3456,-1.3578,-1.3578,0.0,0.0,-1.1505,-1.085,-1.0717,-1.0717,-1.0717,-1.0717,-1.0717,-1.085,-1.1762,-1.5005,-1.6043,-1.7076,-2.0322,-2.0708,-2.0388,-2.0588,-2.0013,-1.9519,-1.972,-1.9546,-1.9372,-1.9372,-1.9372,-1.9092,-1.829,-1.8931,-1.9426,-1.9158,-2.0347,-2.1532,-2.2657,0.0,0.0,-2.2231,-1.9542,-1.837,-1.976,-1.8611,-1.746,-1.6609,-1.5033,-1.2646,-0.9259,-0.911,-0.9545,-1.0349,-1.0294,-1.0141,-0.9847,-0.7822,-0.7238,0.0,0.0,0.0,0.0,0.0,0.0,0.0,0.0,0.0,0.0,0.0,0.0,0.0,0.0,0.0,-1.5269,-1.6613,-1.7702,-1.8544,-1.8611,-1.8519,-1.8481,-1.7475,-1.675,-1.6406,-1.5266,-1.5197,-1.7055,-1.7508,-1.8536,-2.0485,-2.0889,0.0,-2.1109,-2.1109,-2.1109,-2.1109,-2.1109,-2.1109,-2.1109,0.0,0.0,-2.0589,-2.0589,-1.9674,-1.7988,-1.7988,-1.7216,-1.5913,-1.5913,-1.5913,-1.5654,-1.3587,-1.2808,-1.28,-1.3193,-1.4232,-1.5394,-1.5394,-1.4493,-1.3193,-1.2931,-1.1894,-1.0717,-1.0717,-1.0717,0.0,-1.0717,-1.1762,-1.3325,-1.5394,-1.6947,-1.85,-2.0589,-2.1015,-2.0828,-2.0414,-2.0187,-1.9947,-1.9533,-1.9412,-1.9372,-1.9372,-1.9372,-1.9305,-1.9132,-1.9853,-2.0401,-2.0347,-2.1203,-2.1464,-2.0575,-2.0295,-2.012,-1.9685,-1.9307,-1.9345,-2.0107,-1.988,-1.9218,-1.7949,-1.61,-1.4309,-1.288,-1.1068,-1.0385,-1.0819,-1.0643,-1.0685,-1.0781,-0.9476,-0.8974,0.0,0.0,0.0,0.0,0.0,0.0,0.0,0.0,0.0,0.0,0.0,-0.9242,0.0,0.0,-1.5531,-1.71,-1.8181,-1.8834,-1.9131,-1.9179,-1.9199,-1.9203,-1.8751,-1.8183,-1.7457,-1.6853,-1.71,-1.8226,-1.8368,-1.9145,-2.0969,-2.1109,-2.1109,-2.1109,-2.1109,-2.1109,-2.1109,-2.1109,-2.1109,-2.1109,-2.1109,-2.1109,-2.1109,-2.1109,-2.0589,-1.9801,-1.9801,-1.9291,-1.8512,-1.8512,-1.7988,-1.7076,-1.6302,-1.5394,-1.4754,-1.5524,-1.6431,-1.7216,-1.7216,-1.6689,-1.5654,-1.384,-1.2676,-1.1894,-1.0982,-1.0717,-1.0717,-1.0717,-1.2025,-1.3456,-1.4362,-1.656,-1.8768,-1.9546,-2.0346,-2.0775,-2.0334,-2.012,-1.988,-1.9452,-1.9372,-1.9372,-1.9372,-1.9492,-1.9586,-1.9586,-2.008,-2.0561,-2.0855,-2.1537,-2.1657,-2.0775,-2.0802,-2.0601,-1.9867,-1.98,-1.992,-2.0214,-2.0227,-2.0047,-1.9714,-1.8698,-1.7652,-1.6665,-1.4609,-1.3169,-1.2558,-1.1525,-1.0914,-1.098,-1.0378,-1.0168,0.0,0.0,0.0,0.0,0.0,0.0,0.0,0.0,-0.6589,-0.7593,-0.8175,-0.942,-1.2406,-1.4775,-1.6769,-1.8304,-1.9251,-1.9611,-1.9421,-1.9408,-1.9452,-1.9452,-1.9653,-1.935,-1.8106,-1.8384,-1.865,-1.8823,-1.8903,-1.9674,-2.0982,-2.1109,-2.1109,-2.1109,-2.1109,-2.1109,-2.1109,-2.1109,-2.1109,-2.1109,-2.1109,-2.1109,-2.1109,-2.1109,-2.1109,-2.1109,-2.1109,-2.1109,-2.1109,-2.1109,-2.0322,-1.9024,-1.9024,-1.8116,-1.7076,-1.8116,-1.8768,-1.9024,-1.9024,-1.8768,-1.7988,-1.5265,-1.4101,-1.3578,-1.215,-1.1505,-1.124,-1.163,-1.2676,-1.384,-1.4232,-1.6689,-1.9024,-1.9024,-1.9903,-2.0681,-2.0388,-2.0094,-1.98,-1.9506,-1.9412,-1.9372,-1.9372,-1.9613,-1.98,-1.98,-2.0147,-2.0588,-2.1122,-2.171,-2.1951,-2.167,-2.163,-2.1403,-2.0815,-2.0535,-2.0401,-2.0401,-2.0401,-2.0641,-2.1176,-2.0935,-2.0282,-1.948,-1.7598,-1.5856,-1.413,-1.262,-1.16,-1.1077,-1.1077,-1.0948,-0.4182,0.0,0.0,-0.5522,-0.53,-0.5352,0.0,0.0,-0.6886,-0.7584,-0.8507,-1.041,-1.4308,-1.5406,-1.6334,-1.848,-1.8991,-1.9065,-1.9408,-1.9573,-1.976,-1.976,-1.9786,-1.988,-2.0275,-2.0381,-2.0526,-2.0777,-2.0829,-2.0856,-2.1109,-2.1109,-2.1109,-2.1109,-2.1109,-2.1109,-2.1109,-2.1109,-2.1109,-2.1109,-2.1109,-2.1109,-2.1109,-2.1109,-2.1109,-2.1109,-2.1109,-2.1109,-2.1109,-2.1109,-2.0982,-2.0843,-2.0843,-2.0716,-2.0322,-1.9024,-1.9419,-2.0843,-2.0843,-1.9801,-1.8384,-1.7988,-1.6818,-1.5524,-1.5394,-1.4232,-1.3325,-1.4874,-1.5394,-1.5913,-1.7474,-1.9419,-2.0843,-2.0843,-2.0956,-2.0989,-2.0695,-2.0388,-2.0094,-1.9813,-1.9546,-1.9372,-1.9372,-1.9613,-1.98,-1.98,-2.0494,-2.1122,-2.1456,-2.2004,-2.2258,-2.1964,-2.1937,-2.1697,-2.1109,-2.1029,-2.1015,-2.1015,-2.1015,-2.1162,-2.1496,-2.0048,-1.9364,-1.9616,-1.7833,-1.6144,-1.4373,-1.409,-1.3097,-1.1545,-1.1545,-1.1246,-0.558,0.0,0.0,0.0,-0.6549,-0.6608,-0.7436,-0.7515,-0.7596,-0.8267,-0.889,-1.0327,-1.3857,-1.481,-1.5975,0.0,-1.9212,-1.9412,-1.9372,-1.9613,-1.9867,-2.0027,-2.0201,-2.0401,-2.0655,-2.0828,-2.0975,-2.1096,-2.1109,-2.1109,-2.1109,-2.1109,-2.1109,-2.1109,-2.1109,-2.1109,-2.1109,-2.1109,-2.1109,-2.1109,-2.1109,-2.1109,-2.1109,-2.1109,-2.1109,-2.1109,-2.1109,-2.1109,-2.1109,-2.1109,-2.1109,-2.1109,-2.1109,-2.1109,-2.0982,-2.0322,-2.0462,-2.1109,-2.1109,-2.0589,-1.9814,-1.8768,-1.7988,-1.7205,-1.6172,-1.5394,-1.5005,-1.5654,-1.6689,-1.7345,-1.7076,-1.9024,-2.0843,-1.9801,-2.0322,-2.1029,-2.0735,-2.0575,-2.0347,-1.9893,-1.9706,-1.9626,-1.9626,-1.9867,-2.0107,-2.0281,-2.0628,-2.1029,-2.1496,-2.1764,-2.1871,-2.175,-2.1577,-2.1376,-2.1136,-2.1109,-2.1109,-2.1109,-2.1109,-2.1243,-2.1537,-2.1045,-2.0908,-2.1167,-1.9679,-1.8411,-1.7669,-1.6545,-1.5,-1.3167,-1.3167,-1.2507,-0.6677,0.0,0.0,-0.7507,-0.7684,-0.7773,-0.814,-0.8289,-0.8472,-0.8906,-0.951,-1.0755,-1.3517,-1.4802,0.0,-1.8607,-1.9399,-1.9613,-1.9399,-1.9679,-2.0,-2.0214,-2.0561,-2.0802,-2.0802,-2.0989,-2.1109,-2.1109,-2.1109,-2.1109,-2.1109,-2.1109,-2.1109,-2.1109,-2.1109,-2.1109,-2.1109,-2.1109,-2.1109,-2.1109,-2.1109,-2.1109,-2.1109,-2.1109,-2.1109,-2.1109,-2.1109,-2.1109,-2.1109,-2.1109,-2.1109,-2.1109,-2.1109,-2.1109,-2.1109,-2.1109,-2.1109,-2.1109,-2.1109,-2.1109,-2.0856,-1.9674,-1.9164,-1.9024,-1.7731,-1.6947,-1.6689,-1.7216,-1.7859,-1.8372,-1.7602,-1.9164,-2.0716,-1.9546,-2.0195,-2.1056,-2.0842,-2.0668,-2.0428,-2.0,-1.9786,-1.9706,-1.9786,-2.004,-2.0334,-2.0628,-2.0748,-2.0975,-2.1483,-2.155,-2.155,-2.155,-2.1283,-2.1109,-2.1109,-2.1109,-2.1109,-2.1109,-2.1109,-2.1203,-2.1416,-2.171,-2.2004,-2.2298,-2.1207,-2.0545,-2.0063,-1.8659,-1.7137,-1.5355,-1.4794,-1.3898,0.0,0.0,-0.7592,-0.8335,-0.8435,-0.8381,-0.8648,-0.8913,-0.9123,-0.9144,-1.0632,-1.2372,-1.4139,-1.5726,-1.7443,-1.9113,-1.9372,-1.9372,-1.9372,-1.9853,-2.0227,-2.0227,-2.0748,-2.1096,0.0,-2.1109,-2.1109,-2.1109,-2.1109,-2.1109,-2.1109,-2.1109,-2.1109,-2.1109,-2.1109,-2.1109,-2.1109,-2.1109,-2.1109,-2.1109,-2.1109,-2.1109,-2.1109,-2.1109,-2.1109,-2.1109,-2.1109,-2.1109,-2.1109,-2.1109,-2.1109,-2.1109,-2.1109,-2.1109,-2.1109,-2.1109,-2.1109,-2.1109,-2.1109,-2.1109,-2.1109,-2.0982,-2.0982,-2.0982,-2.0982,-1.9801,-1.8768,-2.0462,-1.9801,-1.8896,-2.0462,-2.0982,-2.1109,-2.0982,-2.1109,-2.1109,-2.1096,-2.0655,-2.0241,-2.0227,-1.976,-1.9466,-1.976,-2.004,-2.0334,-2.0628,-2.0909,-2.1203,-2.151,-2.155,-2.155,-2.155,-2.1283,-2.1109,-2.1109,-2.1109,-2.1109,-2.1109,-2.1109,-2.1109,-2.1122,-2.1403,-2.1697,-2.1991,-2.2285,-2.1603,-2.0063,-2.0063,-1.92,-1.7571,-1.5569,-1.4813,0.0,0.0,-0.8172,-0.9705,-1.0168,-1.0534,-1.1691,-1.2265,-1.2502,-1.2639,-1.3343,-1.436,-1.5898,-1.6552,-1.756,-1.9127,-1.9372,-1.9439,-1.9626,-1.9987,-2.0307,-2.0508,-2.0869,0.0,0.0,0.0,0.0,-2.1109,-2.1109,-2.1109,-2.1109,-2.1109,-2.1109,-2.1109,-2.1109,-2.1109,-2.1109,-2.1109,-2.1109,-2.1109,-2.1109,-2.1109,-2.1109,-2.1109,-2.1109,-2.1109,-2.1109,-2.1109,-2.1109,-2.1109,-2.1109,-2.1109,-2.1109,-2.1109,-2.1109,-2.1109,-2.1109,-2.1109,-2.1109,-2.1109,-2.1109,-2.1109,-2.1109,-2.1109,-2.1109,-2.0716,-2.0322,-2.0969,-2.0716,-2.0322,-2.0982,-2.1109,-2.1109,-2.1109,-2.0962,-2.0815,-2.0815,-2.0508,-2.0174,-1.9987,-1.9786,-1.9746,-2.004,-2.0174,-2.0401,-2.0882,-2.1042,-2.1149,-2.1243,-2.1256,-2.1256,-2.1256,-2.1162,-2.1109,-2.1109,-2.1109,-2.1109,-2.1109,-2.1109,-2.1109,-2.1109,-2.139,-2.1697,-2.1977,-2.2271,-2.2281,-2.2022,-2.2022,-2.118,-1.9577,-1.8866,-1.8063,0.0,-0.7936,-0.8526,-1.0469,-1.1067,-1.1669,-1.3337,-1.3933,-1.4198,-1.4351,-1.4961,-1.5653,-1.6588,-1.7298,-1.8056,-1.9229,-1.9452,-1.9626,-1.992,-2.0201,-2.0468,-2.0655,-2.0935,0.0,0.0,0.0,0.0,-2.1109,-2.1109,-2.1109,-2.1109,-2.1109,-2.1109,-2.1109,-2.1109,-2.1109,-2.1109,-2.1109,-2.1109,-2.1109,-2.1109,-2.1109,-2.1109,-2.1109,-2.1109,-2.1109,-2.1109,-2.1109,-2.1109,-2.1109,-2.1109,-2.1109,-2.1109,-2.1109,-2.1109,-2.1109,-2.1109,-2.1109,-2.1109,-2.1109,-2.1109,-2.1109,-2.1109,-2.1109,-2.1109,-2.1109,-2.1109,-2.1109,-2.1109,-2.1109,-2.1109,-2.1109,-2.1109,-2.1109,-2.0895,-2.0681,-2.0681,-2.0361,-2.0027,-1.984,-1.972,-1.9773,-2.016,-2.0414,-2.0668,-2.1056,-2.1109,-2.1109,-2.1109,-2.1109,-2.1109,-2.1109,-2.1109,-2.1109,-2.1109,-2.1109,-2.1109,-2.1109,-2.1109,-2.1109,-2.1109,-2.1296,-2.1577,-2.1977,-2.2164,-2.2458,-2.2859,-2.2979,-2.261,-2.1598,-2.1102,-2.0352,-0.7931,-0.818,-0.882,-1.0775,-1.1466,-1.2051,-1.3618,-1.4303,-1.4603,-1.4582,-1.561,-1.6504,0.0,0.0,-1.8945,-1.9239,-1.9573,-1.9907,-2.0187,-2.0494,-2.0681,0.0,0.0,0.0,0.0,0.0,0.0,-2.1109,0.0,-2.1109,-2.1109,-2.1109,-2.1109,-2.1109,-2.1109,-2.1109,-2.1109,-2.1109,-2.1109,-2.1109,-2.1109,-2.1109,-2.1109,-2.1109,-2.1109,-2.1109,-2.1109,-2.1109,-2.1109,-2.1109,-2.1109,-2.1109,-2.1109,-2.1109,-2.1109,-2.1109,-2.1109,-2.1109,-2.1109,-2.1109,-2.1109,-2.1109,-2.1109,-2.1109,-2.1109,-2.1109,-2.1109,-2.1109,-2.1109,-2.1109,-2.1109,-2.1109,-2.1109,-2.1109,-2.0895,-2.0668,-2.0655,-2.0201,-1.98,-1.9786,-1.9586,-1.9586,-2.016,-2.0748,-2.1136,-2.1149,-2.1149,-2.1136,-2.1109,-2.1109,-2.1109,-2.1109,-2.1109,-2.1109,-2.1109,-2.1109,-2.1109,-2.1109,-2.1109,-2.1109,-2.1109,-2.1109,-2.139,-2.1977,-2.1991,-2.2285,-2.2886,-2.318,-2.3487,-2.3794,-2.214,-2.1502,-0.8248,-0.8567,-0.9465,-1.233,-1.3106,-1.3902,-1.6879,-1.7654,-1.7641,-1.7116,-1.7194,-1.7171,0.0,0.0,0.0,-1.8023,-1.9025,0.0,-2.0187,-2.0494,0.0,0.0,0.0,-2.1109,-2.1109,-2.1109,0.0,0.0,-2.1109,-2.1109,-2.1109,-2.1109,-2.1109,-2.1109,-2.1109,-2.1109,-2.1109,-2.1109,-2.1109,-2.1109,-2.1109,-2.1109,-2.1109,-2.1109,-2.1109,-2.1109,-2.1109,-2.1109,-2.1109,-2.1109,-2.1109,-2.1109,-2.1109,-2.1109,-2.1109,-2.1109,-2.1109,-2.1109,-2.1109,-2.1109,-2.1109,-2.1109,-2.1109,-2.1109,-2.1109,-2.1109,-2.1109,-2.1109,-2.1109,-2.1109,-2.1109,-2.1109,-2.1109,-2.1109,-2.0895,-2.0615,-2.0401,-2.0054,-1.9733,-1.9519,-1.9773,-2.0134,-2.0494,-2.1056,-2.151,-2.1737,-2.1764,-2.1603,-2.1162,-2.1109,-2.1109,-2.1109,-2.1109,-2.1109,-2.1109,-2.1109,-2.1109,-2.1109,-2.1109,-2.1109,-2.1109,-2.1109,-2.139,-2.1977,-2.1991,-2.2392,-2.3207,-2.3287,-2.3594,-2.4088,-2.3575,-2.3611,-0.8659,-0.8811,-0.961,-1.276,-1.3627,-1.4492,-1.745,-1.8237,-1.813,-1.7408,-1.7021,0.0,0.0,0.0,0.0,0.0,0.0,0.0,-2.0388,-2.0681,-2.0922,0.0,-2.1109,0.0,-2.1109,-2.1109,-2.1109,0.0,-2.1109,-2.1109,-2.1109,-2.1109,-2.1109,-2.1109,-2.1109,-2.1109,-2.1109,-2.1109,-2.1109,-2.1109,-2.1109,-2.1109,-2.1109,-2.1109,-2.1109,-2.1109,0.0,-2.1109,-2.1109,-2.1109,-2.1109,-2.1109,-2.1109,-2.1109,-2.1109,-2.1109,-2.1109,-2.1109,-2.1109,-2.1109,-2.1109,-2.1109,-2.1109,-2.1109,-2.1109,-2.1109,-2.1109,-2.1109,-2.1109,-2.1109,-2.1109,-2.1109,-2.1109,-2.1109,-2.0788,-2.0441,-2.0267,-1.9907,-1.9559,-1.9399,-1.9933,-2.0481,-2.0641,-2.1269,-2.1804,-2.1964,-2.1991,-2.1871,-2.1537,-2.139,-2.1309,-2.1309,-2.1189,-2.1109,-2.1109,-2.1109,-2.1109,-2.1109,-2.1109,-2.1109,-2.1109,-2.1109,-2.139,-2.1977,-2.2111,-2.2552,-2.3327,-2.3581,-2.3888,-2.4209,-2.4329,-2.4476,-0.8872,-0.894,-0.9596,-1.2327,-1.3337,-1.4254,-1.6469,-1.7237,-1.7208,-1.6286,0.0,0.0,-1.5538,0.0,-1.7061,-1.7675,0.0,-2.0174,-2.0508,-2.0842,-2.1069,-2.1109,-2.1109,-2.1109,-2.1109,-2.1109,-2.1096,-2.1056,-2.1082,-2.1109,-2.1109,-2.1069,-2.1069,-2.1109,-2.1109,-2.1109,-2.1109,-2.1109,-2.1109,-2.1109,-2.1109,-2.1109,-2.1109,-2.1109,-2.1109,-2.1109,0.0,0.0,-2.1109,-2.1109,-2.1109,-2.1109,-2.1109,-2.1109,-2.1109,-2.1109,-2.1109,-2.1109,-2.1109,-2.1109,-2.1109,-2.1109,-2.1109,-2.1109,-2.1109,-2.1109,-2.1109,-2.1109,-2.1109,-2.1109,-2.1109,-2.1109,-2.1109,-2.1109,-2.0722,-2.0334,-2.0254,-1.9773,-1.9372,-1.9412,-2.0067,-2.0641,-2.0722,-2.143,-2.2017,-2.2098,-2.2098,-2.2098,-2.2098,-2.1777,-2.155,-2.155,-2.1283,-2.1109,-2.1109,-2.1109,-2.1109,-2.1109,-2.1109,-2.1109,-2.1109,-2.1149,-2.1443,-2.2031,-2.2325,-2.2792,-2.3447,-2.3955,-2.4222,-2.4262,-2.4516,-2.4636,-0.8838,-0.894,-0.9404,-1.1295,-1.2793,-1.4077,-1.5423,-1.6329,0.0,0.0,0.0,-1.4028,-1.4028,0.0,0.0,-1.6433,0.0,0.0,0.0,0.0,0.0,0.0,0.0,0.0,0.0,0.0,0.0,0.0,0.0,-2.1109,-2.1109,-2.0882,-2.0855,-2.1096,-2.1109,-2.1109,-2.1109,-2.1109,-2.1109,-2.1109,-2.1109,-2.1109,-2.1109,-2.1109,-2.1109,-2.1109,-2.1109,0.0,-2.1109,-2.1109,-2.1109,-2.1109,-2.1109,-2.1109,-2.1109,-2.1109,-2.1109,-2.1109,-2.1109,-2.1109,-2.1109,-2.1109,-2.1109,-2.1109,-2.1109,-2.1109,-2.1109,-2.1109,-2.1109,-2.1109,-2.1109,-2.1109,-2.1109,-2.1109,-2.1029,-2.0828,-2.0334,-1.9773,-1.9439,-1.9679,-2.004,-2.0468,-2.0949,-2.1563,-2.2151,-2.2632,-2.2712,-2.2712,-2.2712,-2.2031,-2.155,-2.155,-2.1283,-2.1109,-2.1109,-2.1109,-2.1109,-2.1109,-2.1109,-2.1109,-2.1109,-2.1349,-2.175,-2.2338,-2.2632,-2.3207,-2.4048,-2.4155,-2.4329,-2.4569,-2.4609,-2.4636,-0.8662,-0.8818,-0.9286,-1.0888,-1.178,-1.2704,-1.3982,0.0,0.0,0.0,0.0,0.0,-1.3173,0.0,0.0,0.0,0.0,0.0,0.0,0.0,0.0,0.0,0.0,0.0,0.0,0.0,0.0,0.0,0.0,0.0,-2.0869,-2.0895,-2.0962,-2.1109,-2.1109,-2.1109,-2.1109,-2.1109,-2.1109,-2.1109,-2.1109,-2.1109,-2.1109,-2.1109,-2.1109,-2.1109,-2.1109,0.0,-2.1109,-2.1109,-2.1109,-2.1109,-2.1109,-2.1109,-2.1109,-2.1109,-2.1109,-2.1109,-2.1109,-2.1109,-2.1109,-2.1109,-2.1109,-2.1109,-2.1109,-2.1109,-2.1109,-2.1109,-2.1109,-2.1109,-2.1109,-2.1109,-2.1109,-2.1109,-2.0989,-2.0762,-2.0334,-2.0013,-1.9853,-2.0,-2.0388,-2.0828,-2.1269,-2.183,-2.2365,-2.2792,-2.2859,-2.2859,-2.2859,-2.2352,-2.1951,-2.179,-2.1376,-2.1109,-2.1109,-2.1256,-2.1336,-2.1336,-2.1483,-2.1496,-2.1349,-2.1617,-2.1977,-2.2405,-2.2873,-2.346,-2.4209,-2.4356,-2.4502,-2.4636,-2.4636,-2.4636,-0.852,-0.873,-0.9154,-1.0351,-1.0891,-1.1283,-1.2245,-1.2797,0.0,0.0,0.0,0.0,0.0,0.0,0.0,0.0,0.0,0.0,0.0,0.0,0.0,0.0,0.0,0.0,0.0,0.0,0.0,0.0,0.0,0.0,-2.0468,-2.0762,-2.0949,-2.1015,-2.1015,-2.1042,-2.1109,-2.1109,-2.1109,-2.1109,-2.1109,-2.1109,-2.1109,-2.1109,-2.1109,-2.1109,-2.1109,0.0,0.0,-2.1109,-2.1109,-2.1109,-2.1109,-2.1109,-2.1109,-2.1109,-2.1109,-2.1109,-2.1109,-2.1109,-2.1109,-2.1109,-2.1109,-2.1109,-2.1109,-2.1109,-2.1109,-2.1109,-2.1109,-2.1109,-2.1109,-2.1109,-2.1109,-2.1109,-2.0895,-2.0628,-2.0454,-2.0321,-2.0254,-2.0307,-2.0748,-2.1203,-2.1496,-2.2031,-2.2512,-2.2819,-2.2859,-2.2859,-2.2859,-2.2605,-2.2311,-2.2017,-2.151,-2.1176,-2.1109,-2.1443,-2.1643,-2.1643,-2.1924,-2.2004,-2.1844,-2.2058,-2.2338,-2.2699,-2.3247,-2.3768,-2.4302,-2.4529,-2.4636,-2.4636,-2.4636,-2.4636,-0.8615,-0.8811,-0.894,-0.9044,-1.0131,-1.0864,-1.0032,0.0,0.0,0.0,0.0,0.0,0.0,0.0,0.0,0.0,0.0,0.0,0.0,0.0,0.0,0.0,0.0,0.0,0.0,0.0,0.0,0.0,0.0,0.0,-1.9907,-2.016,-2.0441,-2.0708,-2.0722,-2.0842,-2.1109,-2.1109,-2.1109,-2.1109,-2.1109,-2.1109,-2.1109,-2.1109,-2.1109,-2.1109,-2.1109,0.0,0.0,-2.1109,-2.1109,-2.1109,-2.1109,-2.1109,-2.1109,-2.1109,-2.1109,-2.1109,-2.1109,-2.1109,-2.1109,-2.1109,-2.1109,-2.1109,-2.1109,-2.1109,-2.1109,-2.1109,-2.1109,-2.1109,-2.1109,-2.1109,-2.1109,-2.1109,-2.0895,-2.0735,-2.0975,-2.0615,-2.0307,-2.0588,-2.0895,-2.1203,-2.1496,-2.2031,-2.2512,-2.2819,-2.2859,-2.2859,-2.2859,-2.2605,-2.2311,-2.2017,-2.1697,-2.1403,-2.1136,-2.163,-2.1951,-2.1951,-2.2218,-2.2485,-2.2726,-2.2766,-2.306,-2.3634,-2.3955,-2.4275,-2.4596,-2.4623,-2.4636,-2.4636,-2.4636,-2.4636,-0.8323,-0.8743,-0.9164,-0.8981,-0.9911,-1.083,-1.0272,0.0,0.0,-1.1927,-1.2087,-1.252,-1.3365,-1.3487,0.0,0.0,0.0,0.0,0.0,0.0,0.0,0.0,0.0,0.0,0.0,0.0,0.0,0.0,0.0,0.0,-2.0067,-2.0347,-2.0548,-2.0668,-2.0681,-2.0815,-2.1109,-2.1109,-2.1109,-2.1109,-2.1109,-2.1109,-2.1109,-2.1109,-2.1109,-2.1109,-2.1109,0.0,0.0,-2.1109,-2.1109,-2.1109,-2.1109,-2.1109,-2.1109,-2.1109,-2.1109,-2.1109,-2.1109,-2.1109,-2.1109,-2.1109,-2.1109,-2.1109,-2.1109,-2.1109,-2.1109,-2.1109,-2.1109,-2.1109,-2.1109,-2.1109,-2.1109,-2.1109,-2.1029,-2.0962,-2.1082,-2.0922,-2.0842,-2.1149,-2.1296,-2.1523,-2.1991,-2.2271,-2.2512,-2.2819,-2.2859,-2.2859,-2.2859,-2.2752,-2.2512,-2.2031,-2.1884,-2.1764,-2.1643,-2.2178,-2.2592,-2.2779,-2.2899,-2.302,-2.314,-2.2966,-2.3153,-2.3754,-2.3888,-2.4168,-2.4636,-2.4636,-2.4636,-2.4636,-2.4636,-2.4636,-0.9361,-0.9792,-1.0308,-1.017,-1.0808,-1.1299,0.0,0.0,-1.219,-1.1891,-1.207,-1.2512,-1.3171,-1.3417,-1.4471,-1.7586,0.0,-2.0232,0.0,0.0,0.0,0.0,0.0,0.0,0.0,0.0,0.0,0.0,0.0,0.0,0.0,-2.0561,-2.0681,-2.0681,-2.0588,-2.0735,-2.1109,-2.1109,-2.1109,-2.1109,-2.1109,-2.1109,-2.1109,-2.1109,-2.1109,-2.1109,0.0,0.0,0.0,-2.1109,-2.1109,-2.1109,-2.1109,-2.1109,-2.1109,-2.1109,-2.1109,-2.1109,-2.1109,-2.1109,-2.1109,-2.1109,-2.1109,-2.1109,-2.1109,-2.1109,-2.1109,-2.1109,-2.1109,-2.1109,-2.1109,-2.1109,-2.1109,-2.1109,-2.1109,-2.1109,-2.1109,-2.1176,-2.1296,-2.151,-2.1697,-2.1937,-2.2352,-2.2485,-2.2619,-2.2832,-2.2859,-2.2859,-2.2859,-2.2859,-2.2672,-2.2164,-2.2191,-2.2178,-2.2004,-2.2605,-2.3126,-2.3434,-2.346,-2.35,-2.3581,-2.3207,-2.3287,-2.3888,-2.3901,-2.4142,-2.4636,-2.4636,-2.4636,-2.4636,-2.4636,-2.469,-1.2194,-1.2495,-1.2511,-1.3153,-1.2836,-1.2173,0.0,-1.1561,-1.1718,-1.1006,-1.1613,-1.2305,-1.2305,-1.3882,-1.5591,-1.6935,-1.9095,0.0,0.0,0.0,0.0,0.0,0.0,0.0,0.0,0.0,0.0,0.0,0.0,0.0,0.0,-2.0681,-2.0681,-2.0681,-2.0388,-2.0521,-2.1096,-2.1109,-2.1109,-2.1109,-2.1109,-2.1109,-2.1109,-2.1109,-2.1109,0.0,0.0,0.0,0.0,-2.1109,-2.1109,-2.1109,-2.1109,-2.1109,-2.1109,-2.1109,-2.1109,-2.1109,-2.1109,-2.1109,-2.1109,-2.1109,-2.1109,-2.1109,-2.1109,-2.1109,-2.1109,-2.1109,-2.1109,-2.1109,-2.1109,-2.1109,-2.1109,-2.1109,-2.1109,-2.1109,-2.1109,-2.1336,-2.155,-2.155,-2.2017,-2.2405,-2.2418,-2.2659,-2.2859,-2.2859,-2.2859,-2.2859,-2.2859,-2.2859,-2.2752,-2.2445,-2.2672,-2.2619,-2.2031,-2.2806,-2.3447,-2.3754,-2.3768,-2.3888,-2.4182,-2.3634,-2.3594,-2.4182,-2.4195,-2.4342,-2.4636,-2.4636,-2.4636,-2.4636,-2.4636,-2.4796,-1.1121,-1.1317,-1.1702,-1.1502,-1.199,-1.2346,-1.163,-1.2147,-1.2552,-1.1685,-1.2435,-1.3389,-1.3862,-1.4638,-1.611,-1.9007,-1.9593,0.0,0.0,0.0,0.0,0.0,0.0,0.0,0.0,0.0,0.0,0.0,0.0,0.0,0.0,-2.0788,-2.0681,-2.0681,-2.0588,-2.0722,-2.1109,-2.1109,-2.1109,-2.1109,-2.1109,-2.1109,-2.1109,-2.1109,0.0,0.0,0.0,0.0,0.0,-2.1109,-2.1109,-2.1109,-2.1109,-2.1109,-2.1109,-2.1109,-2.1109,-2.1109,-2.1109,-2.1109,-2.1109,-2.1109,-2.1109,-2.1109,-2.1109,-2.1109,-2.1109,-2.1109,-2.1109,-2.1109,-2.1109,-2.1109,-2.1109,-2.1109,-2.1109,-2.1109,-2.1109,-2.1336,-2.1617,-2.1804,-2.2164,-2.2485,-2.2686,-2.2806,-2.2859,-2.2859,-2.2859,-2.2859,-2.2859,-2.2859,-2.2752,-2.2458,-2.2686,-2.2873,-2.2899,-2.3354,-2.3834,-2.4329,-2.3995,-2.3901,-2.4195,-2.3434,-2.338,-2.4182,-2.4008,-2.4155,-2.4636,-2.4636,-2.4636,-2.4636,-2.4636,-2.4903,-1.3087,-1.2956,-1.2972,-1.2791,-1.2956,-1.3025,-1.2421,-1.2974,-1.3376,-1.2739,-1.3356,-1.4151,-1.4772,-1.5169,-1.6386,-1.9127,-1.9373,0.0,0.0,0.0,0.0,0.0,0.0,0.0,0.0,0.0,0.0,0.0,0.0,0.0,0.0,-2.0935,-2.0842,-2.0842,-2.0735,-2.0815,-2.1109,-2.1109,-2.1109,-2.1109,-2.1109,-2.1109,-2.1109,-2.1109,0.0,0.0,0.0,0.0,0.0,-2.1109,-2.1109,-2.1109,-2.1109,-2.1109,-2.1109,-2.1109,-2.1109,-2.1109,-2.1109,-2.1109,-2.1109,-2.1109,-2.1109,-2.1109,-2.1109,-2.1109,-2.1109,-2.1109,-2.1109,-2.1109,-2.1109,-2.1109,-2.1109,-2.1109,-2.1189,-2.1269,-2.1269,-2.159,-2.1937,-2.2111,-2.2378,-2.2645,-2.2832,-2.2859,-2.2859,-2.2859,-2.2859,-2.2859,-2.2859,-2.2859,-2.2792,-2.2605,-2.2752,-2.2993,-2.33,-2.3607,-2.3928,-2.4289,-2.3968,-2.3808,-2.3875,-2.334,-2.3354,-2.4022,-2.3968,-2.4168,-2.4636,-2.4636,-2.4636,-2.4636,-2.4756,-2.5064,0.0,-1.65,-1.5628,-1.6122,-1.5177,-1.413,-1.3764,-1.403,0.0,-1.3912,-1.4315,-1.488,-1.5441,-1.5859,-1.6656,-1.7954,-1.8898,-2.0488,0.0,0.0,0.0,0.0,0.0,0.0,0.0,0.0,0.0,0.0,0.0,0.0,0.0,-2.1109,-2.1109,-2.1109,-2.0855,-2.0842,-2.1109,-2.1109,-2.1109,-2.1109,-2.1109,-2.1109,-2.1109,-2.1109,0.0,0.0,0.0,0.0,0.0,-2.1109,-2.1109,-2.1109,-2.1109,-2.1109,-2.1109,-2.1109,-2.1109,-2.1109,-2.1109,-2.1109,-2.1109,-2.1109,-2.1109,-2.1109,-2.1109,-2.1109,-2.1109,-2.1109,-2.1109,-2.1109,-2.1109,-2.1122,-2.1149,-2.1149,-2.1363,-2.159,-2.159,-2.2017,-2.2418,-2.2418,-2.2659,-2.2859,-2.2859,-2.2859,-2.2859,-2.2859,-2.2859,-2.2859,-2.2859,-2.2859,-2.2859,-2.2859,-2.2859,-2.2979,-2.3273,-2.3581,-2.3768,-2.3768,-2.3794,-2.3661,-2.3367,-2.3367,-2.35,-2.3794,-2.4088,-2.4369,-2.4636,-2.4636,-2.4636,-2.4649,-2.4943,-2.5237,-1.765,0.0,-1.5062,-1.4951,-1.4941,-1.4914,0.0,-1.4912,-1.5029,-1.536,-1.6333,-1.7398,-1.8328,-1.8745,-1.9393,-2.0805,-2.1192,-2.1973,0.0,0.0,0.0,0.0,0.0,0.0,0.0,0.0,0.0,0.0,0.0,0.0,0.0,-2.1109,-2.1109,-2.1109,-2.1042,-2.1042,-2.1109,-2.1109,-2.1109,-2.1109,-2.1109,-2.1109,-2.1109,-2.1109,0.0,0.0,0.0,0.0,-2.1109,-2.1109,-2.1109,-2.1109,-2.1109,-2.1109,-2.1109,-2.1109,-2.1109,-2.1109,-2.1109,-2.1109,-2.1109,-2.1109,-2.1109,-2.1109,-2.1109,-2.1109,-2.1109,-2.1109,-2.1109,-2.1109,-2.1109,-2.1283,-2.1443,-2.1443,-2.167,-2.1884,-2.1884,-2.2164,-2.2418,-2.2418,-2.2659,-2.2859,-2.2859,-2.2859,-2.2859,-2.2859,-2.2859,-2.2859,-2.2859,-2.2859,-2.2859,-2.2859,-2.2859,-2.2886,-2.2966,-2.346,-2.3768,-2.3768,-2.3981,-2.3968,-2.3674,-2.3661,-2.3808,-2.4102,-2.4382,-2.4569,-2.4636,-2.4636,-2.4636,-2.4649,-2.4943,-2.5237,-1.7658,-1.7316,-1.6843,-1.6689,-1.6255,-1.593,-1.6104,-1.5687,-1.5444,-1.6161,-1.7139,-1.8141,-1.868,-1.9443,-2.0211,-2.1226,-2.1849,-2.291,0.0,0.0,0.0,0.0,0.0,0.0,0.0,0.0,0.0,0.0,0.0,0.0,0.0,-2.1109,-2.1109,-2.1109,-2.1109,-2.1109,-2.1109,-2.1109,-2.1109,-2.1109,-2.1109,-2.1109,-2.1109,-2.1109,-2.1109,0.0,0.0,0.0,-2.1109,-2.1109,-2.1109,-2.1109,-2.1109,-2.1109,-2.1109,-2.1109,-2.1109,-2.1109,-2.1109,-2.1109,-2.1109,-2.1109,-2.1109,-2.1109,-2.1109,-2.1109,-2.1109,-2.1109,-2.1109,-2.1149,-2.1269,-2.143,-2.159,-2.1724,-2.1977,-2.2178,-2.2178,-2.2418,-2.2619,-2.2619,-2.2752,-2.2859,-2.2859,-2.2859,-2.2859,-2.2859,-2.2859,-2.2859,-2.2859,-2.2859,-2.2859,-2.2859,-2.2859,-2.2859,-2.2859,-2.342,-2.3714,-2.3581,-2.3968,-2.4075,-2.3781,-2.3901,-2.4102,-2.4396,-2.4556,-2.4636,-2.4636,-2.4636,-2.4636,-2.4649,-2.5077,-2.5358,-1.7476,-1.855,-1.9554,-1.9339,-1.8155,-1.7111,-1.761,-1.6696,-1.5962,-1.6825,-1.7795,-1.8617,0.0,-1.9802,0.0,-2.0879,-2.1614,-2.3152,0.0,0.0,0.0,0.0,0.0,0.0,0.0,0.0,0.0,0.0,0.0,0.0,0.0,-2.1109,-2.1109,-2.1109,-2.1109,-2.1109,-2.1109,-2.1109,-2.1109,-2.1109,-2.1109,-2.1109,-2.1109,-2.1109,-2.1109,0.0,0.0,0.0,-2.1109,-2.1109,-2.1109,-2.1109,-2.1109,-2.1109,-2.1109,-2.1109,-2.1109,-2.1109,-2.1109,-2.1109,-2.1122,-2.1162,-2.1176,-2.1189,-2.1229,-2.1243,-2.1243,-2.1243,-2.1216,-2.1243,-2.1537,-2.1657,-2.175,-2.1991,-2.2271,-2.2485,-2.2485,-2.2686,-2.2859,-2.2859,-2.2859,-2.2859,-2.2859,-2.2859,-2.2859,-2.2859,-2.2859,-2.2859,-2.2859,-2.2859,-2.2859,-2.2859,-2.2859,-2.2886,-2.2926,-2.3447,-2.3688,-2.3474,-2.3968,-2.4155,-2.3915,-2.4142,-2.4382,-2.4636,-2.4636,-2.4636,-2.4636,-2.4636,-2.4636,-2.4649,-2.5237,-2.5518,-1.7391,-1.9403,-2.1276,-2.0093,-1.9362,-1.906,-1.9582,0.0,-1.7832,-1.8736,-1.9942,0.0,0.0,-2.3273,0.0,0.0,0.0,-2.1705,0.0,0.0,0.0,0.0,0.0,0.0,0.0,0.0,0.0,0.0,0.0,0.0,0.0,-2.1109,-2.1109,-2.1109,-2.1109,-2.1109,-2.1109,-2.1109,-2.1109,-2.1109,-2.1109,-2.1109,-2.1109,-2.1109,-2.1109,0.0,0.0,-2.1109,-2.1109,-2.1109,-2.1109,-2.1109,-2.1109,-2.1109,-2.1109,-2.1109,-2.1109,-2.1109,-2.1109,-2.1109,-2.1149,-2.1403,-2.1483,-2.1537,-2.1777,-2.1844,-2.1844,-2.1844,-2.167,-2.155,-2.1844,-2.2098,-2.2298,-2.2338,-2.2579,-2.2792,-2.2792,-2.2832,-2.2859,-2.2859,-2.2859,-2.2859,-2.2859,-2.2859,-2.2859,-2.2859,-2.2859,-2.2859,-2.2859,-2.2859,-2.2859,-2.2859,-2.2859,-2.2966,-2.3233,-2.3567,-2.3861,-2.4062,-2.4382,-2.4556,-2.4502,-2.4543,-2.4596,-2.4636,-2.4636,-2.4636,-2.4636,-2.4636,-2.4636,-2.4649,-2.5237,-2.5518,-1.706,-1.8599,-2.028,-2.0834,-2.1823,-2.2593,0.0,0.0,0.0,0.0,0.0,0.0,0.0,0.0,0.0,0.0,0.0,0.0,0.0,0.0,0.0,0.0,0.0,0.0,0.0,0.0,0.0,0.0,0.0,0.0,0.0,0.0,-2.1109,-2.1109,-2.1109,-2.1109,-2.1109,-2.1109,-2.1109,-2.1109,-2.1109,-2.1109,-2.1109,-2.1109,-2.1109,-2.1109,0.0,-2.1109,-2.1109,-2.1109,-2.1109,-2.1109,-2.1109,-2.1109,-2.1109,-2.1109,-2.1109,-2.1109,-2.1109,-2.1216,-2.1376,-2.151,-2.1657,-2.1817,-2.1951,-2.1991,-2.2017,-2.2178,-2.2004,-2.1857,-2.2151,-2.2311,-2.2458,-2.2619,-2.2766,-2.2859,-2.2859,-2.2859,-2.2859,-2.2859,-2.2859,-2.2859,-2.2859,-2.2859,-2.2859,-2.2859,-2.2859,-2.2859,-2.2859,-2.2859,-2.2926,-2.31,-2.3113,-2.3233,-2.3541,-2.3834,-2.4128,-2.4422,-2.4569,-2.4636,-2.4636,-2.4636,-2.4636,-2.4636,-2.4636,-2.4636,-2.4636,-2.4636,-2.4636,-2.4649,-2.5237,-2.5518,-1.6429,-1.7518,-1.9066,-2.1018,-2.2798,0.0,0.0,0.0,0.0,0.0,0.0,0.0,0.0,0.0,0.0,0.0,0.0,0.0,0.0,0.0,0.0,0.0,0.0,0.0,0.0,0.0,0.0,0.0,0.0,0.0,0.0,0.0,-2.1109,-2.1109,-2.1109,-2.1109,-2.1109,-2.1109,-2.1109,-2.1109,-2.1109,-2.1109,-2.1109,-2.1109,-2.1109,-2.1109,-2.1109,-2.1109,-2.1109,-2.1109,-2.1109,-2.1109,-2.1109,-2.1109,-2.1109,-2.1109,-2.1109,-2.1109,-2.1109,-2.1309,-2.1563,-2.163,-2.1857,-2.2098,-2.2164,-2.2191,-2.2231,-2.2458,-2.2365,-2.2245,-2.2458,-2.2525,-2.2579,-2.2806,-2.2859,-2.2859,-2.2859,-2.2859,-2.2859,-2.2859,-2.2859,-2.2859,-2.2859,-2.2859,-2.2859,-2.2859,-2.2859,-2.2859,-2.2859,-2.2859,-2.2979,-2.33,-2.3327,-2.3474,-2.3848,-2.4142,-2.4396,-2.4623,-2.4636,-2.4636,-2.4636,-2.4636,-2.4636,-2.4636,-2.4636,-2.4636,-2.4636,-2.4636,-2.4676,-2.4756,-2.5277,-2.5545,-1.5166,-1.6917,-1.9041,-2.0154,-2.0339,0.0,-2.3444,-2.231,0.0,-2.209,0.0,0.0,0.0,0.0,0.0,0.0,0.0,0.0,0.0,0.0,0.0,0.0,0.0,0.0,0.0,0.0,0.0,0.0,0.0,0.0,0.0,0.0,0.0,-2.1109,-2.1109,-2.1109,-2.1109,-2.1109,-2.1109,-2.1109,-2.1109,-2.1109,-2.1109,-2.1109,-2.1109,-2.1109,-2.1109,-2.1109,-2.1109,-2.1109,-2.1109,-2.1109,-2.1109,-2.1109,-2.1109,-2.1109,-2.1109,-2.1109,-2.1109,-2.1309,-2.159,-2.1871,-2.2151,-2.2432,-2.2712,-2.2806,-2.2806,-2.2819,-2.2819,-2.2806,-2.2819,-2.2832,-2.2832,-2.2859,-2.2859,-2.2859,-2.2859,-2.2859,-2.2859,-2.2859,-2.2859,-2.2859,-2.2859,-2.2859,-2.2859,-2.2859,-2.2859,-2.2859,-2.2859,-2.2859,-2.2979,-2.33,-2.3327,-2.3554,-2.4128,-2.4436,-2.4609,-2.4636,-2.4636,-2.4636,-2.4636,-2.4636,-2.4636,-2.4636,-2.4636,-2.4636,-2.4636,-2.4636,-2.4783,-2.505,-2.5371,-2.5665,-1.3456,-1.4497,-1.6215,-1.8004,-1.9081,0.0,0.0,-2.4594,-2.4791,0.0,0.0,0.0,0.0,0.0,0.0,0.0,0.0,0.0,0.0,0.0,0.0,0.0,0.0,0.0,0.0,0.0,0.0,0.0,0.0,0.0,0.0,0.0,0.0,-2.1109,-2.1109,-2.1109,-2.1109,-2.1109,-2.1109,-2.1109,-2.1109,-2.1109,-2.1109,-2.1109,-2.1109,-2.1109,-2.1109,-2.1109,-2.1109,-2.1109,-2.1109,-2.1109,-2.1109,-2.1109,-2.1109,-2.1109,-2.1109,-2.1136,-2.1323,-2.1577,-2.1871,-2.2164,-2.2458,-2.2712,-2.2832,-2.2859,-2.2859,-2.2859,-2.2859,-2.2859,-2.2859,-2.2859,-2.2859,-2.2859,-2.2859,-2.2859,-2.2859,-2.2859,-2.2859,-2.2859,-2.2859,-2.2859,-2.2859,-2.2859,-2.2859,-2.2859,-2.2859,-2.2859,-2.2859,-2.3033,-2.3273,-2.3567,-2.3928,-2.4235,-2.4449,-2.4569,-2.4636,-2.4636,-2.4636,-2.4636,-2.4636,-2.4636,-2.4636,-2.4636,-2.4636,-2.4636,-2.4636,-2.4636,-2.4783,-2.509,-2.5384,-2.5678,-1.2598,-1.33,-1.4825,-1.6624,0.0,0.0,-2.3031,-2.5076,-2.6235,0.0,0.0,0.0,0.0,0.0,0.0,0.0,0.0,0.0,0.0,0.0,0.0,0.0,0.0,0.0,0.0,0.0,0.0,0.0,0.0,0.0,0.0,0.0,0.0,0.0,-2.1109,-2.1109,-2.1109,-2.1109,-2.1109,-2.1109,-2.1109,-2.1109,-2.1109,-2.1109,-2.1109,-2.1109,-2.1109,-2.1109,-2.1109,-2.1109,-2.1109,-2.1109,-2.1109,-2.1109,-2.1122,-2.1216,-2.1256,-2.1296,-2.159,-2.1884,-2.2151,-2.2352,-2.2619,-2.2859,-2.2859,-2.2859,-2.2859,-2.2859,-2.2859,-2.2859,-2.2859,-2.2859,-2.2859,-2.2859,-2.2859,-2.2859,-2.2859,-2.2859,-2.2859,-2.2859,-2.2859,-2.2859,-2.2859,-2.2859,-2.2859,-2.2859,-2.2939,-2.3006,-2.3006,-2.3273,-2.3581,-2.3875,-2.4342,-2.4636,-2.4636,-2.4636,-2.4636,-2.4636,-2.4636,-2.4636,-2.4636,-2.4636,-2.4636,-2.4636,-2.4636,-2.4636,-2.4636,-2.473,-2.493,-2.5224,-2.5518,-2.5812,-1.2721,-1.3769,-1.5509,0.0,0.0,0.0,-2.2057,-2.3166,-2.4434,0.0,0.0,0.0,0.0,0.0,0.0,0.0,0.0,0.0,0.0,0.0,0.0,0.0,0.0,0.0,0.0,0.0,0.0,0.0,0.0,0.0,0.0,0.0,0.0,0.0,-2.1109,-2.1109,-2.1109,-2.1109,-2.1109,-2.1109,-2.1109,-2.1109,-2.1109,-2.1109,-2.1109,-2.1109,-2.1109,-2.1109,-2.1109,-2.1109,-2.1109,-2.1109,-2.1109,-2.1109,-2.1149,-2.1443,-2.155,-2.159,-2.1884,-2.2178,-2.2418,-2.2418,-2.2619,-2.2859,-2.2859,-2.2859,-2.2859,-2.2859,-2.2859,-2.2859,-2.2859,-2.2859,-2.2859,-2.2859,-2.2859,-2.2859,-2.2859,-2.2859,-2.2859,-2.2859,-2.2859,-2.2859,-2.2859,-2.2859,-2.2859,-2.2859,-2.3126,-2.3327,-2.334,-2.3594,-2.3888,-2.4182,-2.4462,-2.4636,-2.4636,-2.4636,-2.4636,-2.4636,-2.4636,-2.4636,-2.4636,-2.4636,-2.4636,-2.4636,-2.4636,-2.4636,-2.4636,-2.493,-2.5224,-2.5518,-2.5825,-2.6106,-1.185,-1.2893,0.0,0.0,0.0,0.0,0.0,-2.3359,0.0,0.0,0.0,0.0,0.0,0.0,0.0,0.0,0.0,0.0,0.0,0.0,0.0,0.0,0.0,0.0,0.0,0.0,0.0,0.0,0.0,0.0,0.0,0.0,0.0,0.0,-2.1109,-2.1109,-2.1109,-2.1109,-2.1109,-2.1109,-2.1109,-2.1109,-2.1109,-2.1109,-2.1109,-2.1109,-2.1109,-2.1109,-2.1109,-2.1109,-2.1109,-2.1109,-2.1109,-2.1109,-2.1149,-2.1443,-2.155,-2.163,-2.2124,-2.2352,-2.2458,-2.2659,-2.2792,-2.2859,-2.2859,-2.2859,-2.2859,-2.2859,-2.2859,-2.2859,-2.2859,-2.2859,-2.2859,-2.2859,-2.2859,-2.2859,-2.2859,-2.2859,-2.2859,-2.2859,-2.2859,-2.2859,-2.2859,-2.2859,-2.2859,-2.2859,-2.3126,-2.3474,-2.3888,-2.4022,-2.4182,-2.4476,-2.4583,-2.4636,-2.4636,-2.4636,-2.4636,-2.4636,-2.4636,-2.4031,-2.2509,-2.387,-2.3883,-2.2509,-2.387,-2.4636,-2.4636,-2.493,-2.5224,-2.5518,-2.5825,-2.6106,-1.2421,-1.3307,0.0,0.0,0.0,0.0,0.0,0.0,0.0,0.0,0.0,0.0,0.0,0.0,0.0,0.0,0.0,0.0,0.0,0.0,0.0,0.0,0.0,0.0,0.0,0.0,0.0,0.0,0.0,0.0,0.0,0.0,0.0,-2.1235,-2.1109,-2.1109,-2.1109,-2.1109,-2.1109,-2.1109,-2.1109,-2.1109,-2.1109,-2.1109,-2.1109,-2.1109,-2.1109,-2.1109,-2.1109,-2.1109,-2.1109,-2.1109,-2.1109,-2.1189,-2.1323,-2.1617,-2.1804,-2.1964,-2.2432,-2.2592,-2.2619,-2.2806,-2.2859,-2.2859,-2.2859,-2.2859,-2.2859,-2.2859,-2.2859,-2.2859,-2.2859,-2.2859,-2.2859,-2.2859,-2.2859,-2.2859,-2.2859,-2.2859,-2.2859,-2.2859,-2.2859,-2.2859,-2.2859,-2.2859,-2.2899,-2.3033,-2.3407,-2.3848,-2.4315,-2.4382,-2.4436,-2.4623,-2.4636,-2.4636,-2.4636,-2.4636,-2.4636,-2.4636,-2.387,-2.2509,-2.0542,-2.3116,-2.3722,-2.1601,-2.3574,-2.4636,-2.4636,-2.505,-2.5344,-2.5518,-2.5932,-2.6226,-1.376,0.0,0.0,0.0,0.0,0.0,0.0,0.0,0.0,0.0,0.0,0.0,0.0,0.0,0.0,0.0,0.0,0.0,0.0,0.0,0.0,0.0,0.0,0.0,0.0,0.0,0.0,0.0,0.0,0.0,0.0,-2.5741,-2.4394,-2.1235,-2.1109,-2.1109,-2.1109,-2.1109,-2.1109,-2.1109,-2.1109,-2.1109,-2.1109,-2.1109,-2.1109,-2.1109,-2.1109,-2.1109,-2.1109,-2.1109,-2.1109,-2.1109,-2.1136,-2.1309,-2.159,-2.1911,-2.2191,-2.2458,-2.2752,-2.2859,-2.2859,-2.2859,-2.2859,-2.2859,-2.2859,-2.2859,-2.2859,-2.2859,-2.2859,-2.2859,-2.2859,-2.2859,-2.2859,-2.2859,-2.2859,-2.2859,-2.2859,-2.2859,-2.2859,-2.2859,-2.2859,-2.2859,-2.2859,-2.2886,-2.302,-2.3354,-2.3861,-2.4302,-2.4596,-2.4636,-2.4636,-2.4636,-2.4636,-2.4636,-2.4636,-2.4636,-2.4488,-2.4327,-2.2657,-2.0542,-1.8421,-2.2049,-2.3116,-2.1141,-2.3264,-2.4341,-2.4367,-2.5086,-2.5378,-2.5251,-2.5962,-2.6228,-1.2716,-1.4135,0.0,0.0,0.0,0.0,0.0,0.0,0.0,0.0,0.0,0.0,0.0,0.0,0.0,0.0,0.0,0.0,0.0,0.0,0.0,0.0,0.0,0.0,0.0,0.0,0.0,0.0,0.0,0.0,-2.4178,-2.4178,-2.3201,-2.1109,-2.1109,-2.1109,-2.1109,-2.1109,-2.1109,0.0,-2.1109,-2.1109,-2.1109,-2.1109,-2.1109,-2.1109,-2.1109,-2.1109,-2.1109,-2.1109,-2.1109,-2.1136,-2.1363,-2.1496,-2.1617,-2.2138,-2.2365,-2.2458,-2.2752,-2.2859,-2.2859,-2.2859,-2.2859,-2.2859,-2.2859,-2.2859,-2.2859,-2.2859,-2.2859,-2.2859,-2.2859,-2.2859,-2.2859,-2.2859,-2.2859,-2.2859,-2.2859,-2.2859,-2.2859,-2.2859,-2.2859,-2.2859,-2.2859,-2.306,-2.3407,-2.3941,-2.4128,-2.4302,-2.4596,-2.4636,-2.4636,-2.4636,-2.4636,-2.4636,-2.4636,-2.4636,-2.3883,-2.236,-2.19,-1.993,-1.6294,-1.8572,-1.8874,-1.6904,-2.038,-2.2307,-2.2512,-2.4557,-2.4688,-2.3321,-2.5412,-2.5409,-1.307,0.0,0.0,0.0,0.0,0.0,0.0,0.0,0.0,0.0,0.0,0.0,0.0,0.0,0.0,0.0,0.0,0.0,0.0,0.0,0.0,0.0,0.0,0.0,0.0,0.0,0.0,0.0,0.0,-2.4532,-2.3698,-2.3574,-2.2841,-2.1109,-2.1109,-2.1109,-2.1109,-2.1109,-2.1109,-2.1109,-2.1109,-2.1109,-2.1109,-2.1109,-2.1109,-2.1109,-2.1109,-2.1109,-2.1109,-2.1109,-2.1189,-2.1336,-2.1496,-2.1724,-2.2004,-2.2311,-2.2512,-2.2645,-2.2806,-2.2859,-2.2859,-2.2859,-2.2859,-2.2859,-2.2859,-2.2859,-2.2859,-2.2859,-2.2859,-2.2859,-2.2859,-2.2859,-2.2859,-2.2859,-2.2859,-2.2859,-2.2859,-2.2859,-2.2859,-2.2859,-2.2979,-2.3086,-2.3086,-2.3447,-2.3848,-2.4155,-2.4329,-2.4462,-2.4623,-2.4636,-2.4636,-2.4636,-2.4636,-2.4179,-2.3264,-2.3116,-2.236,-2.0241,-1.9176,-1.7663,-1.554,-1.5693,-1.5693,-1.554,-1.9478,-2.1719,-2.1977,-2.4431,-2.4559,-2.2764,-2.5281,-2.5251,-1.3138,0.0,-1.6393,0.0,0.0,0.0,0.0,0.0,0.0,0.0,0.0,0.0,0.0,0.0,0.0,0.0,0.0,0.0,0.0,0.0,0.0,0.0,0.0,0.0,0.0,0.0,0.0,0.0,0.0,-2.3201,-2.3201,-2.3201,-2.2591,-2.1109,-2.1109,-2.1109,-2.1109,-2.1109,-2.1109,-2.1109,-2.1109,-2.1109,-2.1109,-2.1109,-2.1109,-2.1109,-2.1109,-2.1109,-2.1109,-2.1109,-2.1283,-2.155,-2.1603,-2.1951,-2.2432,-2.2472,-2.2645,-2.2859,-2.2859,-2.2859,-2.2859,-2.2859,-2.2859,-2.2859,-2.2859,-2.2859,-2.2859,-2.2859,-2.2859,-2.2859,-2.2859,-2.2859,-2.2859,-2.2859,-2.2899,-2.2926,-2.2873,-2.2899,-2.2939,-2.2939,-2.3193,-2.342,-2.3474,-2.3888,-2.4222,-2.4275,-2.4476,-2.4636,-2.4636,-2.4636,-2.4636,-2.4636,-2.4636,-2.3722,-2.1751,-2.1601,-2.0542,-1.827,-1.6447,-1.5387,-1.4927,-1.3414,-1.3259,-1.4935,-1.8723,-2.0827,-2.1578,-2.3513,-2.363,-2.2349,-2.466,-2.4602,0.0,0.0,-1.6647,0.0,0.0,0.0,0.0,0.0,0.0,0.0,0.0,0.0,0.0,0.0,0.0,0.0,0.0,0.0,0.0,0.0,0.0,0.0,0.0,0.0,0.0,0.0,0.0,0.0,-2.1475,-2.1475,-2.1475,-2.1475,-2.1362,-2.1109,-2.1109,-2.1109,-2.1109,-2.1109,-2.1109,-2.1109,-2.1109,-2.1109,-2.1109,-2.1109,-2.1109,-2.1109,-2.1109,-2.1109,-2.1109,-2.1109,-2.1283,-2.1577,-2.183,-2.2124,-2.2445,-2.2712,-2.2832,-2.2859,-2.2859,-2.2859,-2.2859,-2.2859,-2.2859,-2.2859,-2.2859,-2.2859,-2.2859,-2.2859,-2.2859,-2.2859,-2.2859,-2.2859,-2.2859,-2.2859,-2.3073,-2.3193,-2.2926,-2.3073,-2.326,-2.326,-2.35,-2.3794,-2.4048,-2.4155,-2.4289,-2.4543,-2.4609,-2.4636,-2.4636,-2.4636,-2.4636,-2.4636,-2.4636,-2.3722,-2.1751,-2.1601,-1.993,-1.6142,-1.5693,-1.4782,-1.2958,-1.2656,-1.2656,-1.2958,-1.5081,-1.7395,-1.9803,-2.0001,-2.0085,-2.0351,-2.2476,-2.2327,-1.1545,-1.4255,0.0,0.0,0.0,0.0,0.0,0.0,0.0,0.0,0.0,0.0,0.0,0.0,0.0,0.0,0.0,0.0,0.0,0.0,0.0,0.0,0.0,0.0,0.0,0.0,0.0,0.0,-2.1109,-2.1109,-2.1109,-2.1109,-2.1109,-2.1109,-2.1109,-2.1109,-2.1109,-2.1109,-2.1109,-2.1109,-2.1109,-2.1109,-2.1109,-2.1109,-2.1109,-2.1109,-2.1109,-2.1109,-2.1122,-2.1296,-2.1537,-2.1817,-2.2111,-2.2405,-2.2686,-2.2819,-2.2859,-2.2859,-2.2859,-2.2859,-2.2859,-2.2859,-2.2859,-2.2859,-2.2859,-2.2859,-2.2859,-2.2859,-2.2859,-2.2859,-2.2859,-2.2993,-2.3126,-2.3126,-2.3354,-2.3541,-2.3394,-2.3474,-2.3621,-2.3794,-2.3928,-2.4102,-2.4396,-2.4449,-2.4489,-2.4623,-2.4568,-2.4634,-2.4634,-2.4634,-2.4634,-2.4634,-2.4541,-2.36,-2.1222,-2.0414,-1.8118,-1.4022,-1.3868,-1.3414,-1.2501,-1.2501,-1.2501,-1.2501,-1.4475,-1.6181,-1.7669,-1.8602,-1.8827,-1.8109,-2.0231,-2.0059,0.0,0.0,0.0,0.0,0.0,0.0,0.0,0.0,0.0,0.0,0.0,0.0,0.0,0.0,0.0,0.0,0.0,0.0,0.0,0.0,0.0,0.0,0.0,0.0,0.0,0.0,0.0,0.0,-2.1109,-2.1109,-2.1109,-2.1109,-2.1109,-2.1109,-2.1109,-2.1109,-2.1109,-2.1109,-2.1109,-2.1109,-2.1109,-2.1109,-2.1109,-2.1109,-2.1109,-2.1109,-2.1109,-2.1109,-2.1136,-2.143,-2.1724,-2.2017,-2.2311,-2.2605,-2.2859,-2.2859,-2.2859,-2.2859,-2.2859,-2.2859,-2.2859,-2.2859,-2.2859,-2.2859,-2.2859,-2.2859,-2.2859,-2.2859,-2.2859,-2.2886,-2.2953,-2.3153,-2.334,-2.342,-2.3661,-2.3875,-2.3875,-2.3875,-2.3968,-2.4262,-2.4315,-2.4382,-2.4596,-2.4636,-2.4327,-2.3709,-2.3328,-2.2768,-2.166,-2.2157,-2.2655,-2.2992,-2.3366,-2.2756,-2.0731,-1.9108,-1.6465,-1.2811,-1.2501,-1.2501,-1.2501,-1.2501,-1.2501,-1.2501,-1.4022,-1.5261,-1.6256,-1.7205,-1.7244,-1.6647,-1.8281,-1.8118,0.0,0.0,0.0,0.0,0.0,0.0,0.0,0.0,0.0,0.0,0.0,0.0,0.0,0.0,0.0,0.0,0.0,0.0,0.0,0.0,0.0,0.0,0.0,0.0,0.0,0.0,0.0,0.0,-2.1109,-2.1109,-2.1109,-2.1109,-2.1109,-2.1109,-2.1109,-2.1109,-2.1109,-2.1109,-2.1109,-2.1109,-2.1109,-2.1109,-2.1109,-2.1109,-2.1109,-2.1109,-2.1109,-2.1109,-2.1136,-2.143,-2.1724,-2.2017,-2.2311,-2.2605,-2.2859,-2.2859,-2.2859,-2.2859,-2.2859,-2.2859,-2.2859,-2.2859,-2.2859,-2.2859,-2.2859,-2.2859,-2.2859,-2.2859,-2.2859,-2.2926,-2.322,-2.3313,-2.3394,-2.3688,-2.3968,-2.4182,-2.4182,-2.4182,-2.4262,-2.4556,-2.4609,-2.4623,-2.4636,-2.4636,-2.3709,-2.1233,-1.9788,-1.7442,-1.3604,-1.5354,-1.7435,-1.8723,-2.0016,-2.0743,-2.0572,-1.8276,-1.5429,-1.2656,-1.2501,-1.2501,-1.2501,-1.2501,-1.2501,-1.2501,-1.2656,-1.3886,-1.6256,-1.4221,-1.4385,-1.6647,-1.6647,-1.6647,0.0,0.0,0.0,0.0,0.0,0.0,0.0,0.0,0.0,0.0,0.0,0.0,0.0,0.0,0.0,0.0,0.0,0.0,0.0,0.0,0.0,0.0,0.0,0.0,0.0,0.0,0.0,0.0,0.0,-2.1109,-2.1109,-2.1109,-2.1109,-2.1109,-2.1109,-2.1109,-2.1109,-2.1109,-2.1109,-2.1109,-2.1109,-2.1109,-2.1109,-2.1109,-2.1109,-2.1109,-2.1109,-2.1216,-2.1416,-2.171,-2.2004,-2.2298,-2.2592,-2.2766,-2.2859,-2.2859,-2.2859,-2.2859,-2.2859,-2.216,-2.1321,-2.2572,-2.2022,-2.1321,-2.2572,-2.2859,-2.2859,-2.2859,-2.2859,-2.2939,-2.3247,-2.3474,-2.3443,-2.2568,-2.2448,-2.2214,-2.0854,-2.267,-2.3754,-2.1279,-2.1751,-2.2533,-2.2145,-2.2073,-2.2347,-2.3067,-2.0542,-1.7067,-1.3,-1.3369,-1.4197,-1.4678,-1.6688,-1.7331,-1.5531,-1.5701,-1.4952,-1.2656,-1.2501,-1.2501,-1.2501,-1.2501,-1.2501,-1.2501,-1.2501,-1.3113,-1.4062,-1.3436,-1.3591,-1.4541,-1.4541,-1.4541,0.0,0.0,0.0,0.0,0.0,0.0,0.0,0.0,0.0,0.0,0.0,0.0,0.0,0.0,0.0,0.0,0.0,0.0,0.0,0.0,0.0,0.0,0.0,0.0,0.0,0.0,0.0,0.0,0.0,0.0,-2.1109,-2.1109,-2.1109,-2.1109,-2.1109,-2.1109,-2.1109,-2.1109,-2.1109,-2.1109,-2.1109,-2.1109,-2.1109,-2.1109,-2.1109,-2.1122,-2.1216,-2.1376,-2.1577,-2.1871,-2.2151,-2.2445,-2.2752,-2.2859,-2.2859,-2.2859,-2.2859,-2.2859,-2.2859,-2.2022,-2.1321,-2.2448,-2.1596,-2.0479,-2.2297,-2.2448,-2.216,-2.2722,-2.2939,-2.3086,-2.3394,-2.3327,-2.2664,-2.0911,-2.0542,-2.008,-1.7967,-2.023,-2.1751,-1.9176,-1.9629,-2.0564,-2.0664,-2.0274,-2.0714,-2.2928,-2.0547,-1.7198,-1.3094,-1.2525,-1.2567,-1.2567,-1.4091,-1.4397,-1.272,-1.3677,-1.3868,-1.2656,-1.2501,-1.2501,-1.2501,-1.2501,-1.2501,-1.2501,-1.2501,-1.263,-1.2881,-1.2935,-1.3112,-1.3403,-1.3403,-1.3403,0.0,0.0,0.0,0.0,0.0,0.0,0.0,0.0,0.0,0.0,0.0,0.0,0.0,0.0,0.0,0.0,0.0,0.0,0.0,0.0,0.0,0.0,0.0,0.0,0.0,0.0,0.0,0.0,-2.1109,-2.1109,-2.1109,-2.1109,-2.1109,-2.1109,-2.1109,-2.1109,-2.1109,-2.1109,-2.1109,-2.1109,-2.1109,-2.1109,-2.1109,-2.1109,-2.1109,-2.1136,-2.143,-2.1563,-2.1603,-2.1884,-2.2164,-2.2458,-2.2752,-2.2859,-2.2859,-2.2859,-2.2859,-2.2859,-2.2859,-2.2859,-2.2859,-2.2859,-2.1596,-2.034,-2.2297,-2.1596,-2.0479,-2.2448,-2.31,-2.3394,-2.3701,-2.2568,-2.0991,-1.9025,-1.8572,-1.7967,-1.5845,-1.7056,-1.8421,-1.8421,-1.8421,-1.8905,-2.0211,-1.9229,-1.8946,-2.0408,-1.9284,-1.7033,-1.3127,-1.2501,-1.2501,-1.2501,-1.2501,-1.2501,-1.2501,-1.2501,-1.2501,-1.2501,-1.2501,-1.2501,-1.2501,-1.2501,-1.2501,-1.2501,-1.2501,-1.2576,-1.2732,-1.2888,-1.3112,-1.3397,-1.3397,-1.3403,-0.7871,0.0,0.0,0.0,0.0,0.0,0.0,0.0,0.0,0.0,0.0,0.0,0.0,0.0,0.0,0.0,0.0,0.0,0.0,0.0,0.0,0.0,0.0,0.0,0.0,0.0,0.0,0.0,-2.1109,-2.1109,-2.1109,-2.1109,-2.1109,-2.1109,-2.1109,-2.1109,-2.1109,-2.1109,-2.1109,-2.1109,-2.1109,-2.1109,-2.1109,-2.1109,-2.1229,-2.143,-2.151,-2.179,-2.2178,-2.2271,-2.2472,-2.2752,-2.2832,-2.2859,-2.2859,-2.2859,-2.2859,-2.2859,-2.2859,-2.2022,-2.0894,-2.0894,-1.9634,-1.8369,-2.034,-2.0479,-2.0515,-2.2571,-2.326,-2.3153,-2.2174,-2.0603,-1.8874,-1.6904,-1.6294,-1.5845,-1.3714,-1.3714,-1.4176,-1.4176,-1.5387,-1.5998,-1.496,-1.4428,-1.5345,-1.8612,-1.6348,-1.4911,-1.6717,-1.4376,-1.2501,-1.2501,-1.2501,-1.2501,-1.2501,-1.2501,-1.2501,-1.2501,-1.2501,-1.2501,-1.2501,-1.2501,-1.2501,-1.2501,-1.2501,-1.2576,-1.2732,-1.2888,-1.3057,-1.3241,-1.3349,-1.3403,0.0,0.0,0.0,0.0,0.0,0.0,0.0,0.0,0.0,0.0,0.0,0.0,0.0,0.0,0.0,0.0,0.0,0.0,0.0,0.0,0.0,0.0,0.0,0.0,0.0,0.0,-2.1109,-2.1109,-2.1109,-2.1109,-2.1109,-2.1109,-2.1109,-2.1109,-2.1109,-2.1109,-2.1109,-2.1109,-2.1109,-2.1109,-2.1109,-2.1109,-2.1109,-2.1109,-2.1269,-2.1563,-2.1683,-2.1991,-2.2432,-2.2552,-2.2712,-2.2859,-2.2859,-2.2859,-2.2859,-2.2859,-2.2859,-2.2859,-2.2859,-2.216,-2.117,-2.034,-1.9356,-1.8508,-1.8798,-1.9564,-2.0531,-2.1835,-2.2345,-2.1894,-1.9478,-1.802,-1.6751,-1.4782,-1.433,-1.3868,-1.2804,-1.2501,-1.2501,-1.2501,-1.3414,-1.3868,-1.2656,-1.2454,-1.337,-1.5769,-1.4007,-1.337,-1.5778,-1.3906,-1.2501,-1.2501,-1.2501,-1.2501,-1.2501,-1.2501,-1.2501,-1.2501,-1.2501,-1.2501,-1.2501,-1.2501,-1.2501,-1.2501,-1.2501,-1.2576,-1.2732,-1.2888,-1.3064,-1.3268,-1.3356,-1.3403,0.0,0.0,0.0,0.0,0.0,0.0,0.0,0.0,0.0,0.0,0.0,0.0,0.0,0.0,0.0,0.0,0.0,0.0,0.0,0.0,0.0,0.0,0.0,0.0,0.0,-2.1109,-2.1109,-2.1109,-2.1109,-2.1109,-2.1109,-2.1109,-2.1109,-2.1109,-2.1109,-2.1109,-2.1109,-2.1109,-2.1109,-2.1109,-2.1109,-2.1109,-2.1109,-2.1149,-2.1323,-2.1617,-2.1911,-2.2205,-2.2485,-2.2752,-2.2859,-2.2859,-2.2859,-2.2859,-2.2859,-2.2859,-2.2859,-2.2859,-2.2859,-2.2859,-2.2585,-2.0479,-1.9773,-1.9356,-1.7529,-1.8248,-1.9872,-2.0213,-2.0439,-1.9818,-1.6402,-1.5387,-1.4782,-1.2958,-1.2501,-1.2501,-1.2501,-1.2501,-1.2501,-1.2501,-1.2501,-1.2501,-1.2501,-1.2501,-1.2501,-1.2501,-1.2501,-1.2501,-1.2501,-1.2501,-1.2501,-1.2501,-1.2501,-1.2501,-1.2501,-1.2501,-1.2501,-1.2501,-1.2501,-1.2501,-1.2501,-1.2501,-1.2501,-1.2501,-1.2501,-1.2583,-1.2759,-1.2895,-1.3105,-1.3376,-1.339,-1.3403,0.0,0.0,0.0,0.0,0.0,0.0,0.0,0.0,0.0,0.0,0.0,0.0,0.0,0.0,0.0,0.0,0.0,0.0,0.0,0.0,0.0,0.0,0.0,0.0,0.0,-2.1109,-2.1109,-2.1109,-2.1109,-2.1109,-2.1109,-2.1109,-2.1109,-2.1109,-2.1109,-2.1109,-2.1109,-2.1109,-2.1109,-2.1109,-2.1109,-2.1109,-2.1122,-2.1363,-2.163,-2.1924,-2.2205,-2.2498,-2.2779,-2.2846,-2.2859,-2.2859,-2.2859,-2.2859,-2.2859,-2.2859,-2.2859,-2.2859,-2.2859,-2.2859,-2.2297,-1.8927,-1.7809,-1.7388,-1.5557,-1.5417,-1.622,-1.8006,-1.7553,-1.6402,-1.5675,-1.433,-1.2958,-1.2656,-1.2501,-1.2501,-1.2501,-1.2501,-1.2501,-1.2501,-1.2501,-1.2501,-1.2501,-1.2501,-1.2501,-1.2501,-1.2501,-1.2501,-1.2501,-1.2501,-1.2501,-1.2501,-1.2501,-1.2501,-1.2501,-1.2501,-1.2501,-1.2501,-1.2501,-1.2501,-1.2501,-1.2501,-1.2501,-1.2501,-1.2501,-1.2637,-1.2915,-1.2949,-1.3051,-1.322,-1.3342,-1.3403,0.0,0.0,0.0,-1.0599,0.0,0.0,0.0,0.0,0.0,0.0,0.0,0.0,0.0,0.0,0.0,0.0,0.0,0.0,0.0,0.0,0.0,0.0,0.0,0.0,0.0,-2.1109,-2.1109,-2.1109,-2.1109,-2.1109,-2.1109,-2.1109,-2.1109,-2.1109,-2.1109,-2.1109,-2.1109,-2.1109,-2.1109,-2.1109,-2.1109,-2.1189,-2.1336,-2.1483,-2.179,-2.2205,-2.2352,-2.2592,-2.2859,-2.2859,-2.2859,-2.2859,-2.2859,-2.2859,-2.2859,-2.2859,-2.2859,-2.2859,-2.2859,-2.2297,-2.1032,-1.8089,-1.7329,-1.6842,-1.4002,-1.4043,-1.5189,-1.6514,-1.6223,-1.5234,-1.433,-1.3259,-1.2501,-1.2501,-1.2501,-1.2501,-1.2501,-1.2501,-1.2501,-1.2501,-1.2501,-1.2501,-1.2501,-1.2501,-1.2501,-1.2501,-1.2501,-1.2501,-1.2501,-1.2501,-1.2501,-1.2501,-1.2501,-1.2501,-1.2501,-1.2501,-1.2501,-1.2501,-1.2501,-1.2501,-1.2501,-1.2501,-1.2501,-1.2501,-1.2501,-1.2617,-1.2847,-1.2922,-1.3071,-1.3288,-1.3363,-1.3403,0.0,0.0,0.0,0.0,0.0,-1.1718,0.0,0.0,0.0,0.0,0.0,0.0,0.0,0.0,0.0,0.0,0.0,0.0,0.0,0.0,0.0,0.0,0.0,0.0,0.0,-2.0681,-2.0802,-2.1082,-2.0842,-2.0815,-2.1096,-2.1109,-2.1109,-2.1109,-2.0716,-2.0589,-2.0589,-2.0589,-2.0589,-2.0589,-2.1036,-2.1323,-2.155,-2.167,-2.1977,-2.2418,-2.2067,-2.2089,-2.2297,-2.2022,-2.1734,-2.1872,-2.2585,-2.2859,-2.2859,-2.2859,-2.2859,-2.2859,-2.2859,-2.1734,-1.9785,-1.7861,-1.6891,-1.5922,-1.278,-1.326,-1.47,-1.4879,-1.4935,-1.4475,-1.2958,-1.2501,-1.2501,-1.2501,-1.2501,-1.2501,-1.2501,-1.2501,-1.2501,-1.2501,-1.2501,-1.2501,-1.2501,-1.2501,-1.2501,-1.2501,-1.2501,-1.2501,-1.2501,-1.2501,-1.2501,-1.2501,-1.2501,-1.2501,-1.2501,-1.2501,-1.2501,-1.2501,-1.2501,-1.2501,-1.2501,-1.2501,-1.2501,-1.2501,-1.2501,-1.2589,-1.2773,-1.2901,-1.3098,-1.3356,-1.339,-1.3403,0.0,0.0,0.0,0.0,-1.1285,0.0,0.0,0.0,0.0,0.0,0.0,0.0,0.0,0.0,0.0,0.0,0.0,0.0,0.0,0.0,0.0,0.0,0.0,0.0,0.0,0.0,-1.9706,-2.1015,-1.9907,-1.9733,-2.1042,-2.1109,-2.1109,-2.1109,-1.9546,-1.8768,-1.8768,-1.8768,-1.8768,-1.8768,-2.0708,-2.1523,-2.1577,-2.2084,-2.2352,-2.2297,-2.0884,-2.0443,-2.034,-1.8508,-1.7809,-1.8229,-2.1596,-2.2859,-2.2859,-2.2859,-2.2859,-2.2859,-2.2859,-2.1734,-1.9808,-1.8039,-1.5241,-1.265,-1.2347,-1.2409,-1.2616,-1.2762,-1.2804,-1.2804,-1.2501,-1.2501,-1.2501,-1.2501,-1.2501,-1.2501,-1.2501,-1.2501,-1.2501,-1.2501,-1.2501,-1.2501,-1.2501,-1.2501,-1.2501,-1.2501,-1.2501,-1.2501,-1.2501,-1.2501,-1.2501,-1.2501,-1.2501,-1.2501,-1.2501,-1.2501,-1.2501,-1.2501,-1.2501,-1.2501,-1.2501,-1.2501,-1.2501,-1.2501,-1.2501,-1.2644,-1.2935,-1.2949,-1.3044,-1.32,-1.3336,-1.3403,0.0,0.0,0.0,0.0,0.0,0.0,0.0,0.0,-1.0314,0.0,0.0,0.0,0.0,0.0,0.0,0.0,0.0,0.0,0.0,0.0,0.0,0.0,0.0,0.0,0.0,0.0,0.0,0.0,0.0,-1.9305,-2.0775,-2.1015,-2.1109,-2.1109,-1.9419,-1.8512,-1.8512,-1.7474,-1.7474,-1.8512,-1.956,-2.0707,-2.1817,-2.2231,-2.1958,-2.1009,-2.0431,-1.9495,-1.8369,-1.7529,-1.7248,-1.7398,-1.8927,-2.0328,-2.117,-2.0051,-2.0328,-2.1195,-2.0075,-1.8573,-1.6644,-1.5086,-1.3469,-1.2223,-1.2366,-1.2413,-1.2427,-1.2481,-1.2501,-1.2501,-1.2501,-1.2501,-1.2501,-1.2501,-1.2501,-1.2501,-1.2501,-1.2501,-1.2501,-1.2501,-1.2501,-1.2501,-1.2501,-1.2501,-1.2501,-1.2501,-1.2501,-1.2501,-1.2501,-1.2501,-1.2501,-1.2501,-1.2501,-1.2501,-1.2501,-1.2501,-1.2501,-1.2501,-1.2501,-1.2501,-1.2501,-1.2501,-1.2501,-1.2501,-1.2501,-1.261,-1.2827,-1.2915,-1.303,-1.3173,-1.3329,-1.3403,-0.7899,0.0,0.0,0.0,0.0,0.0,0.0,0.0,0.0,0.0,0.0,0.0,0.0,0.0,0.0,0.0,0.0,0.0,0.0,0.0,0.0,0.0,0.0,0.0,0.0,0.0,0.0,0.0,0.0,-1.8651,-2.0681,-2.0922,-2.0763,-2.0449,-1.864,-1.7602,-1.7076,-1.5784,-1.6073,-1.7961,-1.8746,-2.0203,-2.2111,-2.2405,-2.168,-2.0063,-1.9495,-1.8229,-1.6404,-1.5849,-1.5707,-1.5707,-1.5707,-1.6826,-1.8369,-1.7529,-1.8131,-1.92,-1.7948,-1.6365,-1.4473,-1.2813,-1.2318,-1.2366,-1.2467,-1.2501,-1.2501,-1.2501,-1.2501,-1.2501,-1.2501,-1.2501,-1.2501,-1.2501,-1.2501,-1.2501,-1.2501,-1.2501,-1.2501,-1.2501,-1.2501,-1.2501,-1.2501,-1.2501,-1.2501,-1.2501,-1.2501,-1.2501,-1.2501,-1.2501,-1.2501,-1.2501,-1.2501,-1.2501,-1.2501,-1.2501,-1.2501,-1.2501,-1.2501,-1.2501,-1.2501,-1.2501,-1.2501,-1.2501,-1.2501,-1.2576,-1.2732,-1.2888,-1.303,-1.3173,-1.3329,-1.3403,0.0,0.0,0.0,-0.8421,0.0,0.0,0.0,0.0,-1.0655,0.0,0.0,0.0,0.0,0.0,0.0,0.0,0.0,0.0,0.0,0.0,0.0,0.0,0.0,0.0,0.0,0.0,0.0,0.0,0.0,0.0,-2.0909,-2.0842,-2.0052,-1.8628,-1.6947,-1.5135,-1.3456,-1.3456,-1.4454,-1.6501,-1.8472,-2.0488,-2.2418,-2.2712,-2.1872,-2.0051,-1.8089,-1.6263,-1.429,-1.2466,-1.1763,-1.1763,-1.1763,-1.2888,-1.4858,-1.6545,-1.7379,-1.7561,-1.7571,-1.6397,-1.4802,-1.2885,-1.2386,-1.2494,-1.2501,-1.2501,-1.2501,-1.2501,-1.2501,-1.2501,-1.2501,-1.2501,-1.2501,-1.2501,-1.2501,-1.2501,-1.2501,-1.2501,-1.2501,-1.2501,-1.2501,-1.2501,-1.2501,-1.2501,-1.2501,-1.2501,-1.2501,-1.2501,-1.2501,-1.2501,-1.2501,-1.2501,-1.2501,-1.2501,-1.2501,-1.2501,-1.2501,-1.2501,-1.2501,-1.2501,-1.2501,-1.2501,-1.2501,-1.2501,-1.2501,-1.2576,-1.2732,-1.2888,-1.303,-1.3173,-1.3329,-1.3403,0.0,0.0,-0.9588,-0.8972,0.0,0.0,0.0,0.0,0.0,0.0,0.0,0.0,0.0,0.0,0.0,0.0,0.0,0.0,0.0,0.0,0.0,0.0,0.0,0.0,0.0,0.0,0.0,0.0,0.0,0.0,0.0,-2.0628,-2.0039,-1.85,-1.6818,-1.5005,-1.3325,-1.2157,-1.25,-1.453,-1.6603,-1.8732,-2.0502,-2.0909,-2.0051,-1.8089,-1.6122,-1.429,-1.2466,-1.19,-1.1619,-1.1619,-1.1619,-1.2043,-1.2617,-1.329,-1.4516,-1.547,-1.4416,-1.3755,-1.3334,-1.258,-1.2461,-1.2501,-1.2501,-1.2501,-1.2501,-1.2501,-1.2501,-1.2501,-1.2501,-1.2501,-1.2501,-1.2501,-1.2501,-1.2501,-1.2501,-1.2501,-1.2501,-1.2501,-1.2501,-1.2501,-1.2501,-1.2501,-1.2501,-1.2501,-1.2501,-1.2501,-1.2501,-1.2501,-1.2501,-1.2501,-1.2501,-1.2501,-1.2501,-1.2501,-1.2501,-1.2501,-1.2501,-1.2501,-1.2501,-1.2501,-1.2501,-1.2501,-1.2501,-1.2576,-1.2732,-1.2888,-1.303,-1.3173,-1.3329,-1.3403,-0.9072,-0.9815,0.0,-0.9202,-0.9004,0.0,-0.8708,0.0,0.0,0.0,0.0,0.0,0.0,0.0,0.0,0.0,0.0,0.0,0.0,0.0,0.0,0.0,0.0,0.0,0.0,0.0,0.0,0.0,0.0,0.0,0.0,0.0,-2.0039,-1.85,-1.6818,-1.5005,-1.3325,-1.1637,-1.1747,-1.3705,-1.5837,-1.783,-1.9816,-1.998,-1.9077,-1.7117,-1.5283,-1.3309,-1.1619,-1.1619,-1.1619,-1.1619,-1.1619,-1.1647,-1.1708,-1.1796,-1.2626,-1.3644,-1.2726,-1.2427,-1.2501,-1.2501,-1.2501,-1.2501,-1.2501,-1.2501,-1.2501,-1.2501,-1.2501,-1.2501,-1.2501,-1.2501,-1.2501,-1.2501,-1.2501,-1.2501,-1.2501,-1.2501,-1.2501,-1.2501,-1.2501,-1.2501,-1.2501,-1.2501,-1.2501,-1.2501,-1.2501,-1.2501,-1.2501,-1.2501,-1.2501,-1.2501,-1.2501,-1.2501,-1.2501,-1.2501,-1.2501,-1.2501,-1.2501,-1.2501,-1.2501,-1.2501,-1.2501,-1.2501,-1.2556,-1.263,-1.2732,-1.2935,-1.3085,-1.3173,-1.3329,-1.3403]}]]